Date StartTime U_cm/s V_cm/s W_cm/s Ustd_cm/s Vstd_cm/s Wstd_cm/s Uvar_(cm/s)^2 Vvar_(cm/s)^2 Wvar_(cm/s)^2 KE_(m/s)^2 TurbulentKE_(m/s)^2 HorizWindSpeed_cm/s FrictionSpeec_cm/s DragCoef SpeedOfSound_m/s SonicTemperature_C Pressure_mb 
12/20/2014  00:00:00      -95.502      -22.331       -4.381       39.969       25.342       14.906     1597.483      642.221      222.182        0.605        0.123       98.078       16.667        0.029      335.610        6.358      861.515
12/20/2014  00:01:00     -106.085      -11.302       -4.484       30.297       33.120       21.783      917.928     1096.943      474.491        0.695        0.124      106.685       19.013        0.032      335.683        6.481      861.518
12/20/2014  00:02:00     -104.386      -17.581       -6.789       28.595       22.638       16.984      817.648      512.492      288.465        0.643        0.081      105.856       11.318        0.011      335.585        6.316      861.541
12/20/2014  00:03:00     -117.080        1.788       -6.296       45.805       25.535       24.029     2098.090      652.061      577.414        0.854        0.166      117.094       26.295        0.050      335.621        6.377      861.574
12/20/2014  00:04:00      -90.563      -35.830       -0.664       29.825       21.283       15.342      889.532      452.961      235.390        0.553        0.079       97.393       15.430        0.025      335.580        6.309      861.612
12/20/2014  00:05:00     -102.829       -6.380       -8.464       25.093       19.800       18.258      629.648      392.050      333.344        0.602        0.068      103.027       15.606        0.023      335.641        6.412      861.634
12/20/2014  00:06:00      -76.571       -0.834        0.168       33.746       26.631       18.824     1138.817      709.207      354.354        0.403        0.110       76.575       18.037        0.055      335.771        6.627      861.663
12/20/2014  00:07:00      -97.136      -11.746       -4.723       22.577       17.419       15.957      509.698      303.434      254.623        0.533        0.053       97.843       14.195        0.021      335.601        6.344      861.704
12/20/2014  00:08:00      -99.508       -6.801       -4.353       27.344       17.765       15.879      747.698      315.602      252.155        0.564        0.066       99.741       16.633        0.028      335.600        6.343      861.755
12/20/2014  00:09:00      -89.409       -6.405       -9.268       13.403       13.657       12.416      179.630      186.527      154.168        0.432        0.026       89.638        6.952        0.006      335.607        6.353      861.790
12/20/2014  00:10:00      -67.136      -16.305       -7.036       19.712       11.888        8.430      388.573      141.320       71.061        0.271        0.030       69.087        8.193        0.014      335.664        6.450      861.805
12/20/2014  00:11:00      -34.140      -11.302        1.527        9.544        6.918        9.166       91.084       47.861       84.021        0.076        0.011       35.962        4.475        0.015      335.666        6.451      861.810
12/20/2014  00:12:00      -34.696      -10.731       -6.723       10.074        9.195        6.299      101.480       84.550       39.679        0.079        0.011       36.317        7.083        0.038      335.672        6.463      861.824
12/20/2014  00:13:00      -43.515      -13.330       -3.615       25.953       14.570       11.429      673.540      212.297      130.621        0.155        0.051       45.511       11.167        0.060      335.731        6.562      861.856
12/20/2014  00:14:00      -83.968       11.644       -9.731       46.708       25.568       20.426     2181.598      653.728      417.230        0.527        0.163       84.772       19.473        0.053      335.805        6.684      861.881
12/20/2014  00:15:00      -83.817        2.907       -5.135       59.857       47.008       32.376     3582.836     2209.715     1048.214        0.695        0.342       83.867       38.142        0.207      335.698        6.505      861.904
12/20/2014  00:16:00     -104.957       -5.896       -9.858       38.515       40.963       24.540     1483.412     1677.983      602.217        0.745        0.188      105.122       22.158        0.044      335.814        6.699      861.916
12/20/2014  00:17:00     -103.830       -6.306      -18.318       32.111       46.008       22.644     1031.115     2116.748      512.735        0.741        0.183      104.021       18.895        0.033      335.557        6.272      861.931
12/20/2014  00:18:00      -97.197        0.161      -21.008       28.340       37.123       18.072      803.167     1378.108      326.592        0.620        0.125       97.198       13.508        0.019      335.660        6.442      861.936
12/20/2014  00:19:00      -44.379      -24.976        4.394       23.041       24.662       17.336      530.879      608.192      300.541        0.203        0.072       50.924       10.476        0.042      335.530        6.225      861.936
12/20/2014  00:20:00     -103.926        5.645      -15.328       21.192       21.954       15.362      449.099      481.982      235.983        0.612        0.058      104.080       11.264        0.012      335.552        6.261      861.926
12/20/2014  00:21:00      -63.286       -4.462       -9.208       16.142       13.920       10.968      260.558      193.755      120.293        0.234        0.029       63.443       10.189        0.026      335.507        6.187      861.902
12/20/2014  00:22:00       -4.609       -4.237        2.430       20.825       12.544       12.629      433.661      157.343      159.493        0.040        0.038        6.261       14.564        5.412      335.670        6.456      861.899
12/20/2014  00:23:00       19.085       44.994       -9.178       12.836       15.020        9.957      164.760      225.601       99.138        0.148        0.024       48.875        6.438        0.017      335.508        6.188      861.911
12/20/2014  00:24:00        4.087       74.996      -13.040       14.781       15.864        6.278      218.484      251.670       39.419        0.316        0.025       75.107        5.548        0.005      335.545        6.250      861.936
12/20/2014  00:25:00      -36.447       77.189       -6.842       29.930       31.163       17.007      895.786      971.161      289.241        0.474        0.108       85.361       12.847        0.023      335.765        6.616      861.955
12/20/2014  00:26:00      -68.908       31.847       -4.907       26.632       22.746       20.369      709.266      517.359      414.906        0.371        0.082       75.912       15.181        0.040      335.997        7.003      861.973
12/20/2014  00:27:00      -85.498       37.194       -8.250       22.060       26.554       15.866      486.625      705.120      251.729        0.510        0.072       93.237        8.860        0.009      335.959        6.940      862.008
12/20/2014  00:28:00     -102.404       11.307       -2.675       48.678       29.585       24.486     2369.560      875.301      599.564        0.723        0.192      103.026       24.356        0.056      335.775        6.633      862.024
12/20/2014  00:29:00      -82.353      -18.818      -12.421       18.267       29.904       14.500      333.682      894.265      210.238        0.436        0.072       84.475       11.098        0.017      335.605        6.351      862.023
12/20/2014  00:30:00      -64.769       31.774      -10.043       28.533       37.292       18.814      814.146     1390.692      353.958        0.393        0.128       72.143       16.867        0.055      335.671        6.461      862.017
12/20/2014  00:31:00      -79.848      -12.293      -10.477       36.009       23.175       18.695     1296.631      537.081      349.501        0.441        0.109       80.789       18.325        0.051      335.511        6.195      862.015
12/20/2014  00:32:00      -72.133      -21.007      -13.631       23.625       27.727       17.657      558.158      768.812      311.759        0.373        0.082       75.130       13.728        0.033      335.608        6.356      862.034
12/20/2014  00:33:00     -123.559      -34.986      -10.207       36.330       34.537       19.973     1319.877     1192.788      398.924        0.975        0.146      128.417       14.839        0.013      335.764        6.617      862.049
12/20/2014  00:34:00     -146.047      -72.535       -8.615       44.709       36.243       32.277     1998.885     1313.547     1041.824        1.551        0.218      163.068       29.362        0.032      335.560        6.275      862.045
12/20/2014  00:35:00      -93.813      -25.376       -4.059       46.092       36.693       23.101     2124.492     1346.341      533.649        0.673        0.200       97.184       23.863        0.060      335.491        6.157      862.009
12/20/2014  00:36:00     -176.860      -72.548      -18.828       50.189       35.609       28.777     2518.897     1268.007      828.129        2.076        0.231      191.161        9.098        0.002      335.460        6.107      861.975
12/20/2014  00:37:00     -178.118      -28.855      -24.385       44.676       33.803       25.492     1995.941     1142.667      649.831        1.847        0.189      180.440       20.549        0.013      335.487        6.153      861.971
12/20/2014  00:38:00     -116.546       27.995      -13.342       43.201       41.255       21.510     1866.348     1701.984      462.666        0.929        0.202      119.861       25.789        0.046      335.567        6.287      861.983
12/20/2014  00:39:00      -39.923       38.386       -1.246       50.639       28.605       28.937     2564.303      818.222      837.330        0.364        0.211       55.383       26.182        0.223      335.650        6.425      861.956
12/20/2014  00:40:00      -52.752       77.744      -12.264       40.899       39.834       28.618     1672.741     1586.735      819.010        0.653        0.204       93.952       27.374        0.085      335.873        6.797      861.912
12/20/2014  00:41:00      -26.799       46.792       -9.401       33.615       47.201       15.989     1129.973     2227.906      255.644        0.330        0.181       53.923       15.214        0.080      335.813        6.697      861.882
12/20/2014  00:42:00     -139.941      -63.435       -6.221       48.692       45.946       29.793     2370.938     2111.005      887.647        1.451        0.268      153.647        8.790        0.003      335.640        6.409      861.898
12/20/2014  00:43:00     -178.574      -32.391      -12.067       37.914       51.706       24.047     1437.453     2673.489      578.275        1.889        0.234      181.488       17.309        0.009      335.592        6.328      861.927
12/20/2014  00:44:00     -131.773       35.577       -5.646       66.683       33.578       29.108     4446.625     1127.510      847.281        1.254        0.321      136.491       36.090        0.070      335.818        6.705      861.912
12/20/2014  00:45:00     -115.120       39.133      -11.313       56.581       31.018       25.891     3201.355      962.120      670.356        0.987        0.242      121.589       23.896        0.039      335.677        6.468      861.889
12/20/2014  00:46:00      -56.540      100.762      -20.294       22.262       24.654       15.040      495.581      607.838      226.206        0.755        0.066      115.541       11.801        0.010      335.761        6.609      861.903
12/20/2014  00:47:00       17.368       63.897        4.834       24.200       23.706       16.884      585.633      561.952      285.056        0.292        0.072       66.215       15.751        0.057      335.829        6.723      861.900
12/20/2014  00:48:00       66.243       35.335        4.096       36.860       20.752       22.805     1358.672      430.660      520.088        0.398        0.115       75.077       10.273        0.019      335.657        6.436      861.851
12/20/2014  00:49:00       24.414       43.582       37.063       37.880       29.294       25.828     1434.870      858.116      667.086        0.341        0.148       49.955       25.767        0.266      335.701        6.511      861.754
12/20/2014  00:50:00        9.837       14.071       27.405       37.560       56.137       37.763     1410.729     3151.409     1426.073        0.352        0.299       17.169       37.071        4.662      335.709        6.524      861.694
12/20/2014  00:51:00      -60.392      -11.307        2.073       47.881       48.089       20.128     2292.570     2312.580      405.128        0.439        0.251       61.441       22.712        0.137      335.782        6.646      861.718
12/20/2014  00:52:00      -64.633        4.115       -3.892       42.626       40.812       21.156     1816.957     1665.651      447.596        0.407        0.197       64.764       20.238        0.098      335.958        6.937      861.727
12/20/2014  00:53:00      -60.743        2.087       -2.584       39.547       29.184       21.105     1563.983      851.716      445.439        0.328        0.143       60.779       22.074        0.132      335.887        6.821      861.707
12/20/2014  00:54:00      -75.652       10.503       -8.365       32.827       33.381       20.018     1077.591     1114.314      400.737        0.425        0.130       76.377       18.411        0.058      335.860        6.777      861.698
12/20/2014  00:55:00      -38.609       17.387        0.366       19.862       30.311       21.110      394.489      918.744      445.651        0.178        0.088       42.344       16.597        0.154      335.665        6.450      861.693
12/20/2014  00:56:00      -61.421       33.798      -11.009       18.809       32.530       16.477      353.774     1058.190      271.478        0.336        0.084       70.107       14.754        0.044      335.716        6.536      861.709
12/20/2014  00:57:00      -12.015       76.458       -9.725       28.337       32.559       19.752      803.007     1060.063      390.126        0.417        0.113       77.396       19.160        0.061      335.773        6.631      861.730
12/20/2014  00:58:00       20.693       89.940      -14.606       24.281       32.505       20.208      589.545     1056.585      408.361        0.539        0.103       92.290       19.764        0.046      335.742        6.577      861.763
12/20/2014  00:59:00       47.185       37.242        0.899       45.436       32.722       19.308     2064.406     1070.699      372.807        0.356        0.175       60.112       16.753        0.078      335.710        6.526      861.778
12/20/2014  01:00:00      158.098       74.155       21.281       60.937       48.274       34.884     3713.378     2330.339     1216.886        1.910        0.363      174.626       27.410        0.025      335.809        6.689      861.737
12/20/2014  01:01:00      165.131       84.535        6.977       65.813       48.442       43.727     4331.388     2346.660     1912.023        2.152        0.430      185.511       38.346        0.043      335.797        6.669      861.628
12/20/2014  01:02:00      157.833       88.810       30.502       51.701       43.472       42.991     2672.984     1889.826     1848.255        2.007        0.321      181.103       22.971        0.016      335.842        6.744      861.536
12/20/2014  01:03:00       84.655       49.881       10.204       63.421       38.074       25.204     4022.163     1449.603      635.247        0.793        0.305       98.258       22.250        0.051      335.804        6.683      861.532
12/20/2014  01:04:00       27.664        8.082       12.425       38.369       32.504       23.098     1472.154     1056.523      533.507        0.202        0.153       28.821       19.703        0.467      335.833        6.731      861.532
12/20/2014  01:05:00        3.329       -7.899       -0.578       26.379       31.959       17.964      695.865     1021.381      322.697        0.106        0.102        8.572       14.908        3.025      335.781        6.644      861.527
12/20/2014  01:06:00      -58.302       10.178       -4.633       28.954       27.773       15.493      838.322      771.343      240.028        0.269        0.092       59.183        9.127        0.024      335.719        6.540      861.527
12/20/2014  01:07:00      -75.616       -6.802      -11.442       33.176       18.758       14.413     1100.636      351.861      207.737        0.378        0.083       75.921       15.993        0.044      335.758        6.606      861.491
12/20/2014  01:08:00      -59.293       -0.978       -1.321       26.155       28.163       16.595      684.064      793.153      275.400        0.264        0.088       59.301       14.088        0.056      335.898        6.838      861.440
12/20/2014  01:09:00        9.124       34.114        3.766       29.770       20.910       16.440      886.262      437.208      270.270        0.143        0.080       35.313       12.300        0.121      335.949        6.925      861.335
12/20/2014  01:10:00       48.584       29.616        4.911       15.456       19.115       16.779      238.901      365.394      281.530        0.207        0.044       56.899       12.235        0.046      335.909        6.856      861.277
12/20/2014  01:11:00       24.249       20.460       18.159       15.894       14.437       14.495      252.619      208.419      210.104        0.100        0.034       31.727        9.496        0.090      335.916        6.869      861.253
12/20/2014  01:12:00        9.805       55.737       -1.582       10.711       21.046       13.009      114.727      442.917      169.229        0.197        0.036       56.593       15.083        0.071      335.966        6.951      861.184
12/20/2014  01:13:00      -16.434      101.014      -15.544       19.561       22.556       11.585      382.633      508.753      134.210        0.587        0.051      102.342        3.977        0.002      336.189        7.325      861.168
12/20/2014  01:14:00        6.813       49.420       -5.753       27.917       40.265       14.290      779.353     1621.270      204.206        0.256        0.130       49.887       13.916        0.078      336.179        7.307      861.193
12/20/2014  01:15:00       39.060       21.009        2.618       31.481       22.570       16.597      991.065      509.420      275.466        0.187        0.089       44.351       10.143        0.052      335.983        6.979      861.199
12/20/2014  01:16:00       60.845       49.808       18.556       27.435       29.810       23.719      752.665      888.610      562.596        0.437        0.110       78.632       15.308        0.038      335.929        6.888      861.177
12/20/2014  01:17:00       43.911       16.209       17.701       21.471       25.566       21.862      460.987      653.645      477.943        0.205        0.080       46.808       13.105        0.078      335.990        6.993      861.161
12/20/2014  01:18:00      -12.861       -6.596        8.778       33.156       16.319       13.120     1099.321      266.322      172.145        0.091        0.077       14.454       13.686        0.897      336.236        7.402      861.222
12/20/2014  01:19:00      -76.975      -16.588       -3.446       26.746       26.715       19.713      715.325      713.715      388.607        0.401        0.091       78.742       10.969        0.019      335.799        6.674      861.279
12/20/2014  01:20:00      -99.652      -38.996       -6.174       27.628       29.066       17.766      763.280      844.859      315.628        0.671        0.096      107.010       14.529        0.018      335.758        6.606      861.308
12/20/2014  01:21:00      -53.296       -7.627        5.830       53.341       30.039       26.646     2845.307      902.354      710.035        0.369        0.223       53.839       30.925        0.330      335.914        6.865      861.303
12/20/2014  01:22:00      -31.788      -17.129       -1.289       48.357       35.591       19.329     2338.355     1266.687      373.615        0.264        0.199       36.110       15.386        0.182      335.887        6.821      861.319
12/20/2014  01:23:00       -8.895       -5.659       26.902       16.624       46.512       24.219      276.371     2163.378      586.583        0.193        0.151       10.542       29.558        7.861      335.885        6.819      861.321
12/20/2014  01:24:00        2.640       46.740       81.638       27.444       43.359       24.985      753.150     1880.040      624.228        0.606        0.163       46.815       26.891        0.330      335.971        6.958      861.313
12/20/2014  01:25:00        4.476       59.300       78.983       26.561       36.318       24.146      705.463     1319.020      583.043        0.619        0.130       59.468       19.714        0.110      336.021        7.043      861.302
12/20/2014  01:26:00       56.236       75.537       85.462       54.699       42.530       33.326     2992.022     1808.836     1110.643        1.104        0.296       94.172       29.302        0.097      335.922        6.878      861.282
12/20/2014  01:27:00       91.355       67.288       51.195       62.074       47.166       42.251     3853.131     2224.631     1785.146        1.168        0.393      113.461       40.831        0.130      335.788        6.654      861.278
12/20/2014  01:28:00       73.806      -26.136        4.484       47.755       51.314       22.883     2280.551     2633.097      523.615        0.579        0.272       78.296       13.972        0.032      335.798        6.673      861.307
12/20/2014  01:29:00       24.439       58.523       16.877       51.587       38.701       31.222     2661.254     1497.739      974.783        0.472        0.257       63.421       23.249        0.134      335.793        6.664      861.346
12/20/2014  01:30:00       61.751       36.111       14.176       52.511       32.006       19.328     2757.446     1024.376      373.563        0.474        0.208       71.534       17.018        0.057      335.825        6.714      861.395
12/20/2014  01:31:00        8.632       18.429       -0.359       23.589       30.040       13.638      556.420      902.410      186.001        0.103        0.082       20.350       15.032        0.546      335.918        6.871      861.432
12/20/2014  01:32:00      -14.596      -26.945        9.365       18.331       15.530       13.652      336.037      241.187      186.384        0.090        0.038       30.644       11.451        0.140      335.890        6.824      861.441
12/20/2014  01:33:00      -27.127      -18.391      -10.472       12.228       15.064        7.862      149.521      226.915       61.808        0.081        0.022       32.773        5.318        0.026      335.899        6.839      861.447
12/20/2014  01:34:00       -2.603        5.641        5.613        8.908        9.301        8.720       79.353       86.505       76.040        0.016        0.012        6.213        7.403        1.420      335.875        6.799      861.442
12/20/2014  01:35:00       15.525       64.856       66.163       30.556       38.519       28.336      933.663     1483.677      802.910        0.602        0.161       66.688       25.775        0.149      335.853        6.763      861.409
12/20/2014  01:36:00       30.399       18.244       46.800       34.458       65.249       35.371     1187.350     4257.442     1251.091        0.507        0.335       35.454       41.243        1.353      335.783        6.647      861.387
12/20/2014  01:37:00       21.587       62.464       75.934       34.018       43.987       32.526     1157.254     1934.890     1057.964        0.714        0.208       66.089       17.357        0.069      335.745        6.584      861.349
12/20/2014  01:38:00      110.397      119.021       75.609       72.186       47.226       55.753     5210.865     2230.268     3108.435        2.131        0.527      162.338       46.030        0.080      335.674        6.464      861.268
12/20/2014  01:39:00       96.360       76.922       84.477       84.046       63.515       53.245     7063.696     4034.199     2835.027        1.813        0.697      123.297       47.754        0.150      335.559        6.272      861.155
12/20/2014  01:40:00       43.684       49.064       69.097       61.998       47.207       35.344     3843.782     2228.514     1249.174        0.820        0.366       65.693       34.751        0.280      335.567        6.286      861.210
12/20/2014  01:41:00       10.168       54.308       72.932       39.895       52.697       43.522     1591.578     2776.929     1894.130        0.732        0.313       55.252       40.605        0.540      335.566        6.285      861.304
12/20/2014  01:42:00       63.496     -121.666      -15.758       38.745       42.504       27.167     1501.142     1806.560      738.066        1.156        0.202      137.238       16.367        0.014      335.558        6.273      861.414
12/20/2014  01:43:00       83.583       40.595       41.970       66.124       48.467       44.088     4372.383     2349.014     1943.731        0.953        0.433       92.919       33.739        0.132      335.480        6.141      861.431
12/20/2014  01:44:00      103.191       29.142       26.250       51.891       43.410       35.763     2692.706     1884.448     1278.993        0.902        0.293      107.227       24.476        0.052      335.460        6.109      861.420
12/20/2014  01:45:00      135.547       62.338       53.194       66.161       55.269       49.595     4377.308     3054.694     2459.652        1.749        0.495      149.195       35.816        0.058      335.419        6.038      861.408
12/20/2014  01:46:00      107.536       62.382       10.369       57.264       40.037       34.852     3279.219     1602.937     1214.649        1.083        0.305      124.320       25.923        0.043      335.426        6.051      861.396
12/20/2014  01:47:00       95.630       49.999       17.807       36.118       40.056       26.705     1304.483     1604.463      713.151        0.779        0.181      107.912       16.855        0.024      335.398        6.006      861.405
12/20/2014  01:48:00       91.287       89.722       34.652       43.694       45.124       43.824     1909.128     2036.209     1920.586        1.172        0.293      127.997       21.110        0.027      335.435        6.067      861.446
12/20/2014  01:49:00       72.450       68.292       55.009       55.932       36.241       41.730     3128.339     1313.391     1741.434        0.956        0.309       99.563       31.333        0.099      335.446        6.086      861.461
12/20/2014  01:50:00       74.864       91.409       63.613       69.800       37.147       36.416     4872.040     1379.891     1326.143        1.279        0.379      118.153       42.967        0.132      335.458        6.106      861.424
12/20/2014  01:51:00       62.788      101.495      108.681       73.427       50.569       41.768     5391.548     2557.180     1744.555        1.787        0.485      119.347       35.738        0.090      335.445        6.082      861.395
12/20/2014  01:52:00       66.072       89.010       89.924       59.217       56.424       46.092     3506.705     3183.684     2124.467        1.459        0.441      110.853       33.401        0.091      335.441        6.076      861.399
12/20/2014  01:53:00      114.378       62.610       39.276       68.393       51.479       52.344     4677.587     2650.095     2739.926        1.430        0.503      130.392       43.507        0.111      335.436        6.068      861.387
12/20/2014  01:54:00       84.869       77.933       57.465       57.738       40.046       46.654     3333.664     1603.646     2176.629        1.184        0.356      115.222       32.478        0.079      335.524        6.214      861.343
12/20/2014  01:55:00       16.811       44.410       71.622       47.221       58.782       40.379     2229.827     3455.351     1630.432        0.735        0.366       47.486       40.562        0.730      335.535        6.232      861.283
12/20/2014  01:56:00       46.276        1.963       62.302       61.539       76.332       44.715     3787.109     5826.588     1999.463        0.882        0.581       46.317       55.288        1.425      335.464        6.116      861.218
12/20/2014  01:57:00       57.318       18.629       47.822       53.602       47.604       35.170     2873.147     2266.125     1236.915        0.615        0.319       60.269       37.460        0.386      335.465        6.117      861.181
12/20/2014  01:58:00       76.761        2.204       22.734       40.413       30.887       32.916     1633.202      953.978     1083.450        0.504        0.184       76.792       29.044        0.143      335.436        6.066      861.182
12/20/2014  01:59:00       25.595      -33.250       -6.375       18.018       16.982       13.904      324.639      288.375      193.307        0.130        0.040       41.960       12.367        0.087      335.424        6.046      861.214
12/20/2014  02:00:00       35.019      -26.969        5.932       17.554       14.058       12.356      308.140      197.618      152.667        0.132        0.033       44.200        7.048        0.025      335.431        6.056      861.237
12/20/2014  02:01:00       38.596       12.151        5.170       19.095       18.054       15.128      364.621      325.938      228.859        0.129        0.046       40.464       10.406        0.066      335.463        6.114      861.206
12/20/2014  02:02:00       11.468      -10.004       17.707       21.066       33.231       17.404      443.792     1104.317      302.890        0.120        0.093       15.219       14.141        0.863      335.499        6.171      861.185
12/20/2014  02:03:00       69.623     -104.509      -23.918       38.690       50.496       22.867     1496.910     2549.818      522.920        1.045        0.228      125.577       17.318        0.019      335.516        6.201      861.191
12/20/2014  02:04:00       74.055      -83.552      -11.392       60.264       48.106       41.889     3631.757     2314.192     1754.650        1.015        0.385      111.647       44.020        0.155      335.494        6.164      861.237
12/20/2014  02:05:00       76.417      -78.322       -0.663       53.226       47.895       39.933     2833.019     2293.891     1594.611        0.935        0.336      109.425       37.084        0.115      335.512        6.194      861.295
12/20/2014  02:06:00       36.647       -5.213       32.227       44.550       72.243       40.543     1984.669     5219.026     1643.739        0.563        0.442       37.016       50.372        1.852      335.492        6.162      861.307
12/20/2014  02:07:00        8.949       53.442       76.235       30.394       31.019       17.748      923.770      962.180      315.008        0.547        0.110       54.186       15.565        0.083      335.454        6.098      861.272
12/20/2014  02:08:00       20.723       62.704       64.242       41.278       30.631       28.628     1703.875      938.237      819.561        0.597        0.173       66.039       27.260        0.170      335.436        6.067      861.249
12/20/2014  02:09:00       47.650       28.444       21.443       38.372       30.141       27.285     1472.396      908.470      744.455        0.333        0.156       55.494       23.596        0.181      335.444        6.083      861.262
12/20/2014  02:10:00       15.230       -6.601       23.760       21.821       62.176       29.056      476.177     3865.910      844.249        0.301        0.259       16.599       36.488        4.832      335.497        6.171      861.262
12/20/2014  02:11:00       72.422      -45.816        1.907       19.309       26.890       24.690      372.833      723.091      609.611        0.453        0.085       85.697       22.984        0.072      335.440        6.076      861.223
12/20/2014  02:12:00       14.896       31.118       38.554       34.787       30.587       28.314     1210.121      935.542      801.659        0.281        0.147       34.500       29.707        0.741      335.442        6.076      861.172
12/20/2014  02:13:00       42.732       44.902       20.838       28.107       20.820       26.928      790.025      433.481      725.127        0.311        0.097       61.986       21.722        0.123      335.462        6.111      861.129
12/20/2014  02:14:00       76.488       38.717        9.389       28.563       20.510       18.916      815.832      420.677      357.833        0.452        0.080       85.729       12.718        0.022      335.454        6.098      861.075
12/20/2014  02:15:00       57.923       55.689       -0.396       31.483       29.094       23.746      991.189      846.443      563.891        0.443        0.120       80.351       17.255        0.046      335.407        6.019      861.032
12/20/2014  02:16:00       16.114       48.449      -10.054       20.425       20.832       13.127      417.196      433.968      172.313        0.187        0.051       51.058       12.655        0.061      335.375        5.964      861.069
12/20/2014  02:17:00        7.805       25.283        0.831       15.784       18.478       11.008      249.148      341.443      121.173        0.071        0.036       26.460       12.730        0.231      335.397        6.002      861.165
12/20/2014  02:18:00      -57.126      -26.823        1.824       27.934       22.560       18.271      780.285      508.973      333.826        0.280        0.081       63.110       20.125        0.102      335.354        5.929      861.242
12/20/2014  02:19:00      -54.304        1.693      -10.332       21.640       22.464       11.820      468.285      504.636      139.724        0.209        0.056       54.330        9.138        0.028      335.454        6.099      861.260
12/20/2014  02:20:00      -18.484       60.236       -9.226       22.215       14.773       11.480      493.507      218.228      131.794        0.245        0.042       63.009        8.091        0.016      335.591        6.327      861.216
12/20/2014  02:21:00      -19.497       66.926      -15.981       23.394       18.477       11.261      547.263      341.385      126.806        0.306        0.051       69.708        4.543        0.004      335.631        6.393      861.206
12/20/2014  02:22:00      -53.478        6.299       -2.219       24.489       31.296       14.972      599.700      979.417      224.170        0.235        0.090       53.848       11.642        0.047      335.742        6.579      861.225
12/20/2014  02:23:00     -123.637      -33.396      -11.439       25.645       22.736       13.794      657.655      516.919      190.266        0.895        0.068      128.068        9.592        0.006      335.492        6.161      861.222
12/20/2014  02:24:00     -114.885       -9.056       -6.602       42.287       34.889       24.171     1788.188     1217.240      584.260        0.846        0.179      115.242       22.955        0.040      335.565        6.284      861.202
12/20/2014  02:25:00     -145.494      -26.565       -6.563       56.659       29.408       28.450     3210.227      864.824      809.381        1.340        0.244      147.899       30.586        0.043      335.510        6.192      861.185
12/20/2014  02:26:00     -133.759      -11.594       -4.032       52.544       45.514       35.551     2760.918     2071.522     1263.857        1.207        0.305      134.260       21.016        0.025      335.569        6.289      861.180
12/20/2014  02:27:00     -182.797        8.743      -21.999       54.520       36.320       35.191     2972.388     1319.166     1238.416        1.975        0.276      183.006       32.694        0.032      335.400        6.007      861.191
12/20/2014  02:28:00     -118.807       30.127      -14.073       49.006       47.215       27.960     2401.553     2229.210      781.780        1.032        0.271      122.567       23.163        0.036      335.515        6.200      861.170
12/20/2014  02:29:00      -78.957       98.120      -14.753       41.345       44.429       28.434     1709.408     1973.927      808.477        1.028        0.225      125.944       23.827        0.036      335.535        6.235      861.107
12/20/2014  02:30:00      -40.019      112.945      -11.914       42.527       34.142       21.437     1808.569     1165.699      459.537        0.897        0.172      119.826       13.380        0.012      335.681        6.477      861.050
12/20/2014  02:31:00      -28.449      119.479      -15.515       34.121       35.610       16.791     1164.239     1268.083      281.940        0.902        0.136      122.819       11.460        0.009      335.699        6.507      861.040
12/20/2014  02:32:00      -50.110      103.142       -0.939       44.134       59.978       29.574     1947.845     3597.382      874.642        0.978        0.321      114.670       26.920        0.055      335.744        6.582      861.057
12/20/2014  02:33:00      -73.345      132.530      -27.707       38.961       52.720       30.392     1517.974     2779.349      923.692        1.447        0.261      151.471       31.636        0.044      335.758        6.606      861.109
12/20/2014  02:34:00      -91.081      148.136      -21.360       37.455       42.557       28.904     1402.873     1811.067      835.430        1.737        0.202      173.896       24.774        0.020      335.922        6.877      861.196
12/20/2014  02:35:00      -80.229       74.878      -12.854       31.932       42.554       23.010     1019.627     1810.873      529.447        0.778        0.168      109.742       23.090        0.044      336.140        7.242      861.285
12/20/2014  02:36:00      -74.374       23.208      -11.120       46.500       31.722       25.706     2162.251     1006.301      660.808        0.501        0.191       77.910       27.166        0.122      336.115        7.200      861.338
12/20/2014  02:37:00      -65.334       42.580       -5.721       41.754       29.357       29.162     1743.357      861.824      850.428        0.478        0.173       77.985       21.202        0.074      336.101        7.177      861.380
12/20/2014  02:38:00       -7.109       93.021        0.034       29.285       52.332       24.110      857.640     2738.671      581.293        0.644        0.209       93.292       21.975        0.055      336.005        7.016      861.389
12/20/2014  02:39:00        7.986       90.414        2.103       42.657       48.399       34.710     1819.637     2342.432     1204.790        0.680        0.268       90.766       32.772        0.130      336.073        7.131      861.371
12/20/2014  02:40:00       72.737       74.003       63.570       64.902       50.319       56.883     4212.256     2531.977     3235.639        1.239        0.499      103.765       35.362        0.116      335.843        6.746      861.349
12/20/2014  02:41:00      156.280       98.520       15.056       71.725       50.476       46.866     5144.499     2547.855     2196.410        2.212        0.494      184.742       22.366        0.015      335.735        6.565      861.358
12/20/2014  02:42:00      122.277      101.305       38.310       54.656       45.194       62.800     2987.305     2042.486     3943.806        1.783        0.449      158.790       27.990        0.031      335.767        6.620      861.381
12/20/2014  02:43:00       93.523       51.442       17.223       40.163       37.977       29.554     1613.107     1442.256      873.409        0.781        0.196      106.738       19.761        0.034      335.828        6.721      861.397
12/20/2014  02:44:00       89.594       63.294        9.839       49.971       36.396       26.891     2497.127     1324.663      723.131        0.834        0.227      109.696       13.667        0.016      335.838        6.738      861.423
12/20/2014  02:45:00      111.913       62.922       19.302       47.646       38.023       27.304     2270.182     1445.767      745.508        1.066        0.223      128.389       24.455        0.036      335.922        6.878      861.446
12/20/2014  02:46:00       59.059       27.856       24.574       50.956       34.872       27.176     2596.563     1216.086      738.539        0.471        0.228       65.299       26.625        0.166      335.884        6.816      861.492
12/20/2014  02:47:00       33.932       14.190       31.134       31.030       52.582       31.507      962.852     2764.885      992.688        0.352        0.236       36.780       35.730        0.944      335.896        6.834      861.524
12/20/2014  02:48:00       69.164     -114.958      -17.743       32.126       35.414       29.413     1032.102     1254.138      865.103        1.073        0.158      134.161       20.741        0.024      335.941        6.910      861.542
12/20/2014  02:49:00       14.415      -37.984        2.924       30.919       53.589       29.499      955.973     2871.805      870.209        0.318        0.235       40.627       28.512        0.493      335.939        6.905      861.542
12/20/2014  02:50:00       61.434       41.786       45.114       47.988       40.910       31.680     2302.854     1673.626     1003.648        0.627        0.249       74.298       32.578        0.192      335.921        6.876      861.525
12/20/2014  02:51:00      119.346       74.022        9.874       42.295       33.147       32.273     1788.879     1098.693     1041.557        1.187        0.196      140.438       19.200        0.019      335.925        6.884      861.486
12/20/2014  02:52:00      115.702       79.373        9.293       35.737       38.365       31.638     1277.155     1471.846     1000.969        1.176        0.187      140.310       15.969        0.013      335.946        6.918      861.488
12/20/2014  02:53:00       65.133       56.509       12.041       53.491       34.237       28.119     2861.295     1172.140      790.654        0.620        0.241       86.230       18.412        0.046      335.963        6.946      861.563
12/20/2014  02:54:00      -28.376       48.124      -14.793       38.613       28.024       14.747     1490.974      785.342      217.467        0.292        0.125       55.866       11.498        0.042      336.047        7.087      861.643
12/20/2014  02:55:00      -80.349        7.071       -4.030       49.289       44.226       21.190     2429.373     1955.933      449.008        0.568        0.242       80.660       18.678        0.054      335.999        7.008      861.671
12/20/2014  02:56:00     -109.728       -0.793      -14.295       31.734       28.849       20.252     1007.021      832.289      410.155        0.725        0.112      109.731       18.108        0.027      336.208        7.354      861.655
12/20/2014  02:57:00      -85.918        5.346       -6.063       40.120       30.505       25.063     1609.641      930.560      628.176        0.531        0.158       86.084       25.872        0.090      336.098        7.172      861.616
12/20/2014  02:58:00      -48.264       38.337      -10.527       22.517       26.665       20.426      506.995      711.044      417.220        0.277        0.082       61.637       12.913        0.044      336.293        7.497      861.593
12/20/2014  02:59:00      -24.033       98.557      -13.052       27.688       34.392       18.906      766.640     1182.816      357.448        0.638        0.115      101.445       12.907        0.016      336.244        7.416      861.645
12/20/2014  03:00:00       -7.521      130.604      -25.049       32.708       43.668       18.458     1069.821     1906.885      340.683        1.053        0.166      130.820       17.219        0.017      336.310        7.526      861.777
12/20/2014  03:01:00        4.008      119.136      -10.399       37.688       29.390       23.888     1420.422      863.769      570.635        0.859        0.143      119.204       20.135        0.029      336.274        7.465      861.837
12/20/2014  03:02:00       33.598       73.858       -1.249       30.549       45.567       26.906      933.213     2076.377      723.939        0.516        0.187       81.141       24.076        0.088      336.126        7.218      861.797
12/20/2014  03:03:00       40.321       68.074        2.764       29.878       50.742       29.196      892.714     2574.792      852.380        0.529        0.216       79.119       27.111        0.117      336.132        7.228      861.758
12/20/2014  03:04:00       56.675       26.424        6.263       21.120       17.647       17.485      446.039      311.432      305.722        0.251        0.053       62.532        7.052        0.013      336.105        7.184      861.669
12/20/2014  03:05:00       88.594       42.640       -1.123       23.683       25.946       20.780      560.870      673.217      431.821        0.567        0.083       98.321       17.271        0.031      336.077        7.134      861.533
12/20/2014  03:06:00       24.533      -43.257       -5.047       37.764       32.571       13.807     1426.099     1060.838      190.629        0.259        0.134       49.730        8.894        0.032      336.161        7.276      861.490
12/20/2014  03:07:00      -12.210      -45.303       -2.760       28.832       27.209       22.406      831.275      740.348      502.042        0.214        0.104       46.920       13.417        0.082      336.264        7.450      861.547
12/20/2014  03:08:00      -56.346      -57.705      -21.536       38.116       28.335       20.144     1452.834      802.892      405.767        0.481        0.133       80.652       16.540        0.042      336.271        7.460      861.589
12/20/2014  03:09:00        9.581      -28.366        7.374       23.678       25.113       20.060      560.652      630.670      402.406        0.127        0.080       29.940       13.971        0.218      336.227        7.386      861.564
12/20/2014  03:10:00       14.492       22.447       30.033       23.428       24.441       17.875      548.876      597.385      319.499        0.154        0.073       26.718       15.807        0.350      336.188        7.321      861.511
12/20/2014  03:11:00     -124.338      -34.639       -1.283       38.884       35.549       22.281     1511.935     1263.712      496.457        0.997        0.164      129.073       15.076        0.014      336.217        7.370      861.495
12/20/2014  03:12:00      -63.741      -28.851        7.439       50.580       41.736       20.484     2558.346     1741.924      419.584        0.483        0.236       69.966       19.246        0.076      336.216        7.369      861.506
12/20/2014  03:13:00      -29.457       50.890       -0.027       29.094       34.133       19.918      846.474     1165.089      396.732        0.293        0.120       58.800       14.975        0.065      336.293        7.498      861.477
12/20/2014  03:14:00     -123.877       -4.549      -24.477       39.750       35.643       20.564     1580.024     1270.407      422.895        0.962        0.164      123.960       19.454        0.025      336.341        7.579      861.464
12/20/2014  03:15:00      -96.771      -49.352      -11.741       64.764       24.139       23.374     4194.337      582.704      546.337        0.863        0.266      108.629       29.304        0.073      336.210        7.359      861.538
12/20/2014  03:16:00      -37.416     -109.285        4.693       53.771       63.223       28.112     2891.306     3997.169      790.307        1.052        0.384      115.513       26.057        0.051      336.288        7.488      861.613
12/20/2014  03:17:00      -29.625      -83.114       -4.700       42.416       58.767       28.754     1799.087     3453.579      826.767        0.694        0.304       88.236       21.443        0.059      336.348        7.590      861.578
12/20/2014  03:18:00      -12.821       60.234       91.220       41.773       47.048       56.032     1744.984     2213.468     3139.571        0.960        0.355       61.584       41.543        0.455      336.294        7.498      861.481
12/20/2014  03:19:00       55.939       36.816       54.275       58.056       65.387       42.341     3370.463     4275.472     1792.793        0.843        0.472       66.966       48.144        0.517      336.296        7.504      861.484
12/20/2014  03:20:00       46.087       12.969       16.570       33.074       32.576       27.454     1093.882     1061.209      753.736        0.274        0.145       47.877       18.700        0.153      336.268        7.454      861.575
12/20/2014  03:21:00       14.116      -21.643        1.382       26.944       35.015       14.741      725.961     1226.035      217.299        0.142        0.108       25.840       10.289        0.159      336.299        7.507      861.668
12/20/2014  03:22:00       22.385      -89.535       -5.048       45.212       32.589       25.819     2044.089     1062.065      666.631        0.616        0.189       92.291       25.264        0.075      336.318        7.541      861.727
12/20/2014  03:23:00       32.273       69.641       86.973       63.239       47.800       41.374     3999.154     2284.848     1711.813        1.072        0.400       76.756       37.146        0.234      336.294        7.498      861.653
12/20/2014  03:24:00       97.866       85.650       51.809       52.603       50.875       40.386     2767.029     2588.292     1631.045        1.329        0.349      130.052       40.188        0.095      336.237        7.404      861.514
12/20/2014  03:25:00        7.562       19.346       32.635       32.392       53.757       36.795     1049.264     2889.836     1353.895        0.339        0.265       20.771       39.674        3.648      336.146        7.251      861.500
12/20/2014  03:26:00      -46.461        9.539        6.142       36.787       41.610       16.284     1353.260     1731.398      265.169        0.282        0.167       47.430       14.442        0.093      336.332        7.562      861.596
12/20/2014  03:27:00       37.282       61.086        6.900       40.115       35.183       26.453     1609.232     1237.812      699.767        0.436        0.177       71.564       19.303        0.073      336.243        7.413      861.611
12/20/2014  03:28:00       53.257       44.306       -3.840       39.718       34.774       24.795     1577.502     1209.245      614.790        0.411        0.170       69.277       22.912        0.109      336.194        7.330      861.533
12/20/2014  03:29:00       -2.518       60.315       -4.022       39.738       56.231       22.317     1579.142     3161.961      498.039        0.445        0.262       60.367       17.962        0.089      336.330        7.560      861.458
12/20/2014  03:30:00      -22.776       27.941       -5.507       63.849      116.387       37.376     4076.742    13545.896     1396.930        1.017        0.951       36.047       29.542        0.672      336.516        7.872      861.468
12/20/2014  03:31:00     -139.423     -195.266      -22.265       94.382      118.342       55.614     8908.048    14004.908     3092.930        4.203        1.300      239.932       35.155        0.021      336.192        7.326      861.519
12/20/2014  03:32:00      -29.930        6.915        5.519       43.557       38.558       31.113     1897.236     1486.692      967.993        0.266        0.218       30.718       14.642        0.227      336.214        7.365      861.486
12/20/2014  03:33:00       39.748        7.984       12.904       27.963       43.471       35.287      781.916     1889.700     1245.180        0.286        0.196       40.541       34.227        0.713      336.180        7.307      861.447
12/20/2014  03:34:00       56.077       43.995       36.536       33.010       40.253       35.196     1089.650     1620.331     1238.770        0.518        0.197       71.275       30.281        0.180      336.179        7.308      861.379
12/20/2014  03:35:00      -23.708       13.947       19.919       72.922       63.394       38.105     5317.566     4018.806     1452.017        0.597        0.539       27.506       30.036        1.192      336.430        7.727      861.309
12/20/2014  03:36:00        2.364      -66.523       -6.384       42.611       51.802       40.155     1815.706     2683.410     1612.387        0.529        0.306       66.565       30.427        0.209      336.583        7.981      861.297
12/20/2014  03:37:00        9.047       18.294       41.297       24.090       25.134       15.383      580.318      631.725      236.631        0.179        0.072       20.409        6.126        0.090      336.573        7.967      861.302
12/20/2014  03:38:00       18.063       39.473       -3.256       32.738       22.955       25.973     1071.766      526.951      674.583        0.208        0.114       43.410       18.205        0.176      336.448        7.758      861.313
12/20/2014  03:39:00       26.226       48.544       -1.911       35.153       47.465       21.082     1235.763     2252.912      444.452        0.349        0.197       55.175       27.111        0.241      336.221        7.378      861.310
12/20/2014  03:40:00       55.085      142.536      -24.169       25.509       36.558       20.031      650.726     1336.508      401.252        1.316        0.119      152.810       18.231        0.014      336.240        7.409      861.321
12/20/2014  03:41:00       34.082       39.195       -9.467       32.092       45.941       18.071     1029.919     2110.596      326.560        0.313        0.173       51.941       23.171        0.199      336.250        7.425      861.362
12/20/2014  03:42:00       99.067       78.908       14.298       56.997       56.750       17.138     3248.631     3220.566      293.719        1.150        0.338      126.652        8.833        0.005      336.257        7.438      861.407
12/20/2014  03:43:00       97.780      190.877      -35.143       52.896       73.230       33.792     2798.030     5362.691     1141.908        2.826        0.465      214.464       36.142        0.028      336.655        8.100      861.376
12/20/2014  03:44:00      -23.330      212.945      -28.169       81.441       73.299       39.540     6632.700     5372.801     1563.379        3.012        0.678      214.219       31.575        0.022      337.207        9.022      861.329
12/20/2014  03:45:00       29.494      108.212        0.383       49.269       73.915       38.456     2427.417     5463.442     1478.860        1.097        0.468      112.159       27.971        0.062      337.054        8.768      861.325
12/20/2014  03:46:00       48.922       65.872       24.416       40.250       48.173       37.063     1620.087     2320.634     1373.675        0.632        0.266       82.051       28.545        0.121      336.702        8.181      861.320
12/20/2014  03:47:00       31.876       65.718       46.167       47.054       22.423       39.260     2214.063      502.783     1541.378        0.586        0.213       73.040       36.611        0.251      336.637        8.074      861.307
12/20/2014  03:48:00        6.149      -28.226       -3.976       43.657       93.894       24.710     1905.905     8816.130      610.595        0.609        0.567       28.888       16.458        0.325      336.828        8.393      861.275
12/20/2014  03:49:00       58.283     -119.264      -30.747       63.927       82.795       49.445     4086.603     6855.010     2444.823        1.597        0.669      132.744       52.909        0.159      336.629        8.059      861.275
12/20/2014  03:50:00       33.777      -46.815       42.655       66.948      104.720       74.142     4481.977    10966.362     5496.968        1.304        1.047       57.728       75.947        1.731      336.591        7.996      861.253
12/20/2014  03:51:00      119.697      -69.021       11.990       74.965      114.301       74.697     5619.792    13064.727     5579.595        2.174        1.213      138.171       89.537        0.420      336.672        8.130      861.240
12/20/2014  03:52:00        2.188       37.118       84.193       61.238      117.405       60.473     3750.123    13784.051     3656.943        1.483        1.060       37.182       74.735        4.040      336.752        8.264      861.164
12/20/2014  03:53:00      -13.715      -51.045       -8.996       42.757       50.936       33.801     1828.145     2594.448     1142.496        0.422        0.278       52.855       26.835        0.258      336.980        8.646      861.174
12/20/2014  03:54:00      -50.079      -49.913        0.670       29.533       44.113       20.923      872.188     1945.915      437.786        0.413        0.163       70.705        8.309        0.014      337.394        9.337      861.189
12/20/2014  03:55:00      -52.923      -17.498       -5.695       22.827       15.461       15.341      521.091      239.053      235.351        0.207        0.050       55.741       13.143        0.056      337.365        9.289      861.242
12/20/2014  03:56:00      -84.043        0.356        0.598       57.593       42.364       24.025     3316.975     1794.735      577.224        0.638        0.284       84.043       25.901        0.095      337.208        9.027      861.301
12/20/2014  03:57:00     -187.419      -28.108      -15.621       91.242       58.501       28.840     8325.057     3422.370      831.741        2.437        0.629      189.515       35.978        0.036      336.984        8.650      861.338
12/20/2014  03:58:00     -175.430      -45.245       -3.836       86.232       69.376       39.234     7436.013     4813.049     1539.295        2.331        0.689      181.171       38.929        0.046      336.930        8.560      861.376
12/20/2014  03:59:00     -184.434      -55.398        0.182       86.980       92.387       41.970     7565.497     8535.390     1761.518        2.747        0.893      192.574       40.511        0.044      336.740        8.244      861.390
12/20/2014  04:00:00      -89.568      -47.157        5.658       72.579       41.900       31.341     5267.772     1755.636      982.229        0.914        0.400      101.224       40.104        0.157      336.855        8.437      861.362
12/20/2014  04:01:00        2.294       82.783      103.841       44.344       96.467       81.601     1966.373     9305.927     6658.744        1.778        0.897       82.815       81.406        0.966      336.787        8.322      861.249
12/20/2014  04:02:00       -1.634       98.387      143.096       35.954       74.726       38.283     1292.707     5583.992     1465.581        1.925        0.417       98.400       40.368        0.168      336.611        8.028      861.107
12/20/2014  04:03:00       39.642      109.241      132.058       71.477       97.725       66.885     5109.012     9550.096     4473.578        2.503        0.957      116.212       63.814        0.302      336.341        7.575      861.049
12/20/2014  04:04:00       81.462       16.750       45.544       69.520       62.265       44.226     4833.075     3876.908     1955.961        0.983        0.533       83.166       52.304        0.396      336.638        8.074      861.067
12/20/2014  04:05:00      -29.900      -26.477        4.115       68.252       37.636       24.292     4658.280     1416.497      590.108        0.414        0.333       39.938       24.464        0.375      336.756        8.271      861.092
12/20/2014  04:06:00      -97.608       -5.471       -6.190       55.216       60.520       23.783     3048.766     3662.661      565.641        0.843        0.364       97.761       23.526        0.058      336.722        8.215      861.097
12/20/2014  04:07:00      -95.198       44.243      -18.042       40.818       32.727       24.375     1666.092     1071.053      594.131        0.734        0.167      104.977       17.505        0.028      336.795        8.338      861.104
12/20/2014  04:08:00      -73.666       15.656        0.057       32.537       30.330       21.725     1058.625      919.924      471.984        0.406        0.123       75.311       17.565        0.054      337.038        8.743      861.143
12/20/2014  04:09:00     -111.351       20.788       -9.289       88.320       38.986       30.204     7800.381     1519.898      912.291        1.157        0.512      113.274       39.358        0.121      337.233        9.068      861.182
12/20/2014  04:10:00      -88.251      -39.593       -2.937       58.191       36.487       24.209     3386.220     1331.269      586.061        0.733        0.265       96.726       29.860        0.095      337.111        8.864      861.236
12/20/2014  04:11:00     -161.290      -90.401        2.052       83.485       66.348       44.995     6969.789     4402.006     2024.554        2.379        0.670      184.897       41.554        0.051      336.931        8.559      861.301
12/20/2014  04:12:00     -251.360     -204.876      -10.184      132.007      102.383       66.036    17425.871    10482.199     4360.754        6.876        1.613      324.278       70.356        0.047      336.766        8.284      861.333
12/20/2014  04:13:00     -271.932     -192.234       -4.961      125.810      105.171       59.979    15828.102    11061.010     3597.481        7.070        1.524      333.018       68.210        0.042      336.666        8.119      861.322
12/20/2014  04:14:00     -160.039     -137.211      -13.426      105.997      107.915       51.097    11235.277    11645.579     2610.906        3.505        1.275      210.807       46.800        0.049      337.064        8.783      861.283
12/20/2014  04:15:00        4.148      -40.581      -15.975       55.939       46.373       33.998     3129.218     2150.424     1155.862        0.418        0.322       40.792       18.855        0.214      337.182        8.984      861.207
12/20/2014  04:16:00     -100.806      -43.939       -2.856       71.806       54.882       27.229     5156.061     3011.998      741.405        1.050        0.445      109.966       23.553        0.046      337.224        9.054      861.220
12/20/2014  04:17:00     -165.714     -132.010        0.748       89.354       79.591       40.880     7984.204     6334.768     1671.201        3.044        0.800      211.868       44.517        0.044      337.082        8.812      861.265
12/20/2014  04:18:00     -116.229      -11.388       -7.413       64.585       88.996       26.432     4171.263     7920.337      698.639        1.324        0.640      116.786       26.496        0.051      336.869        8.459      861.303
12/20/2014  04:19:00      -46.071      -69.700       -8.060       44.267       68.537       19.715     1959.612     4697.368      388.687        0.704        0.352       83.550       19.007        0.052      336.873        8.467      861.298
12/20/2014  04:20:00      -31.404      -12.870       36.980       42.134       77.255       54.171     1775.275     5968.323     2934.464        0.660        0.534       33.938       48.147        2.013      336.742        8.248      861.251
12/20/2014  04:21:00       70.204       49.410       36.315       74.635       81.090       73.583     5570.387     6575.669     5414.492        1.312        0.878       85.849       64.081        0.557      336.634        8.068      861.144
12/20/2014  04:22:00     -113.595       -9.261      -18.366       47.510       42.156       27.464     2257.245     1777.156      754.298        0.906        0.239      113.972       19.142        0.028      336.965        8.621      861.185
12/20/2014  04:23:00     -187.891      -53.335      -10.135       46.232       39.485       26.305     2137.388     1559.053      691.933        2.132        0.219      195.314       19.546        0.010      336.806        8.353      861.206
12/20/2014  04:24:00     -290.790      -58.762      -11.815      135.952      101.596       54.378    18483.076    10321.662     2956.978        5.995        1.588      296.667       51.753        0.030      336.918        8.538      861.219
12/20/2014  04:25:00     -259.305     -119.815       -5.435      177.861      116.397       51.323    31634.390    13548.175     2634.045        6.471        2.391      285.648       45.550        0.025      336.815        8.367      861.251
12/20/2014  04:26:00      -66.167      -72.340       13.709       99.454       96.155       44.155     9891.159     9245.813     1949.700        1.544        1.054       98.036       37.320        0.145      336.874        8.467      861.240
12/20/2014  04:27:00     -197.722      -54.080        7.534      141.226      109.817       55.947    19944.732    12059.726     3130.056        3.860        1.757      204.984       54.609        0.071      336.969        8.626      861.208
12/20/2014  04:28:00     -308.441      -12.737      -18.327      117.912      101.822       48.183    13903.306    10367.684     2321.639        6.111        1.330      308.704       53.744        0.030      336.856        8.434      861.194
12/20/2014  04:29:00     -256.788      -25.897       -8.652      163.457       90.091       60.431    26718.214     8116.349     3651.922        5.258        1.924      258.090       71.116        0.076      336.819        8.374      861.174
12/20/2014  04:30:00     -462.193     -190.305      -32.395      218.409      165.728      100.407    47702.355    27465.771    10081.533       16.805        4.262      499.838      128.618        0.066      336.844        8.413      861.148
12/20/2014  04:31:00     -425.001     -196.620      -31.458      197.350      124.798       73.125    38947.071    15574.508     5347.256       14.006        2.993      468.279       87.091        0.035      336.851        8.427      861.081
12/20/2014  04:32:00     -239.427      -65.315        3.426      160.798      132.384       80.011    25856.126    17525.401     6401.749        5.568        2.489      248.176       86.140        0.120      336.879        8.473      861.096
12/20/2014  04:33:00     -342.223     -177.604       -8.408      221.472      136.807       82.530    49049.787    18716.231     6811.250       11.164        3.729      385.565       85.267        0.049      336.927        8.554      861.076
12/20/2014  04:34:00     -224.122     -144.701        1.992      134.535      124.385       66.690    18099.609    15471.746     4447.522        5.459        1.901      266.775       56.285        0.045      336.927        8.555      861.065
12/20/2014  04:35:00     -264.429     -122.886       -5.286      186.147      149.766       76.357    34650.651    22429.731     5830.420        7.397        3.146      291.588       85.937        0.087      336.998        8.673      861.058
12/20/2014  04:36:00     -239.850      -69.242        6.735      221.605      145.872       83.740    49108.646    21278.635     7012.449        6.987        3.870      249.644       95.306        0.146      337.064        8.783      861.049
12/20/2014  04:37:00     -393.550     -129.837      -14.796      177.698      155.010       84.041    31576.687    24028.049     7062.881       11.730        3.133      414.415       81.171        0.038      337.034        8.732      861.035
12/20/2014  04:38:00     -265.917     -100.275      -14.746      143.013      111.110       70.358    20452.632    12345.379     4950.244        5.936        1.887      284.195       77.775        0.075      336.999        8.674      861.076
12/20/2014  04:39:00     -336.750     -146.821        0.542      130.600       81.681       62.997    17056.300     6671.814     3968.593        8.132        1.385      367.365       69.548        0.036      336.954        8.597      861.090
12/20/2014  04:40:00     -402.104      -92.703       -3.846      199.541      163.406       85.566    39816.790    26701.369     7321.517       12.205        3.692      412.652       94.488        0.052      336.968        8.621      861.103
12/20/2014  04:41:00     -434.842     -129.357      -30.103      188.243      151.118       63.931    35435.300    22836.642     4087.165       13.453        3.118      453.675       73.115        0.026      337.000        8.674      861.102
12/20/2014  04:42:00     -388.621     -213.647       -7.418      190.264      189.441       88.176    36200.409    35888.009     7774.962       13.828        3.993      443.476       99.378        0.050      337.014        8.699      861.075
12/20/2014  04:43:00     -399.675     -135.979      -11.314      184.366      162.319       78.148    33990.707    26347.522     6107.045       12.239        3.322      422.173       94.188        0.050      337.036        8.736      860.971
12/20/2014  04:44:00     -245.662     -166.206       -0.759      157.719      140.297       67.820    24875.270    19683.321     4599.546        6.856        2.458      296.604       84.279        0.081      337.029        8.723      860.995
12/20/2014  04:45:00     -164.890      -83.224        3.957      107.982      115.975       58.034    11660.158    13450.215     3367.900        3.130        1.424      184.703       60.470        0.107      337.017        8.703      860.993
12/20/2014  04:46:00     -291.628      -82.554      -10.147      169.052       98.018       75.933    28578.489     9607.483     5765.835        6.795        2.198      303.087       94.489        0.097      337.032        8.730      861.029
12/20/2014  04:47:00     -291.409      -66.487        1.432      165.486      122.198       68.249    27385.749    14932.334     4657.896        6.815        2.349      298.897       80.855        0.073      336.993        8.663      861.029
12/20/2014  04:48:00     -155.811      -28.917       26.608      152.998      100.117       61.219    23408.348    10023.360     3747.775        3.149        1.859      158.471       73.555        0.215      336.996        8.670      861.055
12/20/2014  04:49:00     -179.558      -90.341       -5.304       78.395       87.997       36.042     6145.819     7743.545     1299.020        2.781        0.759      201.004       37.787        0.035      337.007        8.687      861.112
12/20/2014  04:50:00     -154.928     -131.867       -0.616      143.604       98.640       54.340    20622.198     9729.905     2952.783        3.734        1.665      203.449       74.547        0.134      336.949        8.590      861.149
12/20/2014  04:51:00     -189.203     -113.581       16.786      127.877      101.118       60.657    16352.592    10224.839     3679.317        3.961        1.513      220.677       63.063        0.082      336.946        8.586      861.146
12/20/2014  04:52:00     -128.422      -74.825        0.312       94.220       62.200       36.656     8877.338     3868.863     1343.674        1.809        0.704      148.630       41.958        0.080      336.933        8.566      861.169
12/20/2014  04:53:00     -200.517      -67.111        6.445      150.591       75.019       56.117    22677.742     5627.836     3149.108        3.810        1.573      211.449       64.459        0.093      336.911        8.528      861.177
12/20/2014  04:54:00     -186.201      -76.879       -0.011      120.923       84.602       47.338    14622.450     7157.538     2240.903        3.230        1.201      201.447       47.437        0.055      336.897        8.505      861.175
12/20/2014  04:55:00     -258.346      -63.443       -8.878       97.902       75.682       49.665     9584.818     5727.834     2466.651        4.431        0.889      266.022       50.268        0.036      336.896        8.501      861.149
12/20/2014  04:56:00     -345.131     -150.102      -32.674      162.766      128.012       68.593    26492.818    16387.052     4705.065        9.514        2.379      376.359       77.851        0.043      336.905        8.516      861.135
12/20/2014  04:57:00     -251.948     -254.830      -10.671      186.087      151.049       96.120    34628.287    22815.933     9238.987        9.759        3.334      358.352      106.215        0.088      336.924        8.549      861.082
12/20/2014  04:58:00     -308.677     -232.593       -1.315      129.835      116.420       66.750    16857.159    13553.620     4455.552        9.212        1.743      386.498       61.988        0.026      336.903        8.513      861.114
12/20/2014  04:59:00     -259.626     -107.495       -6.873      130.478      128.634       62.148    17024.420    16546.691     3862.381        5.821        1.872      281.000       67.550        0.058      336.894        8.499      861.182
12/20/2014  05:00:00     -248.704      -91.765        5.564      122.378      121.061       59.170    14976.295    14655.669     3501.078        5.171        1.657      265.093       52.232        0.039      336.891        8.494      861.195
12/20/2014  05:01:00     -260.295      -38.008        0.235      165.997      100.629       66.385    27555.115    10126.175     4406.947        5.563        2.104      263.055       81.964        0.097      336.927        8.554      861.163
12/20/2014  05:02:00     -186.383     -120.000       28.268      171.712      109.144       73.274    29484.957    11912.346     5369.119        4.834        2.338      221.672       88.757        0.160      336.876        8.470      861.123
12/20/2014  05:03:00     -144.476     -165.342       -7.601      105.043      150.381       52.516    11034.013    22614.373     2757.964        4.233        1.820      219.570       50.257        0.052      336.903        8.512      861.109
12/20/2014  05:04:00     -174.453     -225.129        7.468      137.422      111.639       91.078    18884.908    12463.193     8295.194        6.040        1.982      284.811       86.985        0.093      336.887        8.486      861.092
12/20/2014  05:05:00     -185.137      -82.213        9.051      177.737      118.601       73.017    31590.467    14066.233     5331.541        4.604        2.549      202.570       89.133        0.194      336.902        8.512      861.104
12/20/2014  05:06:00     -249.025     -193.336        2.411      188.261      134.304       78.345    35442.124    18037.526     6137.938        7.950        2.981      315.265       88.103        0.078      336.855        8.433      861.179
12/20/2014  05:07:00     -589.106     -357.066      -37.237      250.641      173.916      121.139    62820.720    30246.639    14674.687       29.181        5.387      688.870      133.822        0.038      336.877        8.469      861.196
12/20/2014  05:08:00     -364.771     -272.038       -2.468      219.675      210.305       95.214    48257.184    44228.241     9065.761       15.429        5.078      455.041      117.796        0.067      336.869        8.456      861.214
12/20/2014  05:09:00     -363.012     -182.254        1.188      229.407      174.653      100.297    52627.668    30503.779    10059.555       12.907        4.660      406.195      101.034        0.062      336.868        8.455      861.218
12/20/2014  05:10:00     -387.299     -217.116        1.029      211.120      232.950      116.157    44571.719    54265.489    13492.554       15.471        5.616      444.004      113.948        0.066      336.852        8.429      861.262
12/20/2014  05:11:00     -316.389     -316.937       -8.219      189.147      236.470       86.591    35776.441    55918.239     7498.086       14.989        4.960      447.829       95.851        0.046      336.855        8.434      861.323
12/20/2014  05:12:00     -329.618     -231.677      -18.775      217.451      118.780       66.601    47284.766    14108.630     4435.672       11.424        3.291      402.893       83.161        0.043      336.821        8.377      861.310
12/20/2014  05:13:00     -335.111     -145.517      -10.738      213.392      185.192      102.509    45536.097    34295.917    10508.079       11.195        4.517      365.342      105.694        0.084      336.814        8.365      861.288
12/20/2014  05:14:00     -371.754     -259.159      -16.836      281.935      190.641       96.859    79487.361    36343.977     9381.683       16.541        6.261      453.172      118.643        0.069      336.814        8.364      861.258
12/20/2014  05:15:00     -376.747     -206.350        1.999      225.344      227.113      101.085    50779.838    51580.503    10218.153       14.853        5.629      429.556      106.798        0.062      336.808        8.354      861.223
12/20/2014  05:16:00     -354.804     -128.296      -15.597      168.841      147.451       88.472    28507.390    21741.889     7827.271       10.032        2.904      377.288      104.836        0.077      336.783        8.313      861.199
12/20/2014  05:17:00     -215.146     -123.552       13.635      163.268      142.541       74.313    26656.464    20317.946     5522.427        5.711        2.625      248.099       68.782        0.077      336.769        8.292      861.182
12/20/2014  05:18:00     -365.483     -281.129      -21.607      160.386      120.476       76.908    25723.541    14514.426     5914.859       12.961        2.308      461.098       60.674        0.017      336.748        8.254      861.180
12/20/2014  05:19:00     -349.935     -315.929      -23.636      185.682      170.048       97.620    34477.852    28916.422     9529.626       14.786        3.646      471.451      100.469        0.045      336.736        8.234      861.180
12/20/2014  05:20:00     -219.806     -157.428       -5.892      125.286      153.145       76.380    15696.680    23453.316     5833.963        5.905        2.249      270.367       76.062        0.079      336.726        8.220      861.202
12/20/2014  05:21:00     -289.733     -136.153      -16.251      155.147      161.250       84.903    24070.688    26001.602     7208.550        8.000        2.864      320.130       83.453        0.068      336.751        8.261      861.185
12/20/2014  05:22:00     -287.648     -171.278       -2.804      169.189      144.367       79.868    28625.035    20841.873     6378.926        8.395        2.792      334.779       79.142        0.056      336.740        8.242      861.208
12/20/2014  05:23:00     -178.363     -113.767       -3.925      109.244       88.813       51.416    11934.230     7887.824     2643.633        3.361        1.123      211.557       52.612        0.062      336.758        8.272      861.219
12/20/2014  05:24:00     -528.851     -252.283      -27.398      164.167      150.484       88.131    26950.805    22645.380     7767.150       20.071        2.868      585.944       81.827        0.020      336.750        8.259      861.208
12/20/2014  05:25:00     -414.096     -209.608      -11.495      161.569      163.084       73.979    26104.682    26596.249     5472.872       13.685        2.909      464.124       88.015        0.036      336.751        8.260      861.225
12/20/2014  05:26:00     -203.946     -183.436       -4.079      145.365       94.145       62.294    21130.977     8863.246     3880.570        5.456        1.694      274.304       69.237        0.064      336.750        8.258      861.225
12/20/2014  05:27:00     -233.337      -62.771        4.555      189.984      153.866       92.866    36093.829    23674.611     8624.132        6.339        3.420      241.632       91.409        0.143      336.754        8.265      861.224
12/20/2014  05:28:00     -237.845      -71.094       11.068      158.126       92.889       80.840    25003.764     8628.351     6535.035        5.095        2.008      248.243       93.653        0.142      336.725        8.218      861.274
12/20/2014  05:29:00     -252.697     -155.654      -17.531      180.835      134.940       78.440    32701.272    18208.847     6152.779        7.272        2.853      296.789       96.758        0.106      336.735        8.233      861.233
12/20/2014  05:30:00     -320.993     -151.651       -8.591      165.566      126.828       67.295    27412.040    16085.223     4528.660        8.706        2.401      355.013       78.148        0.048      336.737        8.237      861.202
12/20/2014  05:31:00     -396.618     -231.216       -9.071      172.628      177.675       87.210    29800.464    31568.264     7605.602       13.990        3.449      459.094       84.885        0.034      336.756        8.268      861.158
12/20/2014  05:32:00     -332.509      -92.221      -16.169      208.546      160.377       90.256    43491.264    25720.793     8146.115        9.833        3.868      345.060      110.728        0.103      336.810        8.358      861.161
12/20/2014  05:33:00     -218.216      -74.593       -6.154      133.066      119.836       64.394    17706.470    14360.785     4146.530        4.471        1.811      230.613       57.196        0.062      336.799        8.341      861.161
12/20/2014  05:34:00     -324.850      -97.835        5.425      166.662      143.723       89.078    27776.155    20656.420     7934.872        8.574        2.818      339.262       97.698        0.083      336.796        8.335      861.181
12/20/2014  05:35:00     -334.134      -39.835      -11.401      179.347      118.488       68.099    32165.287    14039.485     4637.517        8.209        2.542      336.500       82.410        0.060      336.787        8.321      861.198
12/20/2014  05:36:00     -425.275     -110.710      -11.313      176.359      113.051       60.717    31102.409    12780.503     3686.593       12.040        2.378      439.449       65.499        0.022      336.722        8.213      861.242
12/20/2014  05:37:00     -314.248     -110.615       -3.550      156.216      116.361       73.946    24403.295    13539.916     5468.049        7.720        2.171      333.148       74.149        0.050      336.784        8.316      861.272
12/20/2014  05:38:00     -316.043      -37.638      -21.611      202.358      141.580       75.641    40948.781    20045.023     5721.501        8.423        3.336      318.276       94.104        0.087      336.848        8.423      861.316
12/20/2014  05:39:00     -380.019      -37.936       -4.480      151.626      147.384       79.474    22990.490    21721.922     6316.117        9.844        2.551      381.908       78.390        0.042      336.872        8.462      861.302
12/20/2014  05:40:00     -386.744      -66.930      -13.673      191.463      121.033       75.022    36658.138    14648.945     5628.326       10.558        2.847      392.493       93.097        0.056      336.786        8.317      861.360
12/20/2014  05:41:00     -500.353     -187.113      -34.848      197.585      158.694      106.902    39040.015    25183.892    11427.963       18.110        3.783      534.195      110.439        0.043      336.733        8.230      861.365
12/20/2014  05:42:00     -376.477      -80.094       -1.468      242.211      131.486       78.689    58666.304    17288.652     6191.915       11.513        4.107      384.903      106.546        0.077      336.767        8.287      861.433
12/20/2014  05:43:00     -341.332     -264.437      -14.436      151.661      115.235       71.475    23000.973    13279.044     5108.638       11.401        2.069      431.781       67.365        0.024      336.743        8.245      861.456
12/20/2014  05:44:00     -160.553     -138.852       18.315      167.278      133.597       90.668    27981.852    17848.168     8220.695        4.971        2.703      212.267      104.405        0.242      336.725        8.219      861.475
12/20/2014  05:45:00     -334.045     -112.478      -29.278      142.469      132.817       65.819    20297.464    17640.239     4332.202        8.367        2.113      352.473       60.037        0.029      336.708        8.190      861.493
12/20/2014  05:46:00     -353.089      -32.594      -26.456      147.736      129.970       74.197    21826.038    16892.282     5505.213        8.532        2.211      354.590       68.799        0.038      336.769        8.289      861.470
12/20/2014  05:47:00     -311.495     -225.398       -2.578      145.830      126.602       67.907    21266.374    16028.120     4611.404        9.486        2.095      384.492       70.944        0.034      336.698        8.173      861.457
12/20/2014  05:48:00     -291.877     -162.894        1.410      158.791      168.635       73.604    25214.675    28437.824     5417.483        8.539        2.953      334.255       80.790        0.058      336.690        8.160      861.416
12/20/2014  05:49:00     -234.796      -70.021      -18.064      110.837      142.703       70.652    12284.803    20364.235     4991.700        4.899        1.882      245.015       67.997        0.077      336.705        8.184      861.403
12/20/2014  05:50:00     -241.315     -128.315       10.451      166.283      117.358       85.674    27650.078    13772.811     7339.973        6.177        2.438      273.308       93.718        0.118      336.699        8.175      861.377
12/20/2014  05:51:00     -456.981     -197.078      -21.987      299.792      168.934      105.568    89875.094    28538.745    11144.589       18.883        6.478      497.666      123.420        0.062      336.683        8.147      861.385
12/20/2014  05:52:00     -501.165     -320.735       -9.436      258.184      186.462      101.287    66658.761    34768.023    10259.139       23.288        5.584      595.010      134.420        0.051      336.692        8.162      861.421
12/20/2014  05:53:00     -374.139     -227.978      -22.240      212.139      183.543       94.527    45002.892    33687.979     8935.333       14.002        4.381      438.125      110.496        0.064      336.687        8.153      861.476
12/20/2014  05:54:00     -329.927     -174.467        3.275      184.881      140.932       75.615    34180.838    19861.909     5717.652        9.952        2.988      373.216       84.414        0.051      336.675        8.134      861.517
12/20/2014  05:55:00     -361.473     -267.637      -10.227      176.055      158.104       84.717    30995.219    24996.736     7176.900       13.277        3.158      449.769       85.841        0.036      336.659        8.106      861.592
12/20/2014  05:56:00     -210.265     -161.928        5.786      175.483      124.465       90.683    30794.333    15491.474     8223.464        6.248        2.725      265.390       97.904        0.136      336.643        8.081      861.623
12/20/2014  05:57:00     -288.002      -55.852        7.295      165.386      154.132       76.899    27352.510    23756.672     5913.485        7.156        2.851      293.367       77.327        0.069      336.655        8.101      861.629
12/20/2014  05:58:00     -413.541      -49.555       -4.123      199.816      188.075       88.272    39926.385    35372.075     7791.888       12.827        4.155      416.500       95.983        0.053      336.619        8.040      861.603
12/20/2014  05:59:00     -208.367      -98.208       25.250      163.304      157.222       86.886    26668.283    24718.911     7549.258        5.631        2.947      230.351       85.057        0.136      336.650        8.092      861.559
12/20/2014  06:00:00     -211.176     -142.122      -11.609      145.459      102.851       71.668    21158.314    10578.418     5136.288        5.089        1.844      254.547       69.016        0.074      336.591        7.994      861.521
12/20/2014  06:01:00     -391.540     -135.600      -13.876      267.445      234.087      124.400    71526.913    54796.759    15475.256       15.681        7.090      414.356      132.075        0.102      336.563        7.946      861.497
12/20/2014  06:02:00     -448.091     -243.191      -14.438      239.194      270.785      127.715    57213.600    73324.761    16311.128       20.346        7.342      509.831      137.552        0.073      336.558        7.939      861.500
12/20/2014  06:03:00     -476.115     -212.924      -18.673      285.506      185.770      109.019    81513.450    34510.371    11885.074       20.011        6.395      521.558      136.258        0.068      336.533        7.895      861.588
12/20/2014  06:04:00     -351.198     -195.477      -22.291      170.005      138.993       80.035    28901.733    19318.975     6405.545       10.833        2.731      401.934       72.551        0.033      336.531        7.892      861.644
12/20/2014  06:05:00     -244.598      -30.057        2.461      175.800      109.673       66.318    30905.548    12028.112     4398.122        5.403        2.367      246.438       82.087        0.111      336.523        7.879      861.672
12/20/2014  06:06:00     -362.115      -46.868        8.289      198.589      139.368       82.288    39437.659    19423.302     6771.287        9.950        3.282      365.135       94.402        0.067      336.515        7.866      861.668
12/20/2014  06:07:00     -351.369      -72.907        3.744      214.890      157.387       95.437    46177.502    24770.761     9108.146       10.441        4.003      358.853      113.417        0.100      336.494        7.831      861.633
12/20/2014  06:08:00     -492.914      -77.205      -22.462      216.838      175.548       98.392    47018.721    30817.261     9680.930       16.846        4.376      498.923      110.722        0.049      336.483        7.811      861.641
12/20/2014  06:09:00     -398.418     -137.471       -2.131      199.537      181.568       99.989    39814.868    32966.889     9997.805       13.019        4.139      421.468       97.731        0.054      336.498        7.836      861.686
12/20/2014  06:10:00     -380.847     -273.590        0.895      209.252      201.515      120.397    43786.592    40608.140    14495.388       15.937        4.945      468.931      139.035        0.088      336.483        7.812      861.700
12/20/2014  06:11:00     -408.530      -75.904      -24.915      175.868      138.042       77.000    30929.460    19055.647     5929.071       11.459        2.796      415.521       79.714        0.037      336.522        7.876      861.778
12/20/2014  06:12:00     -306.087      -27.592       -8.015      179.173      170.281       83.461    32102.854    28995.597     6965.749        8.128        3.403      307.328       82.913        0.073      336.523        7.878      861.828
12/20/2014  06:13:00     -362.201      -78.659       -1.359      191.640      170.379       77.857    36725.923    29029.168     6061.679       10.458        3.591      370.644       87.073        0.055      336.483        7.812      861.829
12/20/2014  06:14:00     -338.638     -214.519        3.675      261.340      199.842      116.055    68298.710    39936.714    13468.678       14.118        6.085      400.867      142.159        0.126      336.416        7.699      861.768
12/20/2014  06:15:00     -329.605     -103.937       -5.910      229.107      142.970       83.804    52490.001    20440.508     7023.161        9.970        3.998      345.605      115.105        0.111      336.410        7.687      861.731
12/20/2014  06:16:00     -321.229     -148.886      -11.379      133.292      123.897       72.933    17766.781    15350.433     5319.247        8.195        1.922      354.055       63.731        0.032      336.388        7.650      861.659
12/20/2014  06:17:00     -268.378     -165.004       -0.332      154.147      114.547       71.246    23761.345    13121.125     5076.027        7.060        2.098      315.045       79.029        0.063      336.374        7.630      861.593
12/20/2014  06:18:00     -215.633      -25.432       -1.748      150.108      109.944       64.771    22532.501    12087.776     4195.315        4.297        1.941      217.127       62.143        0.082      336.389        7.656      861.590
12/20/2014  06:19:00     -235.613      -82.412       -6.541      168.901      117.415       63.320    28527.459    13786.305     4009.400        5.433        2.316      249.610       81.732        0.107      336.383        7.646      861.626
12/20/2014  06:20:00     -313.841     -116.713       -9.824      158.008      118.136       67.928    24966.466    13956.060     4614.203        7.787        2.177      334.840       78.053        0.054      336.384        7.646      861.683
12/20/2014  06:21:00     -234.255     -148.933       -2.875      207.090      131.139      108.475    42886.321    17197.437    11766.865        7.444        3.593      277.591       95.979        0.120      336.377        7.635      861.671
12/20/2014  06:22:00     -233.805      -53.061       -1.463      173.178      106.222       73.165    29990.746    11283.099     5353.147        5.205        2.331      239.751       75.974        0.100      336.405        7.681      861.660
12/20/2014  06:23:00     -235.518     -196.305       -6.331      147.326      129.569       79.809    21704.907    16788.046     6369.479        6.944        2.243      306.601       74.022        0.058      336.368        7.618      861.583
12/20/2014  06:24:00     -185.093      -64.904        9.845      113.390       81.896       49.420    12857.396     6706.886     2442.325        3.028        1.100      196.142       49.780        0.064      336.381        7.641      861.556
12/20/2014  06:25:00     -149.536      -83.937       19.129      152.110      137.282       93.918    23137.329    18846.473     8820.506        4.028        2.540      171.483       99.253        0.335      336.394        7.663      861.559
12/20/2014  06:26:00     -239.053      -59.703        3.663      146.962      136.674       81.214    21597.688    18679.774     6595.709        5.379        2.344      246.396       84.504        0.118      336.438        7.736      861.574
12/20/2014  06:27:00     -254.798     -150.657       -3.088      215.030      133.303       74.004    46237.870    17769.781     5476.579        7.854        3.474      296.006       98.165        0.110      336.387        7.651      861.576
12/20/2014  06:28:00     -313.427     -145.563      -18.369      113.230      119.478       61.704    12821.031    14275.082     3807.332        7.533        1.545      345.579       54.070        0.024      336.379        7.636      861.547
12/20/2014  06:29:00     -233.682     -167.912       -7.010      203.378      133.638       89.671    41362.667    17859.038     8040.846        7.504        3.363      287.753      101.560        0.125      336.402        7.675      861.572
12/20/2014  06:30:00     -306.170     -141.797       -4.046      152.046      137.835       76.449    23117.928    18998.437     5844.511        8.090        2.398      337.412       78.306        0.054      336.426        7.715      861.656
12/20/2014  06:31:00     -403.028     -180.210      -13.418      166.028      167.782       83.149    27565.311    28150.892     6913.714       12.885        3.131      441.483       86.525        0.038      336.440        7.739      861.722
12/20/2014  06:32:00     -260.936      -64.471       -3.802      190.837      145.792       64.884    36418.711    21255.179     4209.905        6.706        3.094      268.782       86.891        0.105      336.473        7.796      861.753
12/20/2014  06:33:00     -311.374     -195.801      -18.570      231.449      161.195       98.593    53568.627    25983.848     9720.530       11.244        4.464      367.821      110.395        0.090      336.503        7.846      861.731
12/20/2014  06:34:00     -256.059      -72.979        5.206      165.859      117.491       86.680    27509.276    13804.139     7513.484        5.986        2.441      266.255       86.807        0.106      336.507        7.854      861.721
12/20/2014  06:35:00     -207.901     -121.039        9.293      144.849      108.189       70.351    20981.167    11704.852     4949.245        4.779        1.882      240.568       67.658        0.079      336.531        7.893      861.735
12/20/2014  06:36:00     -380.326     -162.700       -9.042      237.939      153.609       93.773    56615.113    23595.770     8793.307       13.008        4.450      413.666       99.328        0.058      336.525        7.883      861.734
12/20/2014  06:37:00     -562.927     -212.239      -33.639      252.934      223.851      111.994    63975.745    50109.059    12542.609       24.482        6.331      601.608      113.525        0.036      336.521        7.876      861.741
12/20/2014  06:38:00     -426.926      -79.785        3.792      216.515      162.445       87.965    46878.647    26388.453     7737.868       13.481        4.050      434.317      103.274        0.057      336.528        7.888      861.809
12/20/2014  06:39:00     -436.133     -131.485       -9.359      229.250      140.982       80.527    52555.565    19875.961     6484.615       14.324        3.946      455.522       85.741        0.035      336.527        7.888      861.862
12/20/2014  06:40:00     -408.956     -161.205       -0.767      190.213      139.854       90.353    36181.155    19559.043     8163.726       12.856        3.195      439.581       99.967        0.052      336.518        7.873      861.917
12/20/2014  06:41:00     -461.404     -138.743       -1.114      182.757      178.988       89.472    33400.033    32036.549     8005.263       15.278        3.672      481.812       93.027        0.037      336.531        7.893      861.906
12/20/2014  06:42:00     -563.860     -149.363      -24.634      219.234      190.771      106.263    48063.470    36393.597    11291.764       21.828        4.787      583.308      121.528        0.043      336.526        7.885      861.885
12/20/2014  06:43:00     -331.540     -243.645      -10.672      221.069      179.510       96.288    48871.651    32223.661     9271.356       12.986        4.518      411.438      114.079        0.077      336.521        7.877      861.847
12/20/2014  06:44:00     -484.338     -255.214       -0.588      268.028      184.312       99.066    71839.047    33971.066     9814.098       20.765        5.781      547.465      111.723        0.042      336.508        7.854      861.805
12/20/2014  06:45:00     -390.031     -206.409       -8.380      197.213      172.094       93.279    38892.983    29616.413     8700.909       13.599        3.861      441.281      108.055        0.060      336.503        7.846      861.849
12/20/2014  06:46:00     -445.247     -171.984      -39.497      212.894      169.597       92.369    45323.729    28763.228     8532.006       15.598        4.131      477.308      112.776        0.056      336.491        7.825      861.952
12/20/2014  06:47:00     -343.334      -53.175       -7.275      184.469      140.793       80.867    34028.693    19822.591     6539.476        9.056        3.020      347.428       95.565        0.076      336.534        7.896      862.051
12/20/2014  06:48:00     -291.842      -37.396        0.188      250.667      109.732       84.251    62834.077    12041.140     7098.165        8.426        4.099      294.228      123.239        0.175      336.499        7.840      862.058
12/20/2014  06:49:00     -265.000     -181.615       -0.383      210.304      166.226       80.287    44227.615    27630.992     6446.037        9.074        3.915      321.261       89.568        0.078      336.461        7.773      862.002
12/20/2014  06:50:00     -323.817     -209.416       -7.773      194.116      156.932       97.135    37680.981    24627.716     9435.293       11.024        3.587      385.633      109.104        0.080      336.464        7.779      861.913
12/20/2014  06:51:00     -321.312     -160.450      -14.784      171.104      112.005       58.391    29276.412    12545.187     3409.510        8.721        2.262      359.146       67.736        0.036      336.457        7.767      861.852
12/20/2014  06:52:00     -467.759     -154.741      -11.503      193.951      138.197       91.940    37616.907    19098.500     8452.992       15.401        3.258      492.690      103.769        0.044      336.464        7.778      861.836
12/20/2014  06:53:00     -326.887      -21.190        8.695      220.708      147.856       93.642    48711.905    21861.458     8768.906        9.335        3.967      327.573      105.500        0.104      336.551        7.926      861.887
12/20/2014  06:54:00     -370.165     -189.236      -11.122      208.256      162.852       87.233    43370.355    26520.780     7609.555       12.521        3.875      415.731       88.939        0.046      336.518        7.871      862.005
12/20/2014  06:55:00     -429.263     -169.797       -6.594      219.971      145.071       97.128    48387.188    21045.467     9433.900       14.599        3.943      461.625      112.328        0.059      336.508        7.853      862.049
12/20/2014  06:56:00     -373.635     -179.633       -9.237      242.164      158.613       92.507    58643.474    25158.165     8557.509       13.214        4.618      414.573      111.781        0.073      336.517        7.870      862.067
12/20/2014  06:57:00     -391.249     -310.118       -4.835      284.080      222.741      127.075    80701.232    49613.550    16148.124       19.784        7.323      499.248      140.203        0.079      336.509        7.855      862.013
12/20/2014  06:58:00     -512.215     -110.599      -30.491      205.393      207.991       94.757    42186.272    43260.146     8978.895       18.496        4.721      524.020       90.216        0.030      336.532        7.893      862.017
12/20/2014  06:59:00     -403.412     -179.545      -16.211      257.142      180.549       81.191    66121.984    32597.914     6591.971       15.025        5.266      441.563      105.990        0.058      336.513        7.860      862.012
12/20/2014  07:00:00     -372.586     -165.154       -2.751      232.829      160.029       89.359    54209.392    25609.256     7985.000       12.694        4.390      407.549       96.472        0.056      336.511        7.860      861.956
12/20/2014  07:01:00     -468.414     -321.760      -14.808      203.517      178.443      107.421    41419.187    31842.056    11539.375       20.396        4.240      568.280      109.987        0.037      336.482        7.809      861.922
12/20/2014  07:02:00     -353.629     -249.841        7.221      303.821      212.968      115.064    92307.441    45355.529    13239.612       16.918        7.545      432.983      153.367        0.125      336.494        7.830      861.799
12/20/2014  07:03:00     -405.030     -172.650      -14.681      212.090      200.700       90.522    44982.231    40280.491     8194.184       14.375        4.673      440.292       87.103        0.039      336.493        7.829      861.834
12/20/2014  07:04:00     -516.843     -281.631      -32.576      258.753      187.494      106.801    66953.123    35153.997    11406.378       23.049        5.676      588.594      117.467        0.040      336.533        7.897      861.752
12/20/2014  07:05:00     -374.452     -243.417      -27.382      145.958      178.988       90.928    21303.670    32036.575     8267.865       13.090        3.080      446.616       78.681        0.031      336.515        7.866      861.753
12/20/2014  07:06:00     -475.466     -283.001      -48.087      269.892      178.484      121.633    72841.640    31856.692    14794.508       21.396        5.975      553.315      133.903        0.059      336.529        7.889      861.747
12/20/2014  07:07:00     -532.937     -289.971      -11.917      298.045      242.567      105.089    88830.782    58838.839    11043.627       26.345        7.936      606.716      115.420        0.036      336.567        7.953      861.763
12/20/2014  07:08:00     -378.193     -248.669       -9.445      273.961      189.669      107.018    75054.420    35974.234    11452.820       16.369        6.124      452.622      128.665        0.081      336.550        7.926      861.718
12/20/2014  07:09:00     -572.667     -372.182      -17.906      279.764      247.285      129.103    78267.650    61149.682    16667.497       31.141        7.804      682.984      162.623        0.057      336.577        7.972      861.730
12/20/2014  07:10:00     -490.520     -151.947        1.930      291.763      249.275      122.206    85125.647    62137.789    14934.342       21.292        8.110      513.515      145.697        0.080      336.594        7.999      861.709
12/20/2014  07:11:00     -522.974     -255.606      -16.296      421.229      234.824      147.024   177433.760    55142.426    21616.022       29.660       12.710      582.096      196.472        0.114      336.590        7.992      861.780
12/20/2014  07:12:00     -404.870     -175.051      -26.632      285.412      224.142      149.049    81459.982    50239.838    22215.696       17.456        7.696      441.092      153.205        0.121      336.574        7.966      861.783
12/20/2014  07:13:00     -336.631     -191.735        7.272      221.174      177.565       99.915    48917.761    31529.330     9982.916       12.026        4.522      387.405      109.794        0.080      336.582        7.977      861.849
12/20/2014  07:14:00     -497.316     -290.692      -31.354      184.199      148.942      104.242    33929.390    22183.756    10866.303       19.988        3.349      576.043      100.897        0.031      336.563        7.945      861.871
12/20/2014  07:15:00     -460.396     -167.765      -14.925      250.748      198.538       90.530    62874.334    39417.215     8195.679       17.539        5.524      490.009       96.136        0.038      336.571        7.959      861.875
12/20/2014  07:16:00     -337.053     -166.335        3.735      264.206      163.972      102.688    69804.686    26886.764    10544.798       12.424        5.362      375.862      124.763        0.110      336.548        7.923      861.885
12/20/2014  07:17:00     -316.980     -185.233        1.759      237.319      204.627       96.933    56320.151    41872.060     9395.937       12.117        5.379      367.134      112.810        0.094      336.516        7.868      861.834
12/20/2014  07:18:00     -491.658     -211.900      -10.770      252.129      203.732      108.537    63569.148    41506.895    11780.339       20.178        5.843      535.377      117.609        0.048      336.488        7.820      861.801
12/20/2014  07:19:00     -588.320     -141.371      -44.400      184.162      236.664       90.488    33915.583    56009.827     8188.075       23.308        4.906      605.067       85.178        0.020      336.505        7.848      861.854
12/20/2014  07:20:00     -453.230     -119.835      -21.307      217.263      179.080       91.729    47203.250    32069.672     8414.257       15.394        4.384      468.805      110.620        0.056      336.497        7.835      861.882
12/20/2014  07:21:00     -442.053     -249.122       -3.939      266.675      193.697      108.647    71115.462    37518.638    11804.105       18.894        6.022      507.418      133.807        0.070      336.490        7.822      861.876
12/20/2014  07:22:00     -344.070     -139.713       -8.662      189.833      195.921       93.783    36036.508    38385.076     8795.169       11.058        4.161      371.354       94.186        0.064      336.486        7.817      861.828
12/20/2014  07:23:00     -472.897     -292.946       -5.758      316.703      231.870      134.296   100300.524    53763.536    18035.327       24.076        8.605      556.282      155.134        0.078      336.508        7.852      861.781
12/20/2014  07:24:00     -314.031     -197.093       -6.138      222.568      153.134       90.735    49536.559    23450.162     8232.785       10.934        4.061      370.757       96.686        0.068      336.501        7.842      861.744
12/20/2014  07:25:00     -392.623     -187.402      -14.027      239.967      175.778      107.777    57584.342    30897.790    11615.820       14.476        5.005      435.054      112.713        0.067      336.489        7.822      861.728
12/20/2014  07:26:00     -328.360      -84.319      -12.102      262.254      210.458      119.781    68777.326    44292.431    14347.549       12.122        6.371      339.013      140.033        0.171      336.513        7.862      861.727
12/20/2014  07:27:00     -407.449     -210.893      -10.924      191.549      169.899       95.438    36691.084    28865.661     9108.338       14.262        3.733      458.792       80.993        0.031      336.500        7.840      861.695
12/20/2014  07:28:00     -331.936     -187.303        3.728      228.981      178.168      106.631    52432.304    31743.877    11370.066       12.039        4.777      381.135      109.185        0.082      336.475        7.797      861.670
12/20/2014  07:29:00     -206.244      -94.900        5.240      198.054      139.893       80.217    39225.373    19570.188     6434.721        5.839        3.262      227.030       93.459        0.169      336.504        7.848      861.716
12/20/2014  07:30:00     -395.960     -277.128      -17.768      244.398      191.129      113.323    59730.539    36530.303    12842.149       17.148        5.455      483.306      133.833        0.077      336.459        7.772      861.747
12/20/2014  07:31:00     -383.169     -255.948      -21.745      193.509      178.733      105.504    37445.794    31945.377    11131.040       14.665        4.026      460.790      109.644        0.057      336.463        7.776      861.820
12/20/2014  07:32:00     -354.191     -125.662        4.430      259.271      182.515       94.359    67221.301    33311.651     8903.619       12.533        5.472      375.821      100.851        0.072      336.454        7.762      861.864
12/20/2014  07:33:00     -233.867      -85.517       19.952      159.572      159.754       73.530    25463.274    25521.276     5406.701        5.939        2.820      249.012       79.100        0.101      336.471        7.792      861.945
12/20/2014  07:34:00     -394.971     -193.220       -8.037      266.811      189.883      111.138    71188.313    36055.490    12351.729       15.647        5.980      439.700      129.545        0.087      336.454        7.761      861.944
12/20/2014  07:35:00     -569.529     -228.748      -29.082      195.614      147.483      100.443    38264.895    21751.201    10088.786       22.381        3.505      613.750      113.535        0.034      336.445        7.746      861.949
12/20/2014  07:36:00     -402.992     -104.494      -12.549      185.009      200.111       94.871    34228.315    40044.588     9000.501       12.836        4.164      416.320       92.381        0.049      336.484        7.812      861.992
12/20/2014  07:37:00     -514.642     -154.541      -20.185      208.694      168.415      107.580    43553.213    28363.772    11573.399       18.630        4.175      537.344      117.672        0.048      336.437        7.733      861.998
12/20/2014  07:38:00     -303.207     -210.695        5.042      208.141      211.483      104.856    43322.658    44724.872    10994.852       11.768        4.952      369.224      119.896        0.105      336.465        7.780      861.952
12/20/2014  07:39:00     -231.249     -126.245        1.943      194.579      124.093       85.724    37860.949    15399.027     7348.540        6.500        3.030      263.465       93.407        0.126      336.483        7.811      861.943
12/20/2014  07:40:00     -273.579     -125.415       16.207      172.372      149.405       88.586    29712.154    22321.727     7847.503        7.535        2.994      300.955       87.537        0.085      336.465        7.781      861.970
12/20/2014  07:41:00     -272.319     -161.954      -14.572      182.176      175.912       91.521    33188.029    30945.188     8376.120        8.654        3.625      316.838      104.300        0.108      336.480        7.806      862.024
12/20/2014  07:42:00     -350.577     -114.223      -24.691      181.129      150.304       87.318    32807.694    22591.318     7624.432        9.978        3.151      368.715       87.458        0.056      336.474        7.795      862.071
12/20/2014  07:43:00     -216.813      -65.272       -4.845      143.827      116.563       67.134    20686.308    13586.861     4507.010        4.503        1.939      226.426       77.661        0.118      336.488        7.820      862.095
12/20/2014  07:44:00     -232.764      -61.494        8.910      144.846      125.817       82.286    20980.336    15829.816     6770.990        5.080        2.179      240.750       82.024        0.116      336.524        7.881      862.098
12/20/2014  07:45:00     -319.401     -143.830        3.825      195.048      209.011       96.172    38043.885    43685.623     9248.961       10.683        4.549      350.291      114.105        0.106      336.495        7.833      862.068
12/20/2014  07:46:00     -565.162     -121.128      -34.539      206.888      200.828       90.232    42802.468    40331.817     8141.809       21.326        4.564      577.997       77.211        0.018      336.461        7.774      862.058
12/20/2014  07:47:00     -339.150     -114.589       -9.196      173.103      124.920       78.966    29964.606    15604.901     6235.599        9.001        2.590      357.985       58.471        0.027      336.469        7.788      862.043
12/20/2014  07:48:00     -265.507     -140.247       -2.386      202.135      119.540       74.996    40858.471    14289.699     5624.369        7.546        3.039      300.272       89.954        0.090      336.451        7.757      861.964
12/20/2014  07:49:00     -183.073      -84.574       21.682      137.907      135.061       73.623    19018.255    18241.573     5420.388        4.190        2.134      201.664       73.026        0.131      336.500        7.840      861.870
12/20/2014  07:50:00     -382.282     -150.325       -0.744      213.342      187.078       87.441    45514.914    34998.304     7645.961       12.843        4.408      410.777       90.202        0.048      336.467        7.783      861.822
12/20/2014  07:51:00     -250.528     -112.055       -4.114      183.779      200.294       79.130    33774.795    40117.854     6261.607        7.773        4.008      274.446       83.791        0.093      336.508        7.854      861.795
12/20/2014  07:52:00     -253.005      -58.070      -16.222      131.399      118.950       78.989    17265.685    14149.183     6239.237        5.264        1.883      259.584       70.495        0.074      336.508        7.852      861.773
12/20/2014  07:53:00     -385.405     -104.350      -10.793      200.508      132.085       87.710    40203.419    17446.525     7693.040       11.243        3.267      399.282      101.645        0.065      336.465        7.780      861.739
12/20/2014  07:54:00     -337.556     -140.030       -9.376      186.061      146.568       80.827    34618.698    21482.305     6533.022        9.812        3.132      365.448       87.598        0.057      336.475        7.797      861.692
12/20/2014  07:55:00     -492.091     -113.808      -20.364      226.452      155.823       93.272    51280.337    24280.851     8699.700       16.987        4.213      505.080       99.097        0.038      336.498        7.835      861.627
12/20/2014  07:56:00     -524.455     -138.816      -25.966      194.810      179.948       88.701    37951.009    32381.388     7867.784       18.658        3.910      542.515       75.967        0.020      336.474        7.796      861.617
12/20/2014  07:57:00     -322.991     -135.252      -29.720      172.067      122.060       71.818    29607.210    14898.754     5157.826        8.657        2.483      350.166       81.654        0.054      336.476        7.798      861.604
12/20/2014  07:58:00     -219.817     -176.905      -11.784       90.879      104.514       53.759     8258.936    10923.236     2890.003        5.091        1.104      282.161       48.121        0.029      336.474        7.792      861.596
12/20/2014  07:59:00     -194.816     -151.891       -7.860      141.131      148.360       61.498    19917.946    22010.565     3782.038        5.339        2.286      247.031       71.639        0.084      336.475        7.799      861.553
12/20/2014  08:00:00     -211.531     -132.250      -17.623      123.805      123.324       56.175    15327.791    15208.831     3155.622        4.811        1.685      249.470       40.215        0.026      336.465        7.780      861.511
12/20/2014  08:01:00     -364.376     -132.694       -8.259      209.193      131.119       78.742    43761.708    17192.079     6200.312       10.879        3.358      387.785       86.324        0.050      336.488        7.820      861.492
12/20/2014  08:02:00     -281.982      -77.374       -8.030      167.076      121.098       66.644    27914.351    14664.632     4441.425        6.628        2.351      292.405       75.512        0.067      336.513        7.863      861.487
12/20/2014  08:03:00     -271.278     -145.093      -19.647      183.722      123.906       75.356    33753.595    15352.656     5678.588        7.490        2.739      307.643       77.753        0.064      336.513        7.863      861.464
12/20/2014  08:04:00     -272.177     -150.011      -11.633      127.319      121.259       60.469    16210.217    14703.671     3656.441        6.564        1.729      310.779       59.569        0.037      336.532        7.894      861.449
12/20/2014  08:05:00     -334.027     -102.564      -19.703       78.813       97.795       47.698     6211.426     9563.946     2275.125        7.026        0.903      349.419       37.571        0.012      336.519        7.872      861.446
12/20/2014  08:06:00     -261.949      -83.822       -5.272      190.965      172.413       85.614    36467.757    29726.168     7329.783        7.458        3.676      275.033       98.606        0.129      336.590        7.991      861.481
12/20/2014  08:07:00     -315.569     -239.010       -9.252      145.765      121.341       75.323    21247.462    14723.672     5673.486        9.921        2.082      395.866       77.596        0.038      336.571        7.961      861.531
12/20/2014  08:08:00     -246.169     -114.486       -1.898      126.447       78.651       57.489    15988.812     6185.932     3305.017        4.959        1.274      271.488       64.262        0.056      336.559        7.940      861.577
12/20/2014  08:09:00     -227.211      -85.919       -2.464      159.196       87.465       61.266    25343.240     7650.203     3753.556        4.787        1.837      242.913       80.282        0.109      336.575        7.968      861.655
12/20/2014  08:10:00     -171.993     -138.614       18.082      166.477      134.783       67.609    27714.491    18166.413     4571.020        4.978        2.523      220.897       81.909        0.137      336.595        8.002      861.680
12/20/2014  08:11:00     -233.255     -161.659        4.231      119.012      110.416       65.109    14163.793    12191.702     4239.127        5.557        1.530      283.798       73.616        0.067      336.589        7.991      861.713
12/20/2014  08:12:00     -278.698      -65.141       -4.491      145.866      143.939       69.448    21276.804    20718.521     4823.072        6.437        2.341      286.210       77.946        0.074      336.624        8.049      861.743
12/20/2014  08:13:00     -272.991     -157.406       -9.100      113.400      147.252       69.266    12859.477    21683.019     4797.835        6.935        1.967      315.121       63.613        0.041      336.594        7.998      861.790
12/20/2014  08:14:00     -349.542     -141.862      -15.786      190.289      138.292       85.348    36209.886    19124.747     7284.361       10.257        3.131      377.233      101.695        0.073      336.594        7.999      861.850
12/20/2014  08:15:00     -213.320     -110.453        7.198      151.105      119.749       66.013    22832.783    14339.800     4357.708        4.964        2.077      240.219       80.886        0.113      336.639        8.074      861.888
12/20/2014  08:16:00     -318.454     -146.933      -15.032      164.187      117.396       75.694    26957.252    13781.805     5729.552        8.484        2.323      350.717       86.477        0.061      336.614        8.032      861.885
12/20/2014  08:17:00     -246.251     -108.666       -2.128      126.123       96.493       63.446    15906.892     9310.966     4025.439        5.084        1.462      269.161       66.952        0.062      336.606        8.018      861.810
12/20/2014  08:18:00     -318.870     -171.025      -32.389       83.982       90.796       48.795     7052.930     8243.910     2380.947        7.482        0.884      361.839       40.045        0.012      336.616        8.035      861.764
12/20/2014  08:19:00     -221.292     -224.423      -13.473       86.111      106.124       49.900     7415.064    11262.380     2490.012        6.034        1.058      315.176       43.355        0.019      336.630        8.059      861.771
12/20/2014  08:20:00     -102.580      -80.982        7.715       87.939       99.351       41.900     7733.324     9870.567     1755.597        1.825        0.968      130.694       46.062        0.124      336.698        8.174      861.810
12/20/2014  08:21:00     -177.721      -94.330       -4.560       86.703       77.616       42.023     7517.412     6024.262     1765.914        2.790        0.765      201.203       39.614        0.039      336.641        8.078      861.878
12/20/2014  08:22:00     -203.657      -94.359        7.849      129.222       94.750       54.514    16698.371     8977.634     2971.753        3.954        1.432      224.454       50.852        0.051      336.685        8.150      861.907
12/20/2014  08:23:00     -125.787     -218.330       -0.198      108.266      123.479       51.170    11721.433    15246.995     2618.406        4.653        1.479      251.973       54.466        0.047      336.740        8.242      861.930
12/20/2014  08:24:00      -64.194     -147.067        0.868       84.728       98.611       40.016     7178.877     9724.101     1601.275        2.212        0.925      160.466       45.141        0.079      336.829        8.392      861.975
12/20/2014  08:25:00     -124.104      -94.137       -5.202       85.764       98.151       44.512     7355.512     9633.577     1981.332        2.163        0.949      155.768       34.553        0.049      336.768        8.291      862.026
12/20/2014  08:26:00      -96.272     -119.457        8.713       54.946       48.096       32.613     3019.072     2313.244     1063.615        1.500        0.320      153.422       15.497        0.010      336.751        8.262      862.094
12/20/2014  08:27:00     -114.844      -72.270        1.660      120.560       80.758       53.410    14534.801     6521.794     2852.626        2.116        1.195      135.691       31.512        0.054      336.778        8.306      862.052
12/20/2014  08:28:00     -193.753     -189.002       -0.371      108.026      138.478       52.116    11669.710    19176.095     2716.111        5.341        1.678      270.669       55.646        0.042      336.777        8.303      861.994
12/20/2014  08:29:00     -190.387      -71.022        0.311      148.408      140.313       60.499    22024.814    19687.820     3660.105        4.332        2.269      203.202       60.164        0.088      336.819        8.374      861.969
12/20/2014  08:30:00      -58.989      -23.874       27.377       58.614       51.496       35.398     3435.603     2651.885     1253.015        0.607        0.367       63.637       43.678        0.471      336.831        8.397      861.961
12/20/2014  08:31:00      -46.847      -59.104        3.613       98.875       84.924       37.972     9776.185     7212.109     1441.835        1.206        0.922       75.418       49.695        0.434      336.815        8.369      861.999
12/20/2014  08:32:00      -71.602     -130.651      -17.143       53.082       91.130       46.792     2817.693     8304.679     2189.513        1.790        0.666      148.985       36.799        0.061      336.894        8.501      862.016
12/20/2014  08:33:00     -101.662      -86.494       -9.838       79.468       91.051       33.254     6315.153     8290.286     1105.798        1.681        0.786      133.478       38.356        0.083      336.850        8.425      862.031
12/20/2014  08:34:00     -138.122      -83.275       -3.693       40.820       56.474       32.784     1666.309     3189.311     1074.765        1.598        0.297      161.283       28.811        0.032      336.821        8.379      862.037
12/20/2014  08:35:00      -76.921      -57.973       -1.409       57.267       39.819       24.247     3279.506     1585.582      587.895        0.737        0.273       96.321        6.819        0.005      336.810        8.361      862.053
12/20/2014  08:36:00      -11.199      -46.397        4.379       48.514       38.948       25.779     2353.637     1516.919      664.580        0.342        0.227       47.730       14.087        0.087      336.919        8.544      862.098
12/20/2014  08:37:00      -66.931      -44.946      -12.548       57.664       35.669       21.404     3325.128     1272.255      458.126        0.586        0.253       80.622       19.046        0.056      336.821        8.382      862.145
12/20/2014  08:38:00       60.778      -19.153       30.772       70.184       50.200       32.304     4925.857     2519.996     1043.533        0.675        0.424       63.724       26.527        0.173      336.887        8.491      862.158
12/20/2014  08:39:00       19.320      -91.657       -2.770       44.696       63.911       37.236     1997.773     4084.573     1386.509        0.812        0.373       93.671       33.183        0.125      337.021        8.713      862.114
12/20/2014  08:40:00       -2.178      -42.796       21.591       38.887       47.421       31.152     1512.233     2248.749      970.457        0.352        0.237       42.851       21.620        0.255      336.934        8.570      862.089
12/20/2014  08:41:00      -22.887      -46.286       14.766       25.931       48.555       26.624      672.427     2357.616      708.817        0.331        0.187       51.635       26.257        0.259      336.950        8.595      862.101
12/20/2014  08:42:00      -12.582      -61.587        7.022       41.710       45.062       28.541     1739.740     2030.599      814.607        0.429        0.229       62.859       15.445        0.060      336.972        8.632      862.136
12/20/2014  08:43:00      -80.385      -81.189        4.709       49.112       44.952       30.638     2412.014     2020.680      938.674        0.922        0.269      114.252       27.544        0.058      336.827        8.390      862.182
12/20/2014  08:44:00      -19.180      -16.546       11.994       31.785       26.084       16.480     1010.273      680.349      271.593        0.137        0.098       25.331       16.434        0.421      336.892        8.500      862.167
12/20/2014  08:45:00      -23.855       31.482       20.450       38.638       26.661       19.852     1492.893      710.806      394.107        0.229        0.130       39.499       18.006        0.208      336.991        8.663      862.168
12/20/2014  08:46:00      -60.762       14.820       -3.301       30.068       52.549       22.151      904.101     2761.373      490.652        0.404        0.208       62.544       13.697        0.048      337.021        8.714      862.237
12/20/2014  08:47:00      -71.869      -65.401       -4.999       37.615       45.214       24.285     1414.921     2044.261      589.757        0.676        0.202       97.172       18.324        0.036      336.806        8.355      862.314
12/20/2014  08:48:00     -106.775      -62.285      -10.256       39.467       44.933       18.511     1557.660     2018.982      342.671        0.965        0.196      123.614       15.617        0.016      336.783        8.318      862.369
12/20/2014  08:49:00      -82.139     -114.210        1.147       70.085       67.446       29.062     4911.882     4548.972      844.599        1.505        0.515      140.679       22.802        0.026      336.790        8.328      862.382
12/20/2014  08:50:00      -88.387      -63.936       -5.264       38.153       44.740       26.798     1455.654     2001.693      718.119        0.805        0.209      109.087       25.491        0.055      336.884        8.486      862.322
12/20/2014  08:51:00       15.590       12.485       17.210       37.490       29.681       20.754     1405.514      880.968      430.717        0.171        0.136       19.973       10.681        0.286      336.909        8.527      862.342
12/20/2014  08:52:00       30.729      -21.072       24.006       50.660       68.820       35.326     2566.484     4736.158     1247.946        0.526        0.428       37.260       34.725        0.869      336.907        8.524      862.359
12/20/2014  08:53:00      114.800     -102.239      -15.079       85.150      110.173       53.680     7250.517    12138.117     2881.559        2.306        1.114      153.726       69.270        0.203      336.861        8.446      862.400
12/20/2014  08:54:00       20.341      -20.632       13.065       45.005       44.538       34.195     2025.456     1983.608     1169.289        0.309        0.259       28.973       29.396        1.029      336.906        8.522      862.423
12/20/2014  08:55:00      -83.171       -9.861        6.140       62.804       38.615       23.351     3944.351     1491.121      545.255        0.652        0.299       83.754       31.039        0.137      336.922        8.547      862.435
12/20/2014  08:56:00      -68.640      -28.203       -3.584       48.845       13.803       14.872     2385.804      190.533      221.173        0.416        0.140       74.208       16.650        0.050      336.865        8.453      862.457
12/20/2014  08:57:00      -46.111      -88.824       -5.345       34.085       49.682       19.599     1161.807     2468.308      384.108        0.703        0.201      100.080       14.587        0.021      336.854        8.435      862.471
12/20/2014  08:58:00       20.721       39.298       -2.987       28.415       30.357       22.986      807.439      921.541      528.364        0.212        0.113       44.426       10.878        0.060      336.924        8.551      862.427
12/20/2014  08:59:00      -10.616       30.509      -12.569       19.857       17.445       14.117      394.290      304.324      199.281        0.105        0.045       32.304        5.387        0.028      336.901        8.513      862.425
12/20/2014  09:00:00       12.689       52.615       12.610       18.348       15.694       14.732      336.636      246.298      217.041        0.194        0.040       54.124       11.456        0.045      336.883        8.481      862.404
12/20/2014  09:01:00       24.069      133.231      -17.989       21.771       35.342       16.096      473.975     1249.066      259.076        1.032        0.099      135.387       16.753        0.015      336.857        8.441      862.374
12/20/2014  09:02:00      -77.569       43.857      -22.480       56.583       48.029       35.912     3201.624     2306.739     1289.666        0.762        0.340       89.109       29.765        0.112      336.929        8.560      862.433
12/20/2014  09:03:00      -50.844      -17.422      -13.931       30.937       27.160       25.520      957.092      737.668      651.286        0.271        0.117       53.746       18.093        0.113      336.979        8.641      862.475
12/20/2014  09:04:00       10.050       14.102       -0.247       25.116       19.576       15.319      630.812      383.207      234.687        0.077        0.062       17.316       12.939        0.558      336.975        8.635      862.471
12/20/2014  09:05:00        6.579       61.132       -8.450       38.533       25.654       18.837     1484.756      658.126      354.817        0.317        0.125       61.485       20.208        0.108      336.880        8.478      862.462
12/20/2014  09:06:00      -60.153       76.604       -2.589       49.759       63.409       34.660     2475.909     4020.721     1201.299        0.859        0.385       97.399       26.002        0.071      337.127        8.891      862.559
12/20/2014  09:07:00      -92.116       44.979      -10.985      101.191      110.603       39.439    10239.552    12233.075     1555.425        1.732        1.201      102.511       31.739        0.096      337.080        8.811      862.529
12/20/2014  09:08:00      -64.196      -77.648       23.752       70.022       54.838       44.519     4903.139     3007.220     1981.929        1.030        0.495      100.749       46.721        0.215      337.037        8.739      862.473
12/20/2014  09:09:00      -57.428      -43.565       16.686       70.933       69.121       36.258     5031.531     4777.689     1314.629        0.830        0.556       72.082       38.063        0.279      337.038        8.741      862.485
12/20/2014  09:10:00     -114.319       10.173       -4.739       56.296       74.929       33.779     3169.273     5614.311     1140.992        1.156        0.496      114.771       21.316        0.034      337.119        8.878      862.434
12/20/2014  09:11:00       36.251       33.985      -21.183       60.677       73.796       46.180     3681.695     5445.899     2132.623        0.709        0.563       49.691       26.807        0.291      337.058        8.776      862.427
12/20/2014  09:12:00     -253.006      -47.917       -2.099       98.589      100.694       48.768     9719.824    10139.242     2378.309        4.427        1.112      257.504       40.912        0.025      337.046        8.752      862.475
12/20/2014  09:13:00     -186.990       18.153      -12.764       93.934       61.213       35.328     8823.519     3747.043     1248.069        2.464        0.691      187.869       36.286        0.037      337.166        8.954      862.479
12/20/2014  09:14:00     -124.252      -87.338       -1.840      136.611       64.810       57.259    18662.584     4200.354     3278.615        2.460        1.307      151.876       71.433        0.221      337.062        8.780      862.485
12/20/2014  09:15:00     -151.805     -131.000       -0.182       96.706       87.420       52.470     9352.017     7642.321     2753.078        2.997        0.987      200.514       56.638        0.080      337.052        8.762      862.529
12/20/2014  09:16:00     -143.380     -132.301       -4.348      120.415       89.804       55.969    14499.808     8064.819     3132.487        3.188        1.285      195.093       35.745        0.034      337.047        8.755      862.540
12/20/2014  09:17:00     -175.982     -189.492       -6.530      132.010       89.144       52.016    17426.573     7946.721     2705.614        4.749        1.404      258.605       41.128        0.025      337.114        8.866      862.472
12/20/2014  09:18:00     -136.668     -131.806      -11.674       91.195       84.095       42.626     8316.558     7071.986     1816.945        2.669        0.860      189.871       38.852        0.042      337.060        8.777      862.443
12/20/2014  09:19:00     -111.348      -64.311        9.372      108.253       52.671       31.363    11718.762     2774.287      983.661        1.605        0.774      128.585       47.224        0.135      337.099        8.843      862.481
12/20/2014  09:20:00     -114.117     -217.261        6.196      127.891      106.591       50.612    16356.221    11361.610     2561.559        4.527        1.514      245.408       46.618        0.036      337.110        8.858      862.556
12/20/2014  09:21:00     -183.971     -193.276        0.116      180.211      102.178       64.724    32475.860    10440.303     4189.176        5.914        2.355      266.835       52.224        0.038      337.083        8.813      862.518
12/20/2014  09:22:00     -140.608     -112.455       -8.700      106.185       82.269       41.145    11275.296     6768.142     1692.935        2.611        0.987      180.046       27.859        0.024      337.105        8.852      862.480
12/20/2014  09:23:00     -126.071     -100.942        8.516      101.481       77.963       56.465    10298.428     6078.298     3188.268        2.286        0.978      161.503       56.882        0.124      337.099        8.842      862.491
12/20/2014  09:24:00      -85.682     -135.954        3.035       75.807       79.497       41.662     5746.631     6319.766     1735.731        1.982        0.690      160.702       41.352        0.066      337.102        8.846      862.537
12/20/2014  09:25:00     -171.998     -163.348       -0.966      130.268       93.237       54.704    16969.665     8693.214     2992.560        4.246        1.433      237.205       51.282        0.047      337.103        8.847      862.562
12/20/2014  09:26:00      -92.552     -128.933       -2.440       70.937      116.998       41.422     5032.066    13688.494     1715.805        2.281        1.022      158.712       38.982        0.060      337.130        8.894      862.576
12/20/2014  09:27:00      -80.248     -159.002       -6.940       63.747       72.612       35.548     4063.665     5272.476     1263.687        2.118        0.530      178.105       36.449        0.042      337.183        8.983      862.562
12/20/2014  09:28:00       25.714       55.968       21.497       41.084       77.765       46.545     1687.916     6047.428     2166.466        0.708        0.495       61.593       39.639        0.414      337.220        9.047      862.499
12/20/2014  09:29:00      -16.367      -38.922       -4.461       36.800       39.670       25.959     1354.209     1573.675      673.869        0.270        0.180       42.223       12.539        0.088      337.261        9.116      862.532
12/20/2014  09:30:00      -29.433      -69.706      -11.722       39.140       43.107       31.185     1531.966     1858.255      972.502        0.511        0.218       75.666       26.971        0.127      337.216        9.042      862.564
12/20/2014  09:31:00      -44.429      -52.311        3.606       59.042       54.097       28.615     3485.911     2926.435      818.799        0.598        0.362       68.632       25.314        0.136      337.171        8.966      862.603
12/20/2014  09:32:00      -27.934       20.880       59.418       27.744       48.618       37.908      769.703     2363.748     1437.018        0.466        0.229       34.875       40.984        1.381      337.181        8.982      862.587
12/20/2014  09:33:00       -7.512      -59.877       11.969       32.737       57.851       34.929     1071.687     3346.689     1220.001        0.471        0.282       60.346       33.072        0.300      337.183        8.986      862.571
12/20/2014  09:34:00      -26.216      -15.147       26.709       60.665       52.116       33.888     3680.268     2716.026     1148.388        0.459        0.377       30.277       32.700        1.166      337.135        8.904      862.605
12/20/2014  09:35:00      -67.562      -94.354        0.948       66.449       47.354       25.684     4415.422     2242.427      659.690        1.039        0.366      116.049       13.837        0.014      337.062        8.783      862.607
12/20/2014  09:36:00      -70.569     -126.330        5.272       48.017       68.208       30.164     2305.650     4652.352      909.837        1.442        0.393      144.703       25.994        0.032      337.059        8.775      862.633
12/20/2014  09:37:00      -35.582     -182.842      -26.605       62.989       74.927       47.727     3967.553     5614.050     2277.844        2.363        0.593      186.272       32.475        0.030      337.153        8.933      862.644
12/20/2014  09:38:00     -139.576     -138.739      -10.941       72.261       71.512       34.607     5221.676     5113.999     1197.634        2.519        0.577      196.799       26.788        0.019      337.122        8.879      862.681
12/20/2014  09:39:00      -50.063      -70.364       16.992       93.064       73.209       39.992     8660.951     5359.603     1599.352        1.168        0.781       86.356       43.169        0.250      337.166        8.958      862.617
12/20/2014  09:40:00     -187.490     -148.338       -4.067      128.619      152.255       56.205    16542.752    23181.717     3158.977        5.002        2.144      239.075       55.563        0.054      337.189        8.995      862.636
12/20/2014  09:41:00     -126.865      -80.743       12.812      113.455      113.471       63.385    12871.961    12875.594     4017.603        2.627        1.488      150.380       55.079        0.134      337.236        9.073      862.633
12/20/2014  09:42:00     -176.013       -5.608        9.631      165.370       96.255       78.476    27347.259     9265.092     6158.420        3.693        2.139      176.102       78.719        0.200      337.300        9.181      862.650
12/20/2014  09:43:00      -62.407     -144.564       -2.574       82.499      124.448       57.408     6806.125    15487.338     3295.644        2.519        1.279      157.460       39.426        0.063      337.222        9.049      862.662
12/20/2014  09:44:00     -189.587     -265.444      -12.132      133.810      114.856       64.928    17905.115    13191.824     4215.607        7.092        1.766      326.196       56.239        0.030      337.220        9.044      862.632
12/20/2014  09:45:00     -297.543      -87.300      -13.001      191.586      117.675       82.258    36705.009    13847.507     6766.379        7.681        2.866      310.086       89.216        0.083      337.185        8.987      862.730
12/20/2014  09:46:00     -397.952      -76.246      -17.050      216.976      171.160       82.595    47078.372    29295.672     6821.960       12.382        4.160      405.191       86.235        0.045      337.187        8.991      862.716
12/20/2014  09:47:00     -157.951      -54.049       12.254      165.528      106.316       58.663    27399.617    11303.177     3441.342        3.507        2.107      166.943       70.652        0.179      337.191        8.998      862.731
12/20/2014  09:48:00     -145.322     -117.268       14.410      153.287      128.234       75.578    23496.881    16443.887     5712.039        4.036        2.283      186.735       85.941        0.212      337.194        9.002      862.713
12/20/2014  09:49:00     -196.861      -71.336        2.729      160.342      142.285       86.517    25709.712    20244.883     7485.158        4.863        2.672      209.388       84.968        0.165      337.179        8.977      862.737
12/20/2014  09:50:00     -506.667     -305.754        3.280      259.148      226.213      122.834    67157.501    51172.515    15088.240       24.179        6.671      591.774      139.530        0.056      337.166        8.955      862.752
12/20/2014  09:51:00     -456.600     -342.534      -23.817      190.880      182.074      100.355    36435.099    33150.799    10071.176       20.300        3.983      570.800      110.740        0.038      337.152        8.931      862.728
12/20/2014  09:52:00     -191.859     -153.279       24.655      239.466      178.723       86.445    57343.729    31941.954     7472.698        7.882        4.838      245.570      106.056        0.187      337.159        8.943      862.676
12/20/2014  09:53:00     -182.223      -87.327      -22.268      135.120      179.263       74.165    18257.342    32135.134     5500.467        4.860        2.795      202.067       70.080        0.120      337.162        8.947      862.628
12/20/2014  09:54:00     -359.488     -117.863      -12.221      221.176      175.368       93.622    48918.982    30753.834     8765.036       11.584        4.422      378.316      100.362        0.070      337.137        8.905      862.549
12/20/2014  09:55:00     -310.480       -5.274       10.327      247.979      175.365      120.349    61493.570    30752.787    14483.963       10.161        5.337      310.525      133.473        0.185      337.121        8.878      862.544
12/20/2014  09:56:00     -239.349     -156.857       -6.538      230.633      175.924       95.547    53191.742    30949.205     9129.324        8.758        4.664      286.167      111.186        0.151      337.119        8.874      862.570
12/20/2014  09:57:00     -349.428     -234.649       -4.876      201.181      198.156      101.604    40473.891    39265.624    10323.372       13.361        4.503      420.904      106.782        0.064      337.092        8.829      862.662
12/20/2014  09:58:00     -417.279     -338.404        3.069      283.573      193.405      114.011    80413.773    37405.536    12998.595       20.971        6.541      537.251      140.623        0.069      337.035        8.733      862.678
12/20/2014  09:59:00     -223.537     -145.591        2.214      154.655      134.849       70.006    23918.238    18184.223     4900.876        5.908        2.350      266.769       74.491        0.078      337.034        8.732      862.700
12/20/2014  10:00:00     -332.095     -274.322       -8.104      227.786      147.381      100.786    51886.475    21721.296    10157.785       13.467        4.188      430.743      128.841        0.089      337.043        8.747      862.687
12/20/2014  10:01:00     -189.366     -171.235       14.256      178.423      134.427       83.329    31834.823    18070.679     6943.645        6.111        2.842      255.306       87.283        0.117      337.046        8.752      862.666
12/20/2014  10:02:00     -328.198     -226.650       17.449      192.606      204.685      112.556    37097.172    41896.011    12668.904       12.551        4.583      398.854      120.423        0.091      337.049        8.757      862.643
12/20/2014  10:03:00     -393.438     -145.273      -20.387      251.304      147.559       86.011    63153.502    21773.711     7397.970       13.430        4.616      419.401       96.693        0.053      337.041        8.743      862.614
12/20/2014  10:04:00     -354.590     -201.511       -0.376      324.975      179.797      100.353   105608.679    32326.828    10070.738       15.714        7.400      407.849      120.592        0.087      337.038        8.738      862.622
12/20/2014  10:05:00     -120.246      -48.053        8.275      155.445      127.444       56.139    24163.048    16241.877     3151.623        3.019        2.178      129.492       51.123        0.156      337.083        8.817      862.690
12/20/2014  10:06:00     -221.673      -85.319        2.573      175.126      109.488       63.576    30669.099    11987.648     4041.949        5.155        2.335      237.525       75.336        0.101      337.034        8.733      862.708
12/20/2014  10:07:00     -311.339      -80.904       -3.012      169.867      148.963       78.051    28854.839    22189.856     6091.991        8.030        2.857      321.679       73.354        0.052      337.047        8.754      862.771
12/20/2014  10:08:00     -223.588      -79.850       -0.855      207.591      190.826       86.618    43094.154    36414.415     7502.671        7.167        4.351      237.418       94.202        0.157      337.058        8.772      862.772
12/20/2014  10:09:00     -236.527      -56.829       24.296      213.938      154.709      110.662    45769.426    23934.981    12246.167        7.084        4.098      243.258      105.338        0.188      337.027        8.720      862.784
12/20/2014  10:10:00     -228.121     -111.525       -0.807      181.475      154.050       81.686    32933.352    23731.270     6672.682        6.389        3.167      253.923       93.853        0.137      337.005        8.684      862.836
12/20/2014  10:11:00     -336.587     -175.835      -11.954      187.418      131.319       68.888    35125.526    17244.744     4745.501       10.072        2.856      379.748       64.165        0.029      336.986        8.651      862.726
12/20/2014  10:12:00     -372.621     -146.768      -13.333      184.343      137.630       73.776    33982.189    18942.025     5442.938       10.945        2.918      400.484       73.602        0.034      336.982        8.645      862.653
12/20/2014  10:13:00     -232.339      -50.512        3.147      216.318      114.975       78.587    46793.374    13219.313     6175.974        6.135        3.309      237.766      105.529        0.197      337.011        8.696      862.575
12/20/2014  10:14:00     -216.969     -154.873        7.237      156.436      135.591       67.789    24472.113    18384.904     4595.387        5.927        2.373      266.573       62.315        0.055      336.955        8.599      862.521
12/20/2014  10:15:00     -425.507     -281.764      -21.911      188.571      150.188      100.875    35559.077    22556.497    10175.700       16.460        3.415      510.340      108.906        0.046      336.913        8.530      862.483
12/20/2014  10:16:00     -271.390      -91.458        3.488      204.160      152.557       79.302    41681.434    23273.735     6288.799        7.662        3.562      286.386       88.282        0.095      336.930        8.558      862.558
12/20/2014  10:17:00     -271.190     -117.264        4.614      146.347      105.032       61.651    21417.463    11031.721     3800.870        6.178        1.813      295.457       73.698        0.062      336.941        8.576      862.620
12/20/2014  10:18:00     -189.777      -98.354        1.993      149.313      101.488       70.130    22294.384    10299.846     4918.259        4.160        1.876      213.749       68.678        0.103      336.967        8.620      862.674
12/20/2014  10:19:00     -141.969     -125.420       16.836      146.677       97.761       65.213    21514.179     9557.201     4252.785        3.574        1.766      189.434       77.902        0.169      336.980        8.642      862.726
12/20/2014  10:20:00     -170.492     -148.277        2.729      112.742      105.825       63.464    12710.689    11198.903     4027.722        3.949        1.397      225.950       47.623        0.044      336.975        8.633      862.651
12/20/2014  10:21:00     -106.284       -1.560       22.604      109.392      116.018       62.207    11966.662    13460.208     3869.669        2.055        1.465      106.295       61.540        0.335      337.055        8.769      862.605
12/20/2014  10:22:00     -339.141      -67.483        0.078      188.171      177.757       78.837    35408.252    31597.487     6215.278        9.638        3.661      345.789       73.627        0.045      336.959        8.606      862.571
12/20/2014  10:23:00     -416.155     -140.982      -12.325      198.286      129.493       66.004    39317.156    16768.405     4356.589       12.682        3.022      439.387       73.163        0.028      336.876        8.468      862.583
12/20/2014  10:24:00     -412.660     -104.097      -17.013      167.699      147.553       65.885    28122.870    21771.780     4340.810       11.781        2.712      425.588       74.872        0.031      336.863        8.447      862.569
12/20/2014  10:25:00     -318.981     -187.887      -14.768      178.788      131.703       81.625    31965.192    17345.715     6662.582        9.661        2.799      370.203       87.456        0.056      336.882        8.478      862.606
12/20/2014  10:26:00     -374.151     -164.393      -37.166      202.792      152.621       84.043    41124.542    23293.199     7063.271       11.992        3.574      408.674       89.229        0.048      336.895        8.501      862.643
12/20/2014  10:27:00     -330.002     -185.420       -8.535      198.177      138.440       82.961    39274.249    19165.517     6882.594       10.433        3.266      378.526       92.899        0.060      336.901        8.510      862.677
12/20/2014  10:28:00     -218.959     -197.536        4.002      194.929      146.342       85.379    37997.474    21415.847     7289.564        7.683        3.335      294.895      108.776        0.136      336.935        8.565      862.721
12/20/2014  10:29:00     -130.949     -132.997       -1.009      124.155      121.837       67.040    15414.440    14844.243     4494.370        3.479        1.738      186.644       64.437        0.119      336.982        8.644      862.734
12/20/2014  10:30:00     -207.895      -29.562        1.991      165.340      123.447       73.593    27337.259    15239.054     5415.942        4.604        2.400      209.987       76.850        0.134      337.005        8.685      862.782
12/20/2014  10:31:00     -216.346     -100.205        4.329      168.407      148.601       94.904    28360.798    22082.240     9006.816        5.815        2.972      238.425       84.968        0.127      336.967        8.621      862.760
12/20/2014  10:32:00     -314.495      -83.065      -21.050      155.322      145.858       69.730    24125.015    21274.571     4862.276        7.825        2.513      325.279       61.817        0.036      336.968        8.621      862.714
12/20/2014  10:33:00     -509.382     -224.736      -22.677      223.912      187.905       92.509    50136.694    35308.369     8557.917       20.223        4.700      556.755       97.765        0.031      336.876        8.470      862.641
12/20/2014  10:34:00     -416.746     -217.196       -2.941      221.273      168.348       94.879    48961.618    28341.070     9002.001       15.357        4.315      469.948      111.868        0.057      336.885        8.484      862.649
12/20/2014  10:35:00     -321.082     -141.034      -18.331      200.082      190.386       86.883    40032.612    36246.739     7548.641       10.356        4.191      350.691       96.270        0.075      336.895        8.500      862.657
12/20/2014  10:36:00     -427.074       -1.585       -3.454      198.230      133.319       92.277    39295.138    17773.922     8514.977       12.398        3.279      427.077      101.847        0.057      336.901        8.509      862.593
12/20/2014  10:37:00     -420.470     -153.603      -12.189      197.838      206.430       88.301    39139.896    42613.407     7796.988       14.503        4.478      447.648       81.329        0.033      336.853        8.430      862.520
12/20/2014  10:38:00     -334.628     -185.754      -11.521      208.273      133.571       73.367    43377.571    17841.288     5382.662       10.659        3.330      382.727       87.417        0.052      336.840        8.409      862.583
12/20/2014  10:39:00     -252.983     -129.092      -10.124      199.746      117.361       60.582    39898.415    13773.683     3670.205        6.904        2.867      284.016       75.235        0.070      336.837        8.406      862.583
12/20/2014  10:40:00     -219.447      -48.994      -20.497      199.353       91.240       57.721    39741.478     8324.779     3331.745        5.118        2.570      224.850       81.669        0.132      336.843        8.416      862.539
12/20/2014  10:41:00     -278.287     -118.065       -4.236      155.310      153.742       69.663    24121.213    23636.603     4852.922        7.200        2.631      302.296       60.635        0.040      336.850        8.425      862.514
12/20/2014  10:42:00     -495.073     -130.192      -23.322      185.534      130.510       73.552    34422.684    17032.866     5409.968       15.972        2.843      511.906       71.240        0.019      336.827        8.387      862.520
12/20/2014  10:43:00     -274.719     -135.031       -6.800      151.080      130.697       80.007    22825.314    17081.751     6401.067        7.002        2.315      306.111       83.338        0.074      336.811        8.360      862.432
12/20/2014  10:44:00     -219.712     -154.703        2.638      131.950      140.729       90.335    17410.847    19804.709     8160.494        5.879        2.269      268.713       89.620        0.111      336.844        8.415      862.405
12/20/2014  10:45:00     -462.251      -28.001       -3.600      256.839      151.105       91.618    65966.438    22832.818     8393.834       15.581        4.860      463.098      103.905        0.050      336.879        8.474      862.401
12/20/2014  10:46:00     -304.478     -135.285      -11.924      137.755      133.682       69.691    18976.413    17870.890     4856.848        7.642        2.085      333.180       55.287        0.028      336.869        8.457      862.484
12/20/2014  10:47:00     -298.436     -143.966       -3.157      186.194      148.164       83.020    34668.126    21952.467     6892.349        8.664        3.176      331.346       91.233        0.076      336.867        8.454      862.603
12/20/2014  10:48:00     -412.232     -143.653      -18.021      159.708       80.725       62.953    25506.599     6516.550     3963.122       11.343        1.799      436.544       80.467        0.034      336.964        8.615      862.734
12/20/2014  10:49:00     -313.724     -181.720      -10.802      148.304      112.787       74.074    21994.002    12720.926     5487.015        8.587        2.010      362.553       80.275        0.049      336.867        8.454      862.777
12/20/2014  10:50:00     -273.709      -78.126       -3.698      154.836       98.238       61.338    23974.161     9650.623     3762.401        5.920        1.869      284.640       59.329        0.043      336.913        8.529      862.766
12/20/2014  10:51:00     -255.225     -137.257      -14.139      169.090      151.406       74.493    28591.483    22923.803     5549.235        7.061        2.853      289.791       91.341        0.099      336.917        8.537      862.738
12/20/2014  10:52:00     -266.727     -128.128        2.441      180.357      177.429       95.820    32528.813    31480.893     9181.390        8.036        3.660      295.905       91.247        0.095      336.928        8.554      862.599
12/20/2014  10:53:00     -303.483     -197.702      -15.928      164.269      139.452       66.325    26984.176    19446.779     4398.972        9.113        2.541      362.199       54.839        0.023      336.891        8.493      862.518
12/20/2014  10:54:00     -116.337      -96.000       -5.926      113.154       71.084       45.168    12803.898     5052.930     2040.104        2.134        0.995      150.832       56.276        0.139      336.900        8.510      862.432
12/20/2014  10:55:00      -68.900     -132.060        7.188       75.168       70.431       37.808     5650.289     4960.479     1429.416        1.714        0.602      148.953       41.473        0.078      336.919        8.541      862.420
12/20/2014  10:56:00     -479.671     -123.851      -23.348      284.899      135.785       77.312    81167.568    18437.461     5977.173       17.575        5.279      495.402       98.156        0.039      336.873        8.463      862.432
12/20/2014  10:57:00     -384.018     -126.982      -18.576      138.575      111.767       65.326    19203.018    12491.911     4267.525        9.994        1.798      404.468       72.035        0.032      336.868        8.455      862.446
12/20/2014  10:58:00     -215.123      -88.948       -7.548      130.108      109.012       58.800    16928.004    11883.652     3457.413        4.325        1.613      232.787       59.549        0.065      336.906        8.519      862.440
12/20/2014  10:59:00     -152.764      -55.849       13.323      110.758      108.226       46.292    12267.364    11712.783     2142.973        2.637        1.306      162.653       52.980        0.106      336.969        8.623      862.422
12/20/2014  11:00:00     -115.259      -51.530        5.450       92.658       74.052       38.786     8585.531     5483.676     1504.326        1.577        0.779      126.254       33.472        0.070      336.885        8.485      862.433
12/20/2014  11:01:00     -209.776     -141.757       -6.443      217.780      127.057       64.203    47428.094    16143.585     4122.037        6.590        3.385      253.182       83.709        0.109      336.900        8.511      862.423
12/20/2014  11:02:00     -271.226     -162.312       -9.975      167.217      151.850       86.501    27961.457    23058.303     7482.468        7.924        2.925      316.084       96.848        0.094      336.907        8.519      862.400
12/20/2014  11:03:00     -241.757     -162.952       12.999      184.554      138.863       80.807    34060.157    19283.047     6529.743        7.251        2.994      291.547       95.883        0.108      336.919        8.541      862.420
12/20/2014  11:04:00     -434.048     -161.483      -24.027      194.382      148.694       84.947    37784.374    22109.907     7215.999       14.107        3.356      463.114       94.640        0.042      336.942        8.576      862.426
12/20/2014  11:05:00     -191.181     -124.662       11.180      230.273      137.283       82.690    53025.619    18846.699     6837.590        6.545        3.935      228.235      113.681        0.248      336.988        8.657      862.384
12/20/2014  11:06:00     -298.584     -130.222      -10.275      149.808      101.277       65.738    22442.445    10256.955     4321.446        7.161        1.851      325.746       74.858        0.053      336.969        8.623      862.335
12/20/2014  11:07:00     -270.849     -110.491       -2.542      133.430      124.665       66.913    17803.540    15541.332     4477.301        6.169        1.891      292.520       70.159        0.058      336.992        8.663      862.261
12/20/2014  11:08:00     -298.988     -184.859       -2.952      170.895      126.158       73.290    29204.951    15915.835     5371.420        8.702        2.525      351.521       75.045        0.046      336.981        8.643      862.184
12/20/2014  11:09:00     -180.274     -107.254       13.757      176.050      186.911       72.552    30993.536    34935.571     5263.773        5.768        3.560      209.767       91.711        0.191      337.003        8.680      862.167
12/20/2014  11:10:00     -255.386     -219.053       -7.895      114.822      147.137       57.854    13184.187    21649.291     3347.093        7.572        1.909      336.461       64.461        0.037      337.005        8.684      862.199
12/20/2014  11:11:00     -145.079      -86.175        7.380       76.224       69.889       46.188     5810.090     4884.523     2133.314        2.068        0.641      168.743       39.995        0.056      336.999        8.673      862.239
12/20/2014  11:12:00     -101.997      -72.743       -2.151       96.618       55.441       33.432     9335.010     3073.720     1117.727        1.461        0.676      125.279       41.972        0.112      337.042        8.748      862.307
12/20/2014  11:13:00     -184.865     -168.153        2.104      135.095      105.839       62.230    18250.565    11201.841     3872.524        4.788        1.666      249.901       60.001        0.058      337.069        8.789      862.290
12/20/2014  11:14:00     -156.375      -84.928        3.941      115.794       92.929       49.078    13408.347     8635.816     2408.687        2.806        1.223      177.949       53.385        0.090      337.121        8.877      862.252
12/20/2014  11:15:00     -220.172     -133.888       -4.465      116.210       88.293       60.373    13504.771     7795.569     3644.915        4.568        1.247      257.685       51.987        0.041      337.159        8.943      862.192
12/20/2014  11:16:00      -61.889      -72.225       10.284       91.589       92.328       42.379     8388.504     8524.391     1795.963        1.393        0.935       95.114       33.450        0.124      337.178        8.976      862.039
12/20/2014  11:17:00     -232.537      -81.211      -11.474      117.885      119.842       45.234    13896.767    14362.118     2046.109        4.555        1.515      246.310       45.015        0.033      337.232        9.064      861.960
12/20/2014  11:18:00      -87.566      -78.335        4.102       78.865       74.398       36.460     6219.751     5535.095     1329.326        1.345        0.654      117.492       46.350        0.156      337.185        8.988      861.929
12/20/2014  11:19:00     -215.949      -35.802      -13.328      207.888       97.687       54.707    43217.291     9542.764     2992.889        5.191        2.788      218.897       72.300        0.109      337.209        9.027      861.937
12/20/2014  11:20:00     -329.228      -28.574      -15.310      208.837      109.066       71.506    43612.785    11895.449     5113.105        8.502        3.031      330.466       90.666        0.075      337.242        9.082      861.889
12/20/2014  11:21:00     -120.707       -1.378       13.557       86.784       87.741       62.969     7531.379     7698.435     3965.156        1.697        0.960      120.715       53.199        0.194      337.267        9.125      861.862
12/20/2014  11:22:00     -288.309     -211.062        0.940      271.845      204.177       93.248    73899.640    41688.349     8695.262       12.595        6.214      357.308      112.366        0.099      337.244        9.086      861.804
12/20/2014  11:23:00     -464.822     -297.967       -1.677      257.654      157.506       74.346    66385.654    24808.081     5527.280       20.076        4.836      552.127      106.116        0.037      337.255        9.103      861.794
12/20/2014  11:24:00     -263.483     -165.089       -0.404      137.497       96.972       59.298    18905.488     9403.574     3516.284        6.425        1.591      310.930       65.546        0.044      337.226        9.054      861.889
12/20/2014  11:25:00     -285.295     -120.007       -0.399      137.511       98.261       58.886    18909.309     9655.174     3467.525        6.391        1.602      309.508       62.529        0.041      337.220        9.044      861.906
12/20/2014  11:26:00     -140.833     -191.561        6.268      127.835      103.408       60.880    16341.666    10693.212     3706.398        4.365        1.537      237.759       56.146        0.056      337.260        9.114      861.843
12/20/2014  11:27:00     -216.536     -133.722        7.050      142.838      107.502       57.350    20402.629    11556.592     3289.048        5.003        1.762      254.498       57.217        0.051      337.253        9.100      861.752
12/20/2014  11:28:00     -365.751     -236.702       -9.640      224.101      147.940       91.190    50221.074    21886.196     8315.544       13.514        4.021      435.662       98.358        0.051      337.217        9.040      861.690
12/20/2014  11:29:00     -320.455     -142.015      -13.045      189.757      154.280       91.110    36007.580    23802.344     8300.962        9.556        3.406      350.513      106.226        0.092      337.219        9.042      861.625
12/20/2014  11:30:00     -391.487     -260.783        2.308      191.959      188.683       90.687    36848.076    35601.348     8224.117       15.096        4.034      470.393       99.632        0.045      337.209        9.027      861.588
12/20/2014  11:31:00     -158.821     -208.878        8.601       90.518      128.195       57.770     8193.528    16434.044     3337.386        4.844        1.398      262.401       36.137        0.019      337.241        9.080      861.618
12/20/2014  11:32:00     -338.817     -226.974        2.594      197.116      114.348       81.079    38854.726    13075.387     6573.745       11.240        2.925      407.816       83.889        0.042      337.226        9.055      861.662
12/20/2014  11:33:00     -213.656     -160.214      -12.562      131.995       68.893       49.788    17422.576     4746.304     2478.834        4.806        1.232      267.053       49.162        0.034      337.230        9.061      861.625
12/20/2014  11:34:00     -183.091     -132.930       -3.138      120.902       92.611       47.409    14617.257     8576.844     2247.643        3.832        1.272      226.258       53.905        0.057      337.238        9.074      861.598
12/20/2014  11:35:00     -171.730     -115.943       -3.307       92.185       87.816       48.939     8498.067     7711.668     2395.027        3.077        0.930      207.205       49.075        0.056      337.262        9.114      861.594
12/20/2014  11:36:00     -158.039     -182.453        4.747      105.039      123.319       55.023    11033.285    15207.615     3027.573        4.377        1.463      241.382       44.469        0.034      337.295        9.169      861.578
12/20/2014  11:37:00     -166.181      -92.841        7.564       93.401       71.886       55.438     8723.700     5167.654     3073.320        2.663        0.848      190.356       50.170        0.069      337.314        9.203      861.523
12/20/2014  11:38:00     -214.822      -81.608       -1.321      116.489      126.841       56.157    13569.718    16088.537     3153.622        4.280        1.641      229.801       75.882        0.109      337.323        9.218      861.436
12/20/2014  11:39:00     -201.876     -174.800      -11.586      119.316       99.294       60.911    14236.382     9859.295     3710.102        4.962        1.390      267.037       46.511        0.030      337.349        9.259      861.422
12/20/2014  11:40:00     -388.986     -232.081       -8.508      221.804      177.798      102.719    49196.864    31612.188    10551.122       14.828        4.568      452.959      118.517        0.068      337.332        9.232      861.389
12/20/2014  11:41:00     -404.448     -164.892      -11.303      233.875      190.772       87.928    54697.730    36394.027     7731.360       14.484        4.941      436.770       94.050        0.046      337.302        9.181      861.341
12/20/2014  11:42:00     -182.872     -138.027        6.443      146.622      121.659       58.747    21498.082    14800.967     3451.182        4.613        1.988      229.115       54.867        0.057      337.319        9.211      861.348
12/20/2014  11:43:00     -247.965      -71.254       -8.287      122.115       74.000       54.901    14911.979     5475.972     3014.077        4.501        1.170      257.999       61.144        0.056      337.356        9.271      861.384
12/20/2014  11:44:00     -227.771     -190.633       13.746      135.557      135.676       80.841    18375.714    18408.084     6535.209        6.586        2.166      297.019       80.444        0.073      337.346        9.256      861.375
12/20/2014  11:45:00     -280.338     -189.584       -0.382      193.207      142.383       79.134    37328.790    20272.907     6262.141        8.918        3.193      338.425       83.122        0.060      337.364        9.286      861.303
12/20/2014  11:46:00     -365.545     -378.405       -9.478      205.503      187.223       85.530    42231.660    35052.302     7315.394       18.073        4.230      526.131       91.985        0.031      337.344        9.251      861.228
12/20/2014  11:47:00     -256.767     -181.740        8.539      164.390      135.955       67.920    27024.169    18483.892     4613.158        7.457        2.506      314.577       84.880        0.073      337.378        9.309      861.189
12/20/2014  11:48:00     -382.140     -246.277       -6.809      239.980      160.909       89.030    57590.438    25891.864     7926.345       14.905        4.570      454.624      103.070        0.051      337.336        9.238      861.120
12/20/2014  11:49:00     -356.434     -240.068       20.682      265.430      214.426      117.465    70453.066    45978.419    13797.985       15.764        6.511      429.742      144.623        0.113      337.331        9.229      861.074
12/20/2014  11:50:00     -300.228     -214.238       -0.696      173.473      150.699       74.584    30092.885    22710.078     5562.712        9.719        2.918      368.828       78.771        0.046      337.342        9.247      861.107
12/20/2014  11:51:00     -306.046     -250.024       23.805      249.487      166.608      118.705    62243.703    27758.236    14090.795       13.040        5.205      395.192      139.466        0.125      337.339        9.243      861.161
12/20/2014  11:52:00     -242.995     -150.661        6.000      152.750      136.754       66.399    23332.441    18701.626     4408.808        6.410        2.322      285.912       79.778        0.078      337.347        9.256      861.210
12/20/2014  11:53:00     -275.300     -141.668      -12.998      146.562       89.297       45.422    21480.528     7973.896     2063.199        6.377        1.576      309.613       44.472        0.021      337.351        9.262      861.261
12/20/2014  11:54:00     -240.342      -49.124      -25.419      106.996       77.362       62.785    11448.158     5984.900     3941.942        4.109        1.069      245.311       58.174        0.056      337.364        9.285      861.298
12/20/2014  11:55:00     -364.616      -96.633      -15.854      173.290      165.910       74.216    30029.498    27526.055     5508.052       10.279        3.153      377.204       64.040        0.029      337.353        9.268      861.291
12/20/2014  11:56:00     -217.837     -153.366       12.530      213.617      153.192      109.280    45632.203    23467.862    11942.074        7.607        4.052      266.410      117.816        0.196      337.399        9.344      861.321
12/20/2014  11:57:00     -264.672     -196.841      -15.391      210.002      119.495       83.538    44100.773    14278.957     6978.662        8.718        3.268      329.845       98.377        0.089      337.373        9.300      861.363
12/20/2014  11:58:00     -281.329     -186.732        5.631      218.410      114.854       81.791    47703.008    13191.545     6689.764        9.080        3.379      337.661      100.913        0.089      337.384        9.318      861.346
12/20/2014  11:59:00     -300.333     -165.547      -11.541      207.108      175.821       98.905    42893.930    30912.976     9782.107       10.065        4.179      342.937      112.177        0.107      337.351        9.264      861.299
12/20/2014  12:00:00     -281.843      -22.869        8.431      225.309      129.049       78.439    50764.360    16653.709     6152.613        7.679        3.679      282.769      101.669        0.129      337.369        9.295      861.301
12/20/2014  12:01:00     -364.177     -123.585      -24.253      180.631      167.744       82.257    32627.516    28138.117     6766.287       10.800        3.377      384.575       79.819        0.043      337.361        9.281      861.294
12/20/2014  12:02:00     -299.304       30.974        9.328      245.247      105.285       96.103    60146.171    11084.942     9235.826        8.553        4.023      300.902      106.943        0.126      337.384        9.320      861.339
12/20/2014  12:03:00     -269.092      -52.774        0.196      186.511      156.363       92.687    34786.520    24449.368     8590.838        7.150        3.391      274.218       96.030        0.123      337.348        9.259      861.425
12/20/2014  12:04:00     -321.785     -155.605      -20.449      264.095      185.886       83.936    69746.279    34553.446     7045.282       11.974        5.567      357.433      101.461        0.081      337.345        9.252      861.429
12/20/2014  12:05:00     -237.359     -122.794       23.039      190.397      160.575       95.110    36250.828    25784.367     9045.825        7.150        3.554      267.241      101.588        0.145      337.429        9.394      861.375
12/20/2014  12:06:00     -475.463       -1.439      -43.836      180.650      172.094       85.920    32634.365    29616.384     7382.295       14.880        3.482      475.465       80.403        0.029      337.462        9.448      861.476
12/20/2014  12:07:00     -379.703      -57.858      -15.357      163.556      156.009       87.669    26750.599    24338.831     7685.892       10.325        2.939      384.086       87.387        0.052      337.485        9.487      861.462
12/20/2014  12:08:00     -386.001      -98.117      -26.981      156.363      126.007       72.173    24449.367    15877.765     5208.883       10.243        2.277      398.276       69.214        0.030      337.425        9.386      861.494
12/20/2014  12:09:00     -161.228      -83.790       20.673      158.759       99.307       67.451    25204.565     9861.865     4549.598        3.652        1.981      181.701       81.877        0.203      337.459        9.444      861.540
12/20/2014  12:10:00     -109.705      -93.615        5.554      100.126       78.516       56.118    10025.290     6164.829     3149.258        2.008        0.967      144.218       63.048        0.191      337.450        9.430      861.542
12/20/2014  12:11:00     -102.625     -120.180       12.871      123.455       88.618       71.193    15241.074     7853.216     5068.500        2.665        1.408      158.035       72.732        0.212      337.461        9.448      861.567
12/20/2014  12:12:00     -240.234     -130.799        2.662      130.751      109.413       64.109    17095.726    11971.280     4109.978        5.400        1.659      273.534       66.198        0.059      337.512        9.531      861.565
12/20/2014  12:13:00     -294.395      -77.682       -9.487      175.260      107.740       77.321    30716.066    11607.909     5978.479        7.054        2.415      304.472       82.748        0.074      337.556        9.606      861.547
12/20/2014  12:14:00     -298.057     -209.511       -9.555      155.920      143.619       74.780    24310.971    20626.407     5591.984        9.167        2.526      364.325       81.542        0.050      337.520        9.545      861.517
12/20/2014  12:15:00     -284.564      -83.940      -12.497      147.873       95.123       58.712    21866.282     9048.324     3447.059        6.126        1.718      296.686       68.916        0.054      337.532        9.567      861.529
12/20/2014  12:16:00     -357.994      -68.642        3.915      205.426      166.190      100.664    42199.852    27619.117    10133.337       10.640        3.998      364.515      106.052        0.085      337.509        9.527      861.510
12/20/2014  12:17:00     -468.705      -86.888      -12.163      217.909      158.690      105.381    47484.428    25182.615    11105.204       15.556        4.189      476.691      114.694        0.058      337.486        9.490      861.516
12/20/2014  12:18:00     -451.903      -71.451       -3.690      210.840      146.774       87.643    44453.613    21542.509     7681.293       14.149        3.684      457.517       95.315        0.043      337.433        9.401      861.501
12/20/2014  12:19:00     -550.468     -161.430      -24.120      223.031      171.973       98.726    49742.732    29574.699     9746.792       20.934        4.453      573.651      114.780        0.040      337.460        9.445      861.465
12/20/2014  12:20:00     -327.874      -76.461        3.768      235.487      193.003      110.187    55454.010    37250.009    12141.275       10.908        5.242      336.671      129.011        0.147      337.492        9.499      861.500
12/20/2014  12:21:00     -329.320      -60.775      -12.705      246.071      140.267       85.542    60551.018    19674.750     7317.480        9.991        4.377      334.881      125.370        0.140      337.516        9.540      861.530
12/20/2014  12:22:00     -434.271     -164.202      -14.414      208.160      132.231       73.473    43330.474    17484.945     5398.220       14.097        3.311      464.278       91.447        0.039      337.459        9.444      861.532
12/20/2014  12:23:00     -323.799     -130.736        0.187      168.046      140.524       67.283    28239.459    19746.991     4526.939        8.721        2.626      349.196       70.091        0.040      337.463        9.451      861.533
12/20/2014  12:24:00     -139.825      -17.439       13.563      140.532       76.298       63.250    19749.221     5821.375     4000.546        2.480        1.479      140.908       63.435        0.203      337.559        9.613      861.510
12/20/2014  12:25:00     -397.616      -96.098       -6.049      189.482      123.224       75.532    35903.429    15184.236     5705.125       11.207        2.840      409.064       85.384        0.044      337.484        9.486      861.537
12/20/2014  12:26:00     -283.948      -86.056       -2.833      124.834      141.544       63.477    15583.407    20034.738     4029.392        6.384        1.982      296.702       54.140        0.033      337.563        9.618      861.504
12/20/2014  12:27:00     -290.819     -106.455      -11.655      174.093      140.478       68.052    30308.220    19734.135     4631.059        7.535        2.734      309.691       80.145        0.067      337.523        9.551      861.459
12/20/2014  12:28:00     -420.920     -188.658       -9.602      199.688      135.045       78.564    39875.170    18237.240     6172.296       13.856        3.214      461.265       91.433        0.039      337.526        9.554      861.478
12/20/2014  12:29:00     -458.468      -84.338       -3.917      217.242      174.969       89.995    47194.168    30614.238     8099.101       15.160        4.295      466.160      101.604        0.048      337.582        9.650      861.472
12/20/2014  12:30:00     -405.736     -160.148      -11.396      137.178      110.593       64.096    18817.841    12230.713     4108.245       11.277        1.758      436.198       66.782        0.023      337.496        9.504      861.429
12/20/2014  12:31:00     -321.436      -36.898      -18.917      201.964      167.874       81.365    40789.348    28181.803     6620.304        9.030        3.780      323.547       78.214        0.058      337.563        9.617      861.391
12/20/2014  12:32:00     -450.832      -26.669      -26.310      210.469      151.786       79.987    44297.160    23038.930     6397.962       13.918        3.687      451.620       88.575        0.038      337.575        9.638      861.356
12/20/2014  12:33:00     -494.334     -118.806      -14.920      203.597      140.523       84.936    41451.707    19746.818     7214.084       16.354        3.421      508.410       98.564        0.038      337.537        9.575      861.352
12/20/2014  12:34:00     -438.980      -76.895      -13.136      154.961      139.584       80.450    24012.788    19483.577     6472.229       12.437        2.498      445.664       84.208        0.036      337.577        9.641      861.333
12/20/2014  12:35:00     -368.305      -77.038      -19.626      173.793      124.050       76.947    30204.036    15388.413     5920.774        9.673        2.576      376.276       80.169        0.045      337.582        9.650      861.277
12/20/2014  12:36:00     -352.026      -91.755       -5.480      182.630      140.106       64.803    33353.570    19629.748     4199.444        9.477        2.859      363.788       60.014        0.027      337.585        9.656      861.201
12/20/2014  12:37:00     -276.517     -105.362      -21.355      161.487      171.262       73.742    26078.122    29330.672     5437.905        7.442        3.042      295.910       87.576        0.088      337.656        9.774      861.135
12/20/2014  12:38:00     -268.605     -156.687       15.466      206.223      182.937      101.586    42527.792    33465.921    10319.630        9.161        4.316      310.965      112.886        0.132      337.533        9.567      861.120
12/20/2014  12:39:00     -259.191     -154.557       -1.628      188.199      142.322       86.578    35419.046    20255.432     7495.776        7.711        3.159      301.775       94.819        0.099      337.524        9.555      861.105
12/20/2014  12:40:00     -227.973      -47.863       -7.803      153.638      147.374       68.835    23604.585    21719.031     4738.325        5.218        2.503      232.943       80.854        0.120      337.590        9.664      861.028
12/20/2014  12:41:00     -308.289     -130.236       -0.554      200.716      171.143       95.743    40287.077    29289.909     9166.628        9.536        3.937      334.669       87.350        0.068      337.545        9.587      860.989
12/20/2014  12:42:00     -497.330     -151.770      -12.552      191.042      151.082       86.675    36496.890    22825.837     7512.494       16.867        3.342      519.972       90.483        0.030      337.512        9.531      861.033
12/20/2014  12:43:00     -303.105     -177.681       -5.346      159.778      103.818       69.199    25528.862    10778.128     4788.446        8.228        2.055      351.345       77.239        0.048      337.536        9.572      861.058
12/20/2014  12:44:00     -167.841     -124.279       -1.557      140.377       97.239       77.044    19705.573     9455.487     5935.731        3.935        1.755      208.844       81.890        0.154      337.589        9.660      861.062
12/20/2014  12:45:00     -146.716      -94.834       12.572      131.850      105.901       72.339    17384.369    11215.121     5232.945        3.225        1.692      174.697       69.080        0.156      337.655        9.775      861.128
12/20/2014  12:46:00     -398.658     -116.625      -30.830      177.436      148.176       77.809    31483.707    21956.248     6054.245       11.648        2.975      415.367       58.143        0.020      337.685        9.824      861.208
12/20/2014  12:47:00     -317.578      -60.220      -13.341      147.454      147.689       65.166    21742.746    21812.049     4246.631        7.622        2.390      323.237       66.327        0.042      337.736        9.909      861.267
12/20/2014  12:48:00     -304.448     -191.359       -7.743      180.384      174.316       94.867    32538.538    30385.921     8999.685       10.063        3.596      359.593       89.218        0.062      337.661        9.784      861.299
12/20/2014  12:49:00     -307.097     -110.985      -11.719      187.363      140.812       67.149    35104.926    19828.101     4508.975        8.309        2.972      326.537       84.136        0.066      337.633        9.738      861.333
12/20/2014  12:50:00     -214.334      -84.407        1.931      122.911      115.766       66.263    15107.101    13401.856     4390.726        4.298        1.645      230.355       64.810        0.079      337.638        9.744      861.347
12/20/2014  12:51:00     -353.255      -81.799      -17.326      137.277       94.437       53.046    18844.838     8918.339     2813.913        8.117        1.529      362.602       45.987        0.016      337.643        9.752      861.364
12/20/2014  12:52:00     -490.016      -87.430      -32.810      175.123      184.267       79.065    30668.087    33954.367     6251.322       15.984        3.544      497.755       79.775        0.026      337.589        9.663      861.335
12/20/2014  12:53:00     -399.910      -69.203      -33.556      180.581      147.892       80.145    32609.499    21872.152     6423.224       11.336        3.045      405.854       88.892        0.048      337.586        9.655      861.303
12/20/2014  12:54:00     -435.334     -150.445      -13.584      217.621      173.589       83.440    47359.033    30133.248     6962.268       14.838        4.223      460.597      100.165        0.047      337.547        9.591      861.301
12/20/2014  12:55:00     -477.464      -48.877      -11.708      197.638      141.802       94.015    39060.653    20107.781     8838.901       14.924        3.400      479.960      106.145        0.049      337.558        9.611      861.309
12/20/2014  12:56:00     -354.314      -67.335      -13.830      176.120      177.963       82.548    31018.118    31670.714     6814.183        9.987        3.475      360.655       90.391        0.063      337.538        9.575      861.291
12/20/2014  12:57:00     -506.700     -115.592      -35.132      267.409      154.369       81.609    71507.308    23829.763     6660.016       18.665        5.100      519.718       95.626        0.034      337.548        9.593      861.237
12/20/2014  12:58:00     -442.314     -158.804      -17.338      199.823      148.328       84.217    39929.202    22001.315     7092.482       14.508        3.451      469.958       82.764        0.031      337.533        9.567      861.166
12/20/2014  12:59:00     -166.337      -68.143       16.792      167.500      108.005       75.308    28056.121    11665.087     5671.286        3.898        2.270      179.754       84.099        0.219      337.583        9.652      861.122
12/20/2014  13:00:00     -114.970      -41.440       20.137      101.249       74.760       56.215    10251.379     5589.077     3160.090        1.717        0.950      122.210       46.270        0.143      337.614        9.706      861.079
12/20/2014  13:01:00     -154.247      -67.974       -2.923      210.758       87.602       51.886    44418.967     7674.121     2692.175        4.159        2.739      168.560       66.769        0.157      337.628        9.728      861.126
12/20/2014  13:02:00     -226.859      -72.479       -8.338      154.895      113.219       61.705    23992.531    12818.436     3807.447        4.869        2.031      238.156       66.673        0.078      337.611        9.700      861.215
12/20/2014  13:03:00     -341.561      -13.744       -8.435      199.644       96.028       65.785    39857.602     9221.332     4327.653        8.515        2.670      341.837       76.763        0.050      337.594        9.671      861.307
12/20/2014  13:04:00     -428.290      -71.502      -27.633      175.085      148.758       73.156    30654.710    22128.986     5351.799       12.371        2.907      434.218       78.984        0.033      337.571        9.631      861.357
12/20/2014  13:05:00     -306.154     -115.757      -11.853      173.841      134.650       61.654    30220.626    18130.582     3801.190        7.970        2.608      327.307       66.401        0.041      337.543        9.585      861.393
12/20/2014  13:06:00     -252.545      -92.941       -7.667      214.927      180.739       73.410    46193.730    32666.504     5389.031        7.835        4.212      269.104       75.239        0.078      337.577        9.642      861.391
12/20/2014  13:07:00     -359.298     -166.364        1.601      217.751      221.254       97.193    47415.495    48953.341     9446.389       13.127        5.291      395.945      107.093        0.073      337.556        9.606      861.468
12/20/2014  13:08:00     -396.176     -158.242      -15.646      202.681      143.394       83.584    41079.583    20561.796     6986.346       12.542        3.431      426.609       81.358        0.036      337.577        9.642      861.487
12/20/2014  13:09:00     -405.860     -203.272      -10.073      266.617      231.945       94.880    71084.569    53798.444     9002.145       16.999        6.694      453.918      119.118        0.069      337.568        9.626      861.510
12/20/2014  13:10:00     -461.347     -110.482      -31.414      257.811      134.733       90.304    66466.299    18153.083     8154.748       15.939        4.639      474.392      108.034        0.052      337.576        9.639      861.504
12/20/2014  13:11:00     -389.677      -63.911      -15.816      172.731      117.127       75.414    29836.047    13718.619     5687.288       10.270        2.462      394.883       74.713        0.036      337.590        9.663      861.485
12/20/2014  13:12:00     -372.553     -160.724      -10.094      181.322      155.968       90.381    32877.568    24326.003     8168.652       11.504        3.269      405.744       80.701        0.040      337.531        9.563      861.378
12/20/2014  13:13:00     -441.743     -122.060      -21.468      154.202      138.446       81.223    23778.156    19167.329     6597.141       13.001        2.477      458.296       87.606        0.037      337.538        9.574      861.352
12/20/2014  13:14:00     -200.728      -62.513       16.929      158.889       98.637       67.118    25245.715     9729.261     4504.798        4.197        1.974      210.237       72.551        0.119      337.629        9.730      861.334
12/20/2014  13:15:00     -428.644     -110.500      -20.538      212.873      205.194       78.606    45314.880    42104.574     6178.951       14.496        4.680      442.658       67.372        0.023      337.604        9.686      861.296
12/20/2014  13:16:00     -555.155     -159.406      -21.073      307.590      225.093      115.433    94611.538    50667.076    13324.764       24.630        7.930      577.587      139.967        0.059      337.562        9.616      861.356
12/20/2014  13:17:00     -137.518     -103.357       19.533      163.187      115.096       81.312    26629.941    13247.194     6611.574        3.822        2.324      172.028       96.537        0.315      337.589        9.663      861.368
12/20/2014  13:18:00     -265.744      -96.062       10.980      238.329      179.220       83.755    56800.607    32119.663     7014.844        8.793        4.797      282.574       95.914        0.115      337.716        9.875      861.435
12/20/2014  13:19:00     -243.470      -58.228       11.488      206.103      137.605       79.545    42478.523    18935.049     6327.374        6.526        3.387      250.336       99.767        0.159      337.759        9.947      861.466
12/20/2014  13:20:00     -400.787      -25.923       -1.019      249.387      190.959       84.343    62193.946    36465.312     7113.814       13.352        5.289      401.625      105.728        0.069      337.736        9.908      861.575
12/20/2014  13:21:00     -297.661      -23.121       -9.878      237.066      133.264       94.095    56200.158    17759.218     8853.851        8.601        4.141      298.558      115.742        0.150      337.766        9.960      861.624
12/20/2014  13:22:00     -333.398     -113.494      -22.484      252.578      163.374       94.988    63795.448    26691.023     9022.710       11.201        4.975      352.186      121.922        0.120      337.803       10.021      861.675
12/20/2014  13:23:00     -417.221        8.519      -29.440      214.203      180.163      103.842    45882.997    32458.765    10783.211       13.205        4.456      417.308      111.895        0.072      337.762        9.951      861.728
12/20/2014  13:24:00     -339.132       21.697      -15.319      211.767      130.077       67.960    44845.165    16920.116     4618.576        9.104        3.319      339.825       80.055        0.055      337.676        9.808      861.690
12/20/2014  13:25:00     -597.136     -236.217      -18.568      220.691      216.827       95.389    48704.322    47013.758     9099.040       25.875        5.241      642.161      103.755        0.026      337.581        9.648      861.594
12/20/2014  13:26:00     -455.095     -136.108      -15.538      241.107      155.123       93.569    58132.635    24063.182     8755.112       15.840        4.548      475.012      117.069        0.061      337.586        9.657      861.543
12/20/2014  13:27:00     -267.722      -63.687       20.486      216.504      178.738       92.186    46874.071    31947.278     8498.331        8.172        4.366      275.193      104.264        0.144      337.672        9.802      861.495
12/20/2014  13:28:00     -427.280        4.952      -42.306      160.861      146.525       83.563    25876.381    21469.639     6982.787       11.934        2.716      427.309       63.159        0.022      337.681        9.814      861.457
12/20/2014  13:29:00     -389.674      -85.871      -26.421      220.911      151.515       92.971    48801.781    22956.853     8643.520       12.014        4.020      399.023      101.748        0.065      337.617        9.708      861.432
12/20/2014  13:30:00     -524.513     -150.487      -25.145      230.484      185.301       99.451    53122.987    34336.486     9890.536       19.785        4.868      545.674       99.060        0.033      337.536        9.571      861.395
12/20/2014  13:31:00     -548.678     -203.278      -14.476      225.165      181.823       83.793    50699.358    33059.564     7021.334       21.666        4.539      585.123       78.453        0.018      337.523        9.550      861.423
12/20/2014  13:32:00     -420.421     -113.025       -3.143      223.179      151.748       90.811    49808.653    23027.394     8246.608       13.529        4.054      435.349       94.653        0.047      337.538        9.575      861.438
12/20/2014  13:33:00     -470.237      -90.817       -6.672      186.126      130.402       76.892    34643.050    17004.652     5912.314       14.348        2.878      478.926       82.128        0.029      337.558        9.608      861.501
12/20/2014  13:34:00     -542.253     -207.516      -25.991      198.443      192.166       98.113    39379.780    36927.770     9626.113       21.184        4.297      580.604       98.942        0.029      337.568        9.626      861.495
12/20/2014  13:35:00     -483.898      -88.396        1.971      241.439      178.509      101.344    58292.902    31865.616    10270.509       17.118        5.021      491.906      114.051        0.054      337.559        9.611      861.443
12/20/2014  13:36:00     -473.150       -6.762      -25.242      252.713      167.596       95.200    63863.745    28088.578     9063.043       16.276        5.051      473.198      108.651        0.053      337.607        9.693      861.444
12/20/2014  13:37:00     -622.538     -216.873      -10.786      272.930      240.061      117.512    74490.713    57629.044    13809.104       29.029        7.296      659.233      130.452        0.039      337.519        9.545      861.435
12/20/2014  13:38:00     -422.822     -112.701        1.200      209.821      176.573       94.911    44025.016    31178.108     9008.117       13.783        4.211      437.585       97.865        0.050      337.546        9.588      861.512
12/20/2014  13:39:00     -575.808     -101.740      -29.049      210.369      184.405       90.044    44255.083    34005.051     8107.965       21.454        4.318      584.727       89.604        0.023      337.549        9.594      861.481
12/20/2014  13:40:00     -465.301      -53.812      -32.712      249.152      191.328       86.039    62076.732    36606.405     7402.693       16.326        5.304      468.402      108.887        0.054      337.630        9.729      861.454
12/20/2014  13:41:00     -629.816     -156.482      -32.042      290.017      237.047      115.413    84109.859    56191.045    13320.124       28.787        7.681      648.965      129.065        0.040      337.569        9.628      861.402
12/20/2014  13:42:00     -619.548     -245.688      -42.877      246.108      190.036       94.804    60568.917    36113.609     8987.777       27.583        5.284      666.486       82.339        0.015      337.550        9.595      861.453
12/20/2014  13:43:00     -339.526      -23.364      -27.657      205.541      182.583       81.556    42247.277    33336.667     6651.391        9.940        4.112      340.329       87.233        0.066      337.645        9.756      861.501
12/20/2014  13:44:00     -437.666     -117.207      -22.499      258.973      154.524       91.781    67066.903    23877.757     8423.739       15.256        4.968      453.088      119.704        0.070      337.684        9.822      861.474
12/20/2014  13:45:00     -570.272      -46.281      -37.944      293.429      159.484      114.257    86100.748    25435.157    13054.660       22.667        6.230      572.147      144.447        0.064      337.545        9.588      861.481
12/20/2014  13:46:00     -562.378      -73.058      -21.379      334.550      213.885      104.046   111923.400    45746.838    10825.477       24.525        8.425      567.104      145.063        0.065      337.541        9.581      861.473
12/20/2014  13:47:00     -422.066      -15.129      -29.793      228.222      182.334       93.191    52085.053    33245.518     8684.526       13.662        4.701      422.337      102.335        0.059      337.599        9.678      861.469
12/20/2014  13:48:00     -382.160     -146.164       -6.321      200.258      152.270       99.467    40103.227    23186.002     9893.656       12.030        3.659      409.158       91.202        0.050      337.520        9.544      861.508
12/20/2014  13:49:00     -494.485      -83.736      -26.723      197.029      183.422       86.691    38820.328    33643.459     7515.308       16.609        3.999      501.525       82.585        0.027      337.574        9.636      861.548
12/20/2014  13:50:00     -454.548      -29.630      -20.034      225.458      172.681      100.764    50831.281    29818.722    10153.381       14.933        4.540      455.513      105.006        0.053      337.506        9.521      861.576
12/20/2014  13:51:00     -441.575      -58.394       -6.380      267.894      159.668      113.920    71767.081    25493.762    12977.691       15.432        5.512      445.419      127.681        0.082      337.545        9.587      861.614
12/20/2014  13:52:00     -531.906      -84.908       -7.246      255.867      190.893       99.651    65467.766    36440.288     9930.229       20.099        5.592      538.641       90.176        0.028      337.566        9.623      861.628
12/20/2014  13:53:00     -454.498      -46.517      -39.527      145.203      129.180       66.451    21083.832    16687.435     4415.802       12.623        2.109      456.873       62.577        0.019      337.539        9.576      861.658
12/20/2014  13:54:00     -524.193     -142.898      -31.527      325.074      176.117      119.779   105673.291    31017.081    14346.977       22.358        7.552      543.322      166.130        0.093      337.511        9.529      861.606
12/20/2014  13:55:00     -576.247      -51.325      -49.597      226.255      154.440       95.057    51191.422    23851.621     9035.756       21.060        4.204      578.529      116.823        0.041      337.554        9.602      861.692
12/20/2014  13:56:00     -482.340     -127.763      -11.865      308.799      193.365      114.221    95357.095    37390.073    13046.372       19.743        7.290      498.974      144.958        0.084      337.569        9.628      861.768
12/20/2014  13:57:00     -508.868     -127.311      -23.497      206.488      171.932       84.379    42637.115    29560.756     7119.733       17.750        3.966      524.552       92.350        0.031      337.516        9.539      861.767
12/20/2014  13:58:00     -439.913     -110.784      -39.466      193.614      146.961       83.051    37486.245    21597.546     6897.402       13.665        3.299      453.648       94.812        0.044      337.542        9.583      861.684
12/20/2014  13:59:00     -511.344     -165.725      -22.149      210.752      192.903      106.046    44416.211    37211.475    11245.835       19.113        4.644      537.529      103.143        0.037      337.488        9.491      861.572
12/20/2014  14:00:00     -671.957     -160.575      -44.125      226.952      201.856       80.966    51507.315    40746.004     6555.544       28.901        4.940      690.877       90.457        0.017      337.430        9.395      861.506
12/20/2014  14:01:00     -652.128      -84.106      -35.031      287.008      177.311      117.709    82373.529    31439.139    13855.419       28.059        6.383      657.529      130.398        0.039      337.401        9.347      861.451
12/20/2014  14:02:00     -485.363     -140.125      -17.566      242.096      159.593       83.409    58610.453    25469.891     6957.134       17.326        4.552      505.185       88.957        0.031      337.461        9.447      861.437
12/20/2014  14:03:00     -539.287     -170.429      -24.860      172.606      136.005       89.608    29792.841    18497.290     8029.638       18.840        2.816      565.576       82.007        0.021      337.428        9.392      861.424
12/20/2014  14:04:00     -418.661     -159.952      -11.714      201.125      161.907       86.546    40451.391    26213.964     7490.232       13.756        3.708      448.176       99.381        0.049      337.466        9.454      861.431
12/20/2014  14:05:00     -621.991     -143.455      -32.838      227.699      215.381       99.166    51846.837    46389.187     9833.922       25.828        5.403      638.320       99.861        0.024      337.466        9.455      861.425
12/20/2014  14:06:00     -520.776     -151.353       -4.375      288.097      233.142      117.575    83000.027    54355.003    13823.796       22.263        7.559      542.324      132.310        0.060      337.488        9.492      861.432
12/20/2014  14:07:00     -445.211       18.851      -26.361      213.643      139.746       89.318    45643.175    19528.852     7977.709       13.619        3.657      445.610       85.101        0.036      337.533        9.567      861.402
12/20/2014  14:08:00     -364.860     -100.869      -10.829      192.864      154.656       87.703    37196.500    23918.417     7691.813       10.610        3.440      378.547       84.228        0.050      337.487        9.489      861.376
12/20/2014  14:09:00     -530.091      -90.882      -31.924      296.979      215.699      102.551    88196.441    46525.986    10516.746       21.773        7.262      537.825      122.576        0.052      337.466        9.456      861.336
12/20/2014  14:10:00     -352.475      -10.462      -24.451      145.606      140.935       75.080    21201.111    19862.634     5636.996        8.581        2.335      352.630       64.213        0.033      337.525        9.555      861.297
12/20/2014  14:11:00     -339.748       14.214      -15.922      199.767      169.836       88.916    39906.830    28844.376     7905.978        9.626        3.833      340.045       85.783        0.064      337.535        9.572      861.270
12/20/2014  14:12:00     -427.958     -189.961      -16.962      254.752      172.175       85.801    64898.547    29644.348     7361.845       16.069        5.095      468.223       98.979        0.045      337.462        9.449      861.248
12/20/2014  14:13:00     -437.107     -164.444      -13.181      230.754      179.780       95.496    53247.438    32320.945     9119.437       15.646        4.734      467.017       95.353        0.042      337.506        9.522      861.198
12/20/2014  14:14:00     -322.900       25.242      -13.463      198.003      200.685       94.661    39205.247    40274.506     8960.620        9.674        4.422      323.885       93.971        0.084      337.517        9.541      861.197
12/20/2014  14:15:00     -545.381      -73.137      -35.408      206.984      171.450       99.056    42842.489    29394.990     9812.017       19.303        4.102      550.263       99.620        0.033      337.412        9.366      861.163
12/20/2014  14:16:00     -512.150     -154.534      -26.933      222.503      190.363       77.327    49507.672    36238.106     5979.533       18.930        4.586      534.956       79.799        0.022      337.416        9.373      861.122
12/20/2014  14:17:00     -533.866      -90.071       -6.860      278.276      165.533      101.419    77437.646    27401.043    10285.757       20.413        5.756      541.410      105.603        0.038      337.426        9.388      861.121
12/20/2014  14:18:00     -665.809     -115.287      -31.987      268.696      183.843      113.978    72197.360    33798.317    12990.963       28.828        5.949      675.717      123.711        0.034      337.408        9.358      861.081
12/20/2014  14:19:00     -573.910     -220.173      -14.986      286.724      260.651      115.115    82210.832    67938.884    13251.409       27.070        8.170      614.694      130.089        0.045      337.440        9.411      861.011
12/20/2014  14:20:00     -357.880      -44.279       -1.233      253.997      165.140      103.508    64514.651    27271.330    10713.970       11.625        5.125      360.609      125.522        0.121      337.531        9.564      861.069
12/20/2014  14:21:00     -409.895      -91.955        2.409      230.961      179.393      100.337    53342.848    32181.695    10067.581       13.601        4.780      420.083      119.360        0.081      337.442        9.415      861.085
12/20/2014  14:22:00     -343.638      -32.172       -3.245      296.878      180.903      103.276    88136.399    32725.772    10665.941       12.530        6.576      345.141      125.587        0.132      337.463        9.450      861.019
12/20/2014  14:23:00     -545.254      -47.204      -45.431      198.747      188.702       94.753    39500.311    35608.545     8978.066       19.282        4.204      547.294       94.099        0.030      337.447        9.424      860.982
12/20/2014  14:24:00     -518.937     -121.551      -17.367      297.163      180.495      114.737    88306.014    32578.403    13164.519       20.918        6.702      532.983      141.324        0.070      337.436        9.404      861.025
12/20/2014  14:25:00     -419.040      -38.822       -1.987      240.623      157.308      104.312    57899.444    24745.686    10880.984       13.530        4.676      420.835      125.318        0.089      337.484        9.485      860.976
12/20/2014  14:26:00     -596.950      -96.757      -15.962      270.381      180.136      119.640    73105.780    32448.951    14313.800       24.289        5.993      604.740      143.854        0.057      337.414        9.370      861.015
12/20/2014  14:27:00     -253.358      -79.582        3.914      232.843      159.779      100.087    54215.752    25529.204    10017.477        8.013        4.488      265.563      114.563        0.186      337.446        9.422      860.950
12/20/2014  14:28:00     -264.701      -44.119      -16.378      213.519      140.413       73.031    45590.454    19715.769     5333.528        7.145        3.532      268.353       75.799        0.080      337.524        9.553      860.980
12/20/2014  14:29:00     -379.749      -87.733      -11.369      214.974      195.183       96.215    46214.030    38096.509     9257.391       12.278        4.678      389.751      108.257        0.077      337.497        9.508      860.970
12/20/2014  14:30:00     -458.642     -130.828      -34.641      192.594      203.051       98.680    37092.282    41229.558     9737.651       15.835        4.403      476.936       69.180        0.021      337.487        9.490      860.989
12/20/2014  14:31:00     -401.100     -113.136       -4.440      201.347      180.471       95.636    40540.685    32569.783     9146.335       12.796        4.113      416.751       86.207        0.043      337.506        9.524      861.047
12/20/2014  14:32:00     -489.940      -33.297      -44.169      328.093      187.218      104.870   107645.084    35050.628    10997.706       19.837        7.685      491.070      136.600        0.077      337.496        9.506      861.038
12/20/2014  14:33:00     -696.720       53.302      -53.632      231.142      237.780      111.039    53426.549    56539.188    12329.739       30.669        6.115      698.756      103.594        0.022      337.511        9.531      861.098
12/20/2014  14:34:00     -387.997      -80.582       -3.518      247.047      169.682       99.182    61032.449    28792.106     9837.032       12.833        4.983      396.276      116.395        0.086      337.610        9.697      861.196
12/20/2014  14:35:00     -639.802     -142.103      -36.251      288.746      199.291       98.880    83374.035    39717.100     9777.352       28.183        6.643      655.392       83.039        0.016      337.543        9.583      861.175
12/20/2014  14:36:00     -472.132      -51.409      -13.645      201.521      186.319       90.685    40610.588    34714.893     8223.838       15.463        4.177      474.923       98.186        0.043      337.569        9.629      861.143
12/20/2014  14:37:00     -656.927     -124.019      -32.613      308.473      284.399      119.894    95155.547    80883.072    14374.645       31.917        9.521      668.531      132.818        0.039      337.570        9.629      861.058
12/20/2014  14:38:00     -661.712     -123.135      -55.267      262.507      198.098       98.158    68909.987    39242.732     9634.957       28.691        5.889      673.071      110.338        0.027      337.536        9.572      861.066
12/20/2014  14:39:00     -388.656     -135.133       -2.619      209.717      173.022       90.704    43981.320    29936.581     8227.127       12.572        4.107      411.478       92.561        0.051      337.596        9.673      861.122
12/20/2014  14:40:00     -407.219      -79.463      -22.768      242.219      160.921      102.977    58670.247    25895.542    10604.268       13.390        4.759      414.899      102.135        0.061      337.658        9.777      861.136
12/20/2014  14:41:00     -523.956      -97.199      -28.584      191.756      196.421       92.724    36770.473    38581.160     8597.805       18.435        4.197      532.895       97.212        0.033      337.692        9.834      861.142
12/20/2014  14:42:00     -531.394     -155.268      -27.259      197.511      194.134      100.729    39010.514    37687.879    10146.343       19.702        4.342      553.613      103.189        0.035      337.722        9.887      861.157
12/20/2014  14:43:00     -572.132      -88.524      -25.190      181.713      266.365       97.845    33019.514    70950.056     9573.665       22.465        5.677      578.940       81.615        0.020      337.736        9.908      861.174
12/20/2014  14:44:00     -660.818       40.289      -61.374      264.265      173.743       94.658    69835.764    30186.614     8960.162       27.550        5.449      662.045      122.206        0.034      337.646        9.757      861.163
12/20/2014  14:45:00     -617.711     -127.024      -14.748      269.890      221.551      108.067    72840.471    49084.851    11678.501       26.574        6.680      630.636      121.273        0.037      337.639        9.745      861.149
12/20/2014  14:46:00     -565.226     -154.415      -30.266      203.006      170.844       88.183    41211.334    29187.534     7776.294       21.119        3.909      585.939       88.772        0.023      337.635        9.740      861.064
12/20/2014  14:47:00     -559.525     -183.085       -8.165      264.942      200.710      101.670    70194.145    40284.617    10336.786       23.371        6.041      588.717      117.176        0.040      337.567        9.624      861.035
12/20/2014  14:48:00     -271.693      -91.521       10.195      179.866      145.850       76.916    32351.786    21272.360     5916.136        7.091        2.977      286.694       74.037        0.067      337.654        9.772      861.041
12/20/2014  14:49:00     -331.581      -70.980        3.680      188.586      153.254       81.843    35564.598    23486.810     6698.206        9.036        3.287      339.093       86.161        0.065      337.701        9.850      861.027
12/20/2014  14:50:00     -528.607      -87.134      -42.916      218.997      153.675       95.035    47959.549    23616.128     9031.685       18.472        4.030      535.741       98.492        0.034      337.638        9.744      861.070
12/20/2014  14:51:00     -426.955     -217.736      -18.227      188.159      168.698       95.324    35403.802    28458.853     9086.715       15.148        3.647      479.270       87.018        0.033      337.624        9.719      861.015
12/20/2014  14:52:00     -491.330     -139.640      -33.834      203.943      173.476       95.069    41592.604    30093.789     9038.163       17.137        4.036      510.788       93.679        0.034      337.612        9.700      861.019
12/20/2014  14:53:00     -560.575     -156.814      -28.961      324.446      163.262      113.869   105265.192    26654.395    12966.149       24.225        7.244      582.095      141.357        0.059      337.585        9.655      860.958
12/20/2014  14:54:00     -578.375      -86.511      -19.566      206.569      152.092       89.713    42670.637    23131.992     8048.443       20.810        3.693      584.809       94.711        0.026      337.621        9.716      860.993
12/20/2014  14:55:00     -524.795     -151.477      -31.497      194.168      183.570       90.897    37701.063    33698.124     8262.291       18.949        3.983      546.219      101.348        0.034      337.682        9.817      861.069
12/20/2014  14:56:00     -473.525     -133.700      -23.146      229.535      172.553      107.976    52686.487    29774.553    11658.911       16.836        4.706      492.038      104.926        0.045      337.676        9.808      861.107
12/20/2014  14:57:00     -492.341     -194.240      -22.447      220.009      153.804       87.138    48403.888    23655.657     7593.014       18.013        3.983      529.272       85.086        0.026      337.725        9.891      861.159
12/20/2014  14:58:00     -463.763     -132.413      -23.563      260.331      189.654       98.634    67772.220    35968.461     9728.576       17.329        5.673      482.296      113.801        0.056      337.787        9.995      861.268
12/20/2014  14:59:00     -580.404     -192.284       -1.021      226.584      183.712      105.806    51340.313    33750.073    11194.931       23.504        4.814      611.426      126.979        0.043      337.779        9.978      861.298
12/20/2014  15:00:00     -391.576     -108.096       -3.050      213.662      156.531       90.448    45651.343    24501.986     8180.871       12.166        3.917      406.222       99.859        0.060      337.884       10.157      861.275
12/20/2014  15:01:00     -555.253     -153.307      -25.438      258.352      202.966       90.007    66745.969    41195.217     8101.218       22.423        5.802      576.029      107.806        0.035      337.878       10.145      861.303
12/20/2014  15:02:00     -443.608      -22.868      -36.903      183.428      138.651       96.296    33645.733    19224.093     9272.967       13.040        3.107      444.197       96.507        0.047      337.908       10.196      861.439
12/20/2014  15:03:00     -646.433      -42.855      -42.668      258.948      235.695      113.005    67053.976    55552.069    12770.188       27.843        6.769      647.852      125.826        0.038      337.811       10.034      861.490
12/20/2014  15:04:00     -530.927     -130.021      -35.652      188.137      222.047       92.746    35395.585    49304.860     8601.801       19.666        4.665      546.616       88.103        0.026      337.838       10.078      861.529
12/20/2014  15:05:00     -471.586     -136.413      -18.389      204.625      153.874       87.594    41871.281    23677.234     7672.687       15.727        3.661      490.920       84.776        0.030      337.895       10.174      861.504
12/20/2014  15:06:00     -468.135      -25.837      -15.831      246.288      218.922      100.456    60657.755    47926.624    10091.309       16.935        5.934      468.847      126.510        0.073      337.994       10.342      861.471
12/20/2014  15:07:00     -451.176     -151.650      -10.701      223.779      165.124       91.190    50077.199    27265.847     8315.596       15.615        4.283      475.981      100.268        0.044      338.025       10.394      861.521
12/20/2014  15:08:00     -555.397     -231.998      -16.069      235.516      235.297      106.723    55467.635    55364.801    11389.755       24.236        6.111      601.904      120.572        0.040      338.040       10.419      861.521
12/20/2014  15:09:00     -533.492      -98.456      -15.826      270.778      157.867      100.871    73320.935    24922.092    10175.018       20.147        5.421      542.501      133.293        0.060      338.057       10.446      861.587
12/20/2014  15:10:00     -458.626      -11.525      -30.167      225.588      152.905       80.429    50890.159    23379.938     6468.754       14.604        4.037      458.771       92.852        0.041      338.096       10.514      861.635
12/20/2014  15:11:00     -462.122      -80.989      -15.304      217.921      193.142       90.570    47489.603    37303.767     8202.959       15.665        4.650      469.165      102.842        0.048      337.997       10.345      861.637
12/20/2014  15:12:00     -441.149      -97.612      -22.319      183.064      166.397       87.841    33512.348    27688.026     7716.016       13.676        3.446      451.819       88.318        0.038      337.954       10.273      861.655
12/20/2014  15:13:00     -479.168     -108.137      -27.646      281.137      199.884      114.360    79038.002    39953.812    13078.236       18.704        6.604      491.219      137.656        0.079      337.887       10.159      861.601
12/20/2014  15:14:00     -328.206      -62.662      -15.631      191.476      130.285       78.953    36663.008    16974.093     6233.559        8.587        2.994      334.134       86.488        0.067      338.013       10.372      861.624
12/20/2014  15:15:00     -371.446      -98.775      -20.012      282.348      165.753      102.441    79720.370    27474.147    10494.155       13.289        5.884      384.355      125.667        0.107      337.952       10.270      861.592
12/20/2014  15:16:00     -273.353      -37.906        1.128      237.593      168.248       98.679    56450.539    28307.370     9737.528        8.531        4.725      275.969      110.549        0.160      338.033       10.408      861.563
12/20/2014  15:17:00     -417.895     -161.551       -9.667      287.862      222.996      111.673    82864.420    49727.329    12470.966       17.292        7.253      448.035      131.967        0.087      337.965       10.293      861.586
12/20/2014  15:18:00     -498.857     -102.224       -8.257      293.295      170.889      114.470    86021.777    29203.179    13103.290       19.383        6.416      509.223      144.477        0.080      337.903       10.187      861.587
12/20/2014  15:19:00     -479.001      -62.812        6.142      284.034      217.090      112.809    80675.590    47127.877    12725.903       18.695        7.026      483.102      113.033        0.055      337.911       10.203      861.541
12/20/2014  15:20:00     -622.761     -172.623      -21.247      318.700      231.310      113.985   101569.609    53504.484    12992.597       29.304        8.403      646.244      135.175        0.044      337.912       10.203      861.517
12/20/2014  15:21:00     -657.052     -121.112      -55.214      357.473      229.675      133.287   127786.856    52750.797    17765.538       32.383        9.915      668.121      144.553        0.047      337.966       10.294      861.525
12/20/2014  15:22:00     -522.998     -205.603       -4.738      317.404      265.277      135.650   100745.588    70372.130    18400.829       25.263        9.476      561.960      168.988        0.090      338.009       10.366      861.537
12/20/2014  15:23:00     -296.861      -69.906       26.017      266.330      171.091      107.441    70931.451    29272.017    11543.653       10.270        5.587      304.981      129.957        0.182      338.093       10.508      861.604
12/20/2014  15:24:00     -724.099     -343.856      -61.526      259.748      200.241      104.395    67468.888    40096.287    10898.365       38.238        5.923      801.596      101.770        0.016      338.063       10.457      861.620
12/20/2014  15:25:00     -562.979     -212.456      -13.867      403.567      270.570      129.134   162866.057    73207.881    16675.549       30.746       12.637      601.734      164.410        0.075      338.025       10.392      861.593
12/20/2014  15:26:00     -538.457     -169.198      -14.943      323.810      212.153      118.687   104853.172    45009.015    14086.651       24.134        8.197      564.415      143.227        0.064      338.077       10.480      861.643
12/20/2014  15:27:00     -536.765     -240.046      -42.209      276.847      224.999      108.224    76644.108    50624.671    11712.431       24.322        6.949      587.996       70.453        0.014      338.101       10.521      861.689
12/20/2014  15:28:00     -380.350     -201.370       -2.516      261.925      223.338      122.045    68604.870    49879.900    14895.040       15.927        6.669      430.367      139.556        0.105      338.141       10.587      861.704
12/20/2014  15:29:00     -429.884     -138.908      -25.538      228.111      176.882      108.646    52034.715    31287.206    11803.994       14.992        4.756      451.770      110.070        0.059      338.087       10.496      861.717
12/20/2014  15:30:00     -417.991      -28.201       -5.313      234.994      185.345      108.573    55222.228    34352.871    11788.194       13.843        5.068      418.941      117.028        0.078      338.078       10.482      861.712
12/20/2014  15:31:00     -435.617     -124.709       -5.474      211.340      205.502      105.774    44664.576    42231.032    11188.067       15.169        4.904      453.116      120.034        0.070      338.037       10.413      861.755
12/20/2014  15:32:00     -334.301      -25.859      -12.526      222.691      147.176       96.319    49591.256    21660.639     9277.431        9.654        4.026      335.300       97.783        0.085      338.102       10.522      861.810
12/20/2014  15:33:00     -519.856      -70.348      -39.237      213.500      193.637      105.432    45582.140    37495.249    11115.946       18.545        4.710      524.594      108.242        0.043      338.062       10.456      861.925
12/20/2014  15:34:00     -314.095      -24.714       -5.178      166.458      113.527       85.213    27708.285    12888.488     7261.238        7.357        2.393      315.066       83.949        0.071      338.104       10.525      861.945
12/20/2014  15:35:00     -425.044     -161.241      -20.778      234.022      225.170      100.139    54766.273    50701.347    10027.785       16.127        5.775      454.599      108.040        0.056      337.949       10.266      861.902
12/20/2014  15:36:00     -429.995      -28.253      -30.502      188.577      175.835       79.055    35561.466    30918.095     6249.755       12.966        3.636      430.922       71.402        0.027      337.989       10.332      861.828
12/20/2014  15:37:00     -335.377      -42.754       18.349      303.245      133.246       98.453    91957.358    17754.382     9693.025       11.700        5.970      338.091      135.933        0.162      337.994       10.344      861.719
12/20/2014  15:38:00     -473.054      -37.349      -14.755      258.916      145.525       90.390    67037.535    21177.530     8170.413       16.087        4.819      474.526      115.345        0.059      338.086       10.495      861.695
12/20/2014  15:39:00     -304.950      -87.643       -9.100      205.504      158.154       87.632    42232.000    25012.698     7679.421        8.783        3.746      317.294       87.069        0.075      338.077       10.481      861.683
12/20/2014  15:40:00     -500.794     -253.050      -10.724      182.222      165.857       97.075    33204.815    27508.555     9423.479       19.253        3.507      561.096       89.599        0.025      338.043       10.423      861.707
12/20/2014  15:41:00     -314.209      -91.034        5.975      199.009      154.645       78.852    39604.569    23914.988     6217.654        8.838        3.487      327.131       90.196        0.076      338.068       10.466      861.761
12/20/2014  15:42:00     -468.998     -113.497        3.410      227.534      175.608       89.897    51771.818    30838.096     8081.435       16.175        4.535      482.536       88.201        0.033      338.012       10.371      861.766
12/20/2014  15:43:00     -555.669        2.504      -32.426      201.337      169.744       97.236    40536.729    28812.993     9454.777       19.430        3.940      555.675      106.471        0.037      337.976       10.310      861.823
12/20/2014  15:44:00     -439.294      -75.747      -44.107      190.310      173.499       91.074    36217.990    30101.882     8294.520       13.762        3.731      445.777       90.102        0.041      337.929       10.230      861.822
12/20/2014  15:45:00     -454.747     -188.364       -8.552      304.269      202.488      105.319    92579.526    41001.477    11092.193       19.348        7.234      492.216      129.451        0.069      337.900       10.182      861.848
12/20/2014  15:46:00     -513.000     -182.538      -22.854      208.470      149.803       97.409    43459.598    22440.972     9488.488       18.619        3.769      544.508      102.440        0.035      337.895       10.173      861.918
12/20/2014  15:47:00     -332.052       22.070       -6.534      196.904      146.177       76.277    38771.210    21367.721     5818.118        8.836        3.298      332.785       90.154        0.073      338.000       10.352      861.951
12/20/2014  15:48:00     -480.343      -33.234      -27.051      215.791      159.573       93.500    46565.802    25463.528     8742.268       15.665        4.039      481.492       87.443        0.033      337.920       10.216      861.925
12/20/2014  15:49:00     -275.480        8.610       -6.540      223.029      130.782       88.039    49741.843    17104.033     7750.846        7.529        3.730      275.614      105.550        0.147      337.953       10.271      861.886
12/20/2014  15:50:00     -231.998      -88.097       -3.526      142.469      103.075       64.314    20297.525    10624.442     4136.334        4.832        1.753      248.162       62.742        0.064      337.930       10.234      861.838
12/20/2014  15:51:00     -408.991     -145.510       -7.702      179.600      135.929       67.703    32256.130    18476.659     4583.757       12.190        2.766      434.105       78.038        0.032      337.901       10.183      861.824
12/20/2014  15:52:00     -450.336      -12.308      -38.243      206.267      168.266       82.441    42546.039    28313.294     6796.504       14.102        3.883      450.505       95.800        0.045      338.013       10.371      861.815
12/20/2014  15:53:00     -499.800     -190.452      -10.070      228.404      164.335       96.533    52168.602    27006.051     9318.541       18.732        4.425      534.857      107.931        0.041      337.883       10.153      861.767
12/20/2014  15:54:00     -611.455     -197.712       -9.931      259.096      213.057      112.803    67130.962    45393.140    12724.427       26.913        6.262      642.625      121.728        0.036      337.925       10.225      861.698
12/20/2014  15:55:00     -366.512     -146.002      -11.578      179.414      161.391       88.617    32189.470    26047.110     7852.930       11.092        3.304      394.523       94.652        0.058      337.950       10.268      861.681
12/20/2014  15:56:00     -518.754       -8.323      -53.606      235.814      187.223       90.913    55608.055    35052.341     8265.249       18.547        4.946      518.821      103.602        0.040      337.958       10.281      861.643
12/20/2014  15:57:00     -631.190     -180.486      -23.959      227.370      220.912       99.493    51697.226    48802.172     9898.898       27.095        5.520      656.487      109.549        0.028      337.881       10.152      861.603
12/20/2014  15:58:00     -521.301     -166.239      -35.134      236.904      241.033      108.548    56123.407    58097.054    11782.716       21.329        6.300      547.165      106.615        0.038      337.842       10.087      861.569
12/20/2014  15:59:00     -509.736     -155.175      -22.044      173.076      143.653       90.665    29955.153    20636.153     8220.089       17.159        2.941      532.832       77.705        0.021      337.826       10.058      861.578
12/20/2014  16:00:00     -513.823     -179.415      -28.263      221.823      166.614       86.886    49205.538    27760.195     7549.208       19.074        4.226      544.246       91.169        0.028      337.783        9.986      861.630
12/20/2014  16:01:00     -269.489      -75.682       -0.136      179.845      146.784       78.115    32344.183    21545.412     6101.960        6.916        3.000      279.915       75.560        0.073      337.878       10.148      861.724
12/20/2014  16:02:00     -394.227     -132.930        1.133      201.318      172.959       82.971    40529.092    29914.741     6884.121       12.519        3.866      416.035       87.476        0.044      337.803       10.019      861.747
12/20/2014  16:03:00     -365.521     -134.050      -16.012      197.823      147.809       74.844    39133.811    21847.569     5601.688       10.919        3.329      389.326       74.955        0.037      337.834       10.074      861.731
12/20/2014  16:04:00     -225.242      -89.970       22.518      243.615      193.998      105.684    59348.444    37635.076    11169.005        8.372        5.408      242.546      120.999        0.249      337.916       10.211      861.736
12/20/2014  16:05:00     -402.087      -60.853       -7.761      167.006      129.702       86.263    27891.118    16822.712     7441.231       10.879        2.608      406.666       85.656        0.044      337.924       10.223      861.806
12/20/2014  16:06:00     -312.260      -37.780      -24.171      183.411      147.331       75.501    33639.609    21706.537     5700.355        8.027        3.052      314.537       82.717        0.069      338.034       10.409      861.834
12/20/2014  16:07:00     -442.954       94.890      -41.180      145.847      112.156       76.813    21271.407    12578.979     5900.214       12.332        1.988      453.004       74.524        0.027      338.070       10.468      861.881
12/20/2014  16:08:00     -326.595      -55.433      -34.486      179.570      130.412       78.211    32245.361    17007.372     6116.917        8.314        2.768      331.266       84.351        0.065      337.945       10.258      861.867
12/20/2014  16:09:00     -431.035      -42.014      -37.105      238.635      177.892       97.650    56946.881    31645.554     9535.475       14.351        4.906      433.077       86.410        0.040      337.948       10.263      861.885
12/20/2014  16:10:00     -503.022     -103.313      -27.291      194.155      171.792       93.558    37696.294    29512.565     8753.053       17.019        3.798      513.522       91.729        0.032      337.928       10.230      861.849
12/20/2014  16:11:00     -422.702       -0.293      -29.382      149.516      128.831       72.907    22355.146    16597.436     5315.385       11.190        2.213      422.702       73.344        0.030      337.984       10.324      861.858
12/20/2014  16:12:00     -443.425      -53.634      -46.427      174.673      181.102       74.459    30510.754    32797.862     5544.168       13.524        3.443      446.657       81.242        0.033      337.889       10.163      861.842
12/20/2014  16:13:00     -505.754      -84.541      -32.163      203.509      146.403       94.717    41415.919    21433.826     8971.287       16.788        3.591      512.771       93.928        0.034      337.796       10.008      861.846
12/20/2014  16:14:00     -522.689     -157.290      -22.020      244.995      162.674       97.979    60022.443    26462.886     9599.973       19.724        4.804      545.842      116.512        0.046      337.793       10.004      861.847
12/20/2014  16:15:00     -468.334      -38.456      -24.237      206.560      180.917       93.756    42667.138    32730.997     8790.182       15.278        4.209      469.911       95.909        0.042      337.838       10.079      861.885
12/20/2014  16:16:00     -462.435     -159.219      -30.777      215.186      156.798       88.672    46304.883    24585.602     7862.717       15.943        3.938      489.078       97.956        0.040      337.745        9.923      861.885
12/20/2014  16:17:00     -489.999     -177.028      -44.885      238.759      170.073       99.359    57005.658    28924.917     9872.203       18.461        4.790      520.997      106.821        0.042      337.747        9.928      861.832
12/20/2014  16:18:00     -513.966       43.087      -51.734      220.365      199.844       86.514    48560.884    39937.815     7484.751       18.232        4.799      515.769      100.505        0.038      337.927       10.227      861.865
12/20/2014  16:19:00     -545.339      -59.210      -35.138      216.127      177.266       85.653    46710.896    31423.375     7336.482       19.379        4.274      548.544       99.413        0.033      337.886       10.158      861.876
12/20/2014  16:20:00     -457.461     -115.789      -31.806      203.106      190.448       98.223    41252.041    36270.575     9647.698       15.541        4.359      471.888       85.390        0.033      337.891       10.168      861.900
12/20/2014  16:21:00     -492.017     -150.308      -39.027      193.684      143.463       75.894    37513.668    20581.732     5759.909       16.501        3.193      514.464       81.241        0.025      337.862       10.119      861.863
12/20/2014  16:22:00     -580.198     -217.608      -26.515      206.069      172.200       94.369    42464.537    29652.950     8905.560       23.284        4.051      619.664      102.636        0.027      337.827       10.060      861.863
12/20/2014  16:23:00     -417.712     -137.553      -18.384      263.382      180.672       94.179    69370.179    32642.369     8869.770       15.229        5.544      439.777       96.750        0.048      337.747        9.929      861.836
12/20/2014  16:24:00     -347.829      -76.744      -25.310      152.692      177.781       82.953    23314.752    31606.212     6881.178        9.465        3.090      356.195       73.356        0.042      337.776        9.974      861.873
12/20/2014  16:25:00     -256.523      -34.297        2.465      244.301      158.095      101.711    59683.014    24994.149    10345.105        8.099        4.751      258.805      126.305        0.238      337.798       10.012      861.846
12/20/2014  16:26:00     -382.028     -214.971      -12.353      215.913      186.476      104.549    46618.218    34773.343    10930.446       14.230        4.616      438.359      101.720        0.054      337.701        9.850      861.845
12/20/2014  16:27:00     -414.969      -15.639      -24.833      222.294      201.831       87.047    49414.535    40735.912     7577.117       13.537        4.886      415.263       67.865        0.027      337.745        9.925      861.850
12/20/2014  16:28:00     -291.176      -36.697      -22.016      200.037      148.696       90.437    40014.786    22110.588     8178.817        7.845        3.515      293.479       93.595        0.102      337.729        9.897      861.864
12/20/2014  16:29:00     -474.290     -164.569      -30.395      309.957      143.348       87.303    96073.447    20548.693     7621.748       18.858        6.212      502.030      106.099        0.045      337.706        9.859      861.878
12/20/2014  16:30:00     -432.157     -123.878      -34.865      224.238      135.709       78.238    50282.812    18416.875     6121.171       13.906        3.741      449.562       46.537        0.011      337.732        9.901      861.932
12/20/2014  16:31:00     -446.070     -153.466      -35.490      210.970      159.699       81.787    44508.403    25503.695     6689.065       15.023        3.835      471.732       61.081        0.017      337.725        9.891      861.941
12/20/2014  16:32:00     -388.960     -164.759       -8.294      139.258      128.437       79.434    19392.860    16495.955     6309.693       11.034        2.110      422.416       64.451        0.023      337.759        9.947      861.952
12/20/2014  16:33:00     -288.683       26.976      -10.391      222.667      108.618       82.510    49580.811    11797.856     6807.903        7.617        3.409      289.940      110.758        0.146      337.821       10.052      861.989
12/20/2014  16:34:00     -406.739      -63.054      -52.115      144.945      128.303       77.023    21008.981    16461.604     5932.592       10.776        2.170      411.597       76.523        0.035      337.729        9.896      861.963
12/20/2014  16:35:00     -362.808      -97.556      -27.168      181.411      132.437       78.910    32909.947    17539.647     6226.849        9.927        2.834      375.695       74.806        0.040      337.775        9.974      861.941
12/20/2014  16:36:00     -367.778       10.791      -25.032      189.479      154.744       87.476    35902.154    23945.651     7652.039       10.174        3.375      367.936       94.808        0.066      337.837       10.078      861.956
12/20/2014  16:37:00     -409.838     -104.489      -33.889      190.019      127.954       71.784    36107.270    16372.269     5152.871       11.882        2.882      422.948       82.710        0.038      337.750        9.932      861.976
12/20/2014  16:38:00     -421.335      -98.621      -47.601      147.176      133.365       76.199    21660.694    17786.216     5806.349       11.738        2.263      432.723       56.370        0.017      337.727        9.892      861.936
12/20/2014  16:39:00     -442.712      -34.206      -58.589      145.644      147.094       61.534    21212.144    21636.542     3786.377       12.361        2.332      444.031       53.236        0.014      337.665        9.789      861.945
12/20/2014  16:40:00     -355.268      -14.738      -17.260      224.175      145.329       86.986    50254.621    21120.497     7566.574       10.282        3.947      355.573      123.802        0.121      337.708        9.862      861.918
12/20/2014  16:41:00     -450.897      -75.860      -43.174      144.102      131.738       82.062    20765.482    17354.865     6734.186       12.788        2.243      457.234       70.389        0.024      337.677        9.809      861.919
12/20/2014  16:42:00     -453.340     -111.597      -45.846      138.114      149.443       76.335    19075.446    22333.136     5827.103       13.364        2.362      466.874       66.105        0.020      337.751        9.933      861.975
12/20/2014  16:43:00     -385.229     -114.352      -22.589      154.975      155.480       80.432    24017.152    24173.892     6469.248       10.831        2.733      401.843       69.129        0.030      337.728        9.895      862.005
12/20/2014  16:44:00     -540.267      -80.037      -12.222      226.006      194.023      105.630    51078.504    37644.906    11157.679       19.914        4.994      546.163      109.031        0.040      337.719        9.880      862.043
12/20/2014  16:45:00     -536.780      -71.677      -49.090      203.396      150.122       93.145    41369.974    22536.511     8675.999       18.412        3.629      541.545      101.113        0.035      337.718        9.879      862.038
12/20/2014  16:46:00     -554.541      -62.421      -38.651      230.254      183.917       99.664    53017.039    33825.383     9932.835       20.482        4.839      558.043      108.206        0.038      337.650        9.764      862.046
12/20/2014  16:47:00     -459.004      -32.988      -58.344      172.516      132.979       81.335    29761.715    17683.534     6615.442       13.461        2.703      460.188       75.490        0.027      337.630        9.731      862.021
12/20/2014  16:48:00     -329.561     -129.186       -7.482      196.073      135.947       88.345    38444.691    18481.465     7804.768        9.503        3.237      353.977      101.467        0.082      337.611        9.700      862.001
12/20/2014  16:49:00     -492.309     -161.643      -35.698      195.048      208.815      104.408    38043.719    43603.788    10901.047       18.114        4.627      518.167       84.937        0.027      337.654        9.771      862.035
12/20/2014  16:50:00     -644.539     -110.975      -38.662      183.663      173.931       96.430    33732.065    30252.002     9298.812       25.125        3.664      654.023       86.989        0.018      337.605        9.687      862.096
12/20/2014  16:51:00     -497.679       25.257      -31.792      198.107      195.764       88.562    39246.578    38323.606     7843.288       16.736        4.271      498.319       89.076        0.032      337.635        9.739      862.183
12/20/2014  16:52:00     -395.509      -79.822      -27.919      179.708      158.948       85.942    32294.865    25264.399     7385.965       11.425        3.247      403.484       77.778        0.037      337.668        9.794      862.208
12/20/2014  16:53:00     -476.823      -64.070      -33.873      237.375      245.924       94.443    56347.098    60478.517     8919.415       17.915        6.287      481.108      105.004        0.048      337.633        9.734      862.221
12/20/2014  16:54:00     -534.415      -87.197      -31.752      216.288      207.736      109.994    46780.671    43154.359    12098.680       19.810        5.102      541.482      119.825        0.049      337.645        9.757      862.216
12/20/2014  16:55:00     -514.560        0.241      -37.574      152.913      154.398       87.082    23382.291    23838.700     7583.326       16.048        2.740      514.560       83.874        0.027      337.715        9.873      862.250
12/20/2014  16:56:00     -350.045        4.398      -25.079      201.664      150.522       87.607    40668.412    22656.972     7674.993        9.708        3.550      350.073       92.300        0.070      337.732        9.902      862.291
12/20/2014  16:57:00     -439.366      -46.787      -31.378      148.356      154.048       68.165    22009.360    23730.804     4646.476       12.329        2.519      441.850       54.582        0.015      337.696        9.841      862.342
12/20/2014  16:58:00     -393.438     -121.409        3.758      204.674      142.122       96.582    41891.312    20198.698     9328.145       12.047        3.571      411.745      100.271        0.059      337.697        9.843      862.335
12/20/2014  16:59:00     -310.716      -91.567      -10.480      127.042      130.994       71.037    16139.560    17159.431     5046.193        7.168        1.917      323.928       60.237        0.035      337.690        9.831      862.375
12/20/2014  17:00:00     -286.937      -76.527       -5.088      189.921      147.427       78.988    36070.020    21734.782     6239.148        7.612        3.202      296.967       80.637        0.074      337.691        9.833      862.402
12/20/2014  17:01:00     -359.986      -93.060      -16.680      121.711      160.848       63.594    14813.477    25872.072     4044.195        9.162        2.236      371.820       51.047        0.019      337.690        9.832      862.468
12/20/2014  17:02:00     -403.743      -44.510      -27.164      204.125      160.897       85.367    41666.996    25887.840     7287.599       12.027        3.742      406.189      104.942        0.067      337.665        9.790      862.506
12/20/2014  17:03:00     -541.019     -175.805      -31.253      182.560      191.144       88.764    33328.260    36536.190     7879.116       20.115        3.887      568.866       85.195        0.022      337.620        9.714      862.545
12/20/2014  17:04:00     -396.237      -58.681      -29.736      199.572      145.075       80.238    39828.874    21046.875     6438.185       11.431        3.366      400.558      101.890        0.065      337.666        9.790      862.579
12/20/2014  17:05:00     -448.083      -25.926      -46.352      162.910      147.455       83.395    26539.805    21742.849     6954.688       12.941        2.762      448.833       66.993        0.022      337.642        9.752      862.622
12/20/2014  17:06:00     -414.992     -104.495      -28.163      167.756      150.309       81.232    28141.924    22592.780     6598.622       12.062        2.867      427.945       87.879        0.042      337.636        9.741      862.615
12/20/2014  17:07:00     -320.695      -81.685      -16.676      156.516      119.605       70.247    24497.309    14305.471     4934.593        7.676        2.187      330.935       78.920        0.057      337.625        9.722      862.626
12/20/2014  17:08:00     -428.533      -67.108      -27.730      239.644      141.663       83.922    57429.143    20068.373     7042.985       13.671        4.227      433.756      107.054        0.061      337.654        9.769      862.556
12/20/2014  17:09:00     -435.638     -143.331      -16.779      170.508      162.761       82.250    29073.037    26491.170     6765.071       13.646        3.116      458.611       85.402        0.035      337.641        9.750      862.549
12/20/2014  17:10:00     -341.213      -74.191      -18.498      174.101      114.174       67.345    30311.080    13035.618     4535.378        8.507        2.394      349.186       67.831        0.038      337.627        9.725      862.551
12/20/2014  17:11:00     -271.436      -82.008        5.165      144.204      126.938       79.741    20794.818    16113.296     6358.601        6.184        2.163      283.554       67.642        0.057      337.662        9.785      862.539
12/20/2014  17:12:00     -325.641      -80.601      -13.995      219.615      161.549       92.644    48230.845    26098.009     8582.916        9.781        4.146      335.468       92.616        0.076      337.732        9.902      862.514
12/20/2014  17:13:00     -473.544      -38.796      -42.752      258.336      168.484      102.230    66737.398    28386.897    10451.052       16.655        5.279      475.130      110.777        0.054      337.747        9.927      862.525
12/20/2014  17:14:00     -485.975     -109.732      -11.622      209.156      139.056       91.163    43746.033    19336.643     8310.752       15.986        3.570      498.209       96.344        0.037      337.677        9.811      862.527
12/20/2014  17:15:00     -562.006      -53.735      -60.425      174.544      153.929       91.336    30465.521    23694.260     8342.275       19.243        3.125      564.569       84.182        0.022      337.734        9.905      862.547
12/20/2014  17:16:00     -332.975     -213.192      -11.799      236.465      151.771      102.871    55915.804    23034.526    10582.412       12.298        4.477      395.377      106.517        0.073      337.666        9.791      862.539
12/20/2014  17:17:00     -504.358     -123.267       -7.584      214.806      174.068       96.204    46141.750    30299.783     9255.145       17.765        4.285      519.203      102.908        0.039      337.681        9.815      862.555
12/20/2014  17:18:00     -492.375     -109.459      -26.217      203.197      153.449       79.711    41289.002    23546.594     6353.814       16.313        3.559      504.395       92.014        0.033      337.685        9.823      862.526
12/20/2014  17:19:00     -486.104       -9.180      -19.321      183.210      155.561       83.071    33566.055    24199.288     6900.716       15.070        3.233      486.191       88.455        0.033      337.743        9.919      862.514
12/20/2014  17:20:00     -394.131      -44.976      -37.226      193.519      150.890       78.360    37449.647    22767.783     6140.223       11.254        3.318      396.689       82.634        0.043      337.723        9.887      862.483
12/20/2014  17:21:00     -532.736     -141.613      -24.675      171.200      135.302       73.456    29309.576    18306.679     5395.769       17.873        2.651      551.236       67.399        0.015      337.657        9.778      862.447
12/20/2014  17:22:00     -458.483     -116.521      -16.664      209.629      155.681       93.956    43944.391    24236.699     8827.816       15.052        3.850      473.058      104.138        0.048      337.649        9.763      862.414
12/20/2014  17:23:00     -434.722      -82.114      -28.129      185.043      126.300       76.985    34240.974    15951.753     5926.660       12.631        2.806      442.409       77.950        0.031      337.743        9.920      862.443
12/20/2014  17:24:00     -434.702        6.862      -52.538      154.583      141.018       68.549    23895.844    19886.020     4699.033       12.012        2.424      434.756       65.484        0.023      337.783        9.985      862.478
12/20/2014  17:25:00     -427.641      -71.612      -31.374      136.764      118.790       65.260    18704.303    14111.023     4258.821       11.302        1.854      433.595       49.001        0.013      337.692        9.833      862.510
12/20/2014  17:26:00     -273.889     -141.817       -4.015      217.548      158.953       86.942    47327.165    25265.927     7558.870        8.763        4.008      308.427      114.282        0.137      337.647        9.760      862.536
12/20/2014  17:27:00     -433.833      -29.415      -25.545      249.253      143.108       87.689    62127.232    20479.943     7689.297       13.999        4.515      434.829      116.314        0.072      337.707        9.860      862.531
12/20/2014  17:28:00     -430.619     -115.921      -24.368      212.399      149.297       95.484    45113.347    22289.466     9117.165       13.798        3.826      445.949      107.319        0.058      337.702        9.851      862.517
12/20/2014  17:29:00     -351.776      -38.559      -19.280      161.066      147.570       90.898    25942.363    21776.859     8262.471        9.078        2.799      353.882       78.851        0.050      337.738        9.914      862.486
12/20/2014  17:30:00     -384.374     -156.206      -16.940      206.357      198.158      109.128    42583.059    39266.411    11908.854       13.308        4.688      414.902      109.121        0.069      337.770        9.966      862.492
12/20/2014  17:31:00     -565.584     -141.344       -2.624      245.774      191.054      106.705    60404.763    36501.711    11385.906       22.406        5.415      582.978      100.485        0.030      337.797       10.010      862.533
12/20/2014  17:32:00     -505.219      -65.662      -33.545      165.030      131.394       83.755    27234.742    17264.343     7014.922       15.609        2.576      509.468       86.325        0.029      337.784        9.988      862.558
12/20/2014  17:33:00     -524.337     -135.254       -2.263      220.104      178.105       90.259    48445.878    31721.371     8146.654       19.075        4.416      541.501       98.416        0.033      337.747        9.928      862.554
12/20/2014  17:34:00     -384.116      -69.396      -25.648      221.215      157.386       90.692    48936.286    24770.449     8225.111       11.746        4.097      390.334      105.636        0.073      337.774        9.973      862.519
12/20/2014  17:35:00     -582.155      -51.796      -47.103      159.276      156.770       85.187    25368.864    24576.862     7256.836       20.049        2.860      584.454       78.186        0.018      337.809       10.030      862.508
12/20/2014  17:36:00     -633.974      -61.038      -55.732      240.068      211.590       94.746    57632.433    44770.178     8976.735       26.004        5.569      636.905      110.558        0.030      337.852       10.104      862.497
12/20/2014  17:37:00     -621.852        8.237      -53.211      196.053      175.752       98.153    38436.593    30888.736     9633.968       23.426        3.948      621.907      102.611        0.027      337.840       10.082      862.528
12/20/2014  17:38:00     -502.829      -71.811      -43.154      171.951      213.613       86.086    29567.005    45630.628     7410.854       17.122        4.130      507.931       77.206        0.023      337.840       10.082      862.539
12/20/2014  17:39:00     -477.597      -98.919      -23.375      165.164      140.830       88.650    27279.251    19832.968     7858.746       14.669        2.749      487.733       75.406        0.024      337.763        9.954      862.543
12/20/2014  17:40:00     -494.982       -1.908      -47.144      167.858      163.937       81.103    28176.358    26875.435     6577.728       15.442        3.081      494.986       82.690        0.028      337.852       10.102      862.538
12/20/2014  17:41:00     -519.015     -172.174      -30.901      184.105      137.021       87.209    33894.587    18774.826     7605.331       18.011        3.014      546.827       98.596        0.033      337.770        9.965      862.525
12/20/2014  17:42:00     -529.973      -69.712      -66.622      250.019      181.238      104.334    62509.335    32847.082    10885.535       19.818        5.312      534.538      124.341        0.054      337.767        9.961      862.544
12/20/2014  17:43:00     -522.124      -64.648      -49.140      191.829      179.152       81.410    36798.230    32095.481     6627.583       17.735        3.776      526.111       91.864        0.030      337.747        9.928      862.559
12/20/2014  17:44:00     -442.167     -117.152      -36.572      213.088      124.120       86.136    45406.291    15405.767     7419.436       13.939        3.412      457.423       98.264        0.046      337.730        9.899      862.572
12/20/2014  17:45:00     -505.841      -44.216      -61.842      180.477      158.384       84.195    32571.931    25085.644     7088.844       16.319        3.237      507.770       78.804        0.024      337.748        9.930      862.580
12/20/2014  17:46:00     -466.544     -157.624      -31.082      165.431      153.953       92.587    27367.482    23701.470     8572.402       15.155        2.982      492.451       76.388        0.024      337.731        9.899      862.602
12/20/2014  17:47:00     -374.967      -46.489      -38.716      165.300      144.015       64.598    27324.090    20740.450     4172.961        9.824        2.612      377.838       50.872        0.018      337.762        9.951      862.630
12/20/2014  17:48:00     -271.742      -71.200      -12.470      150.342      158.139       69.713    22602.815    25007.789     4859.957        6.576        2.624      280.915       76.927        0.075      337.774        9.972      862.661
12/20/2014  17:49:00     -315.527      -90.742      -27.161      131.678      114.349       59.766    17339.099    13075.741     3571.994        7.125        1.699      328.316       33.944        0.011      337.742        9.920      862.718
12/20/2014  17:50:00     -428.843     -153.631      -38.780      133.193      123.586       62.815    17740.389    15273.386     3945.670       12.298        1.848      455.531       52.859        0.013      337.742        9.919      862.733
12/20/2014  17:51:00     -378.547        7.764      -20.958      244.663      166.847       87.533    59860.216    27838.024     7661.954       11.956        4.768      378.627      102.924        0.074      337.812       10.037      862.738
12/20/2014  17:52:00     -370.628     -138.155      -43.430      162.914      121.274       67.352    26540.856    14707.436     4536.269       10.205        2.289      395.540       46.757        0.014      337.772        9.968      862.808
12/20/2014  17:53:00     -368.572        0.631      -28.991      163.868      170.461       80.025    26852.860    29056.867     6404.016        9.949        3.116      368.573       62.128        0.028      337.839       10.080      862.856
12/20/2014  17:54:00     -400.425        9.038      -60.153      174.060      133.296       58.011    30296.850    17767.796     3365.328       10.772        2.571      400.527       63.693        0.025      337.814       10.039      862.866
12/20/2014  17:55:00     -408.791      -99.218      -47.196      127.741       92.313       59.609    16317.706     8521.623     3553.273       10.378        1.420      420.659       53.967        0.016      337.756        9.940      862.843
12/20/2014  17:56:00     -277.145      -22.037      -10.982      179.718      112.716       94.666    32298.536    12704.853     8961.590        6.568        2.698      278.020       86.146        0.096      337.805       10.025      862.774
12/20/2014  17:57:00     -190.035      -62.094      -19.820      185.586       89.236       66.414    34441.981     7963.084     4410.808        4.358        2.341      199.923       86.734        0.188      337.781        9.985      862.739
12/20/2014  17:58:00     -307.421      -67.486      -17.704      111.162       70.139       42.422    12356.922     4919.415     1799.637        5.922        0.954      314.741       22.710        0.005      337.743        9.920      862.755
12/20/2014  17:59:00     -427.113       30.753      -36.484      234.935      137.599       69.814    55194.389    18933.465     4873.939       13.184        3.950      428.219       89.118        0.043      337.820       10.050      862.700
12/20/2014  18:00:00     -298.189      -91.526      -18.361      152.903      126.265       79.787    23379.386    15942.780     6366.007        7.165        2.284      311.919       75.395        0.058      337.782        9.986      862.671
12/20/2014  18:01:00     -344.759      -99.433      -31.663      150.762      126.998       66.831    22729.102    16128.551     4466.359        8.653        2.166      358.812       75.195        0.044      337.809       10.029      862.599
12/20/2014  18:02:00     -326.780     -116.188      -45.801      110.554      152.411       68.209    12222.165    23229.263     4652.495        8.124        2.005      346.821       37.180        0.011      337.785        9.990      862.548
12/20/2014  18:03:00     -376.163     -127.351      -37.385      139.595      140.325       64.167    19486.746    19691.063     4117.355       10.120        2.165      397.136       66.864        0.028      337.874       10.139      862.510
12/20/2014  18:04:00     -354.698      -56.322      -18.097      206.128      174.731       78.526    42488.574    30530.897     6166.308       10.423        3.959      359.142       94.659        0.069      337.796       10.009      862.504
12/20/2014  18:05:00     -444.000     -129.372       -8.768      178.675      156.491       94.381    31924.882    24489.356     8907.687       13.962        3.266      462.464       83.159        0.032      337.800       10.015      862.520
12/20/2014  18:06:00     -368.622      -80.876      -29.019      157.436      118.618       64.391    24785.975    14070.248     4146.225        9.313        2.150      377.389       73.470        0.038      337.796       10.009      862.540
12/20/2014  18:07:00     -421.356     -153.430      -15.400      159.952      145.094       81.161    25584.490    21052.174     6587.116       12.726        2.661      448.421       87.555        0.038      337.754        9.939      862.577
12/20/2014  18:08:00     -458.380       35.157      -41.057      133.379      143.257       76.664    17789.868    20522.630     5877.331       12.860        2.209      459.727       74.748        0.026      337.834       10.073      862.588
12/20/2014  18:09:00     -493.967      -84.762      -38.487      229.852      194.608       87.949    52832.155    37872.216     7734.963       17.553        4.922      501.187       71.905        0.021      337.825       10.057      862.597
12/20/2014  18:10:00     -279.229     -120.535       -7.662      151.468      134.596       69.403    22942.703    18116.142     4816.759        6.921        2.294      304.134       69.414        0.052      337.839       10.082      862.682
12/20/2014  18:11:00     -519.921     -104.757      -31.533      193.307      170.146       90.054    37367.716    28949.720     8109.697       17.834        3.721      530.369       85.203        0.026      337.804       10.022      862.711
12/20/2014  18:12:00     -470.660      -61.165      -28.263      186.061      153.362       76.716    34618.741    23520.025     5885.381       14.503        3.201      474.618       82.174        0.030      337.865       10.123      862.702
12/20/2014  18:13:00     -475.698     -139.589      -61.713      166.105      183.333       88.168    27590.862    33611.045     7773.615       15.926        3.449      495.755       80.221        0.026      337.842       10.086      862.681
12/20/2014  18:14:00     -501.939      -46.353      -45.038      148.499      139.114       75.364    22051.834    19352.796     5679.775       15.159        2.354      504.075       75.815        0.023      337.909       10.198      862.684
12/20/2014  18:15:00     -326.753     -175.172       -8.740      155.899      107.677       69.777    24304.514    11594.354     4868.855        8.914        2.038      370.746       65.955        0.032      337.828       10.062      862.652
12/20/2014  18:16:00     -378.990     -178.205      -24.045      143.388      154.671       78.715    20560.181    23923.152     6196.022       11.331        2.534      418.797       57.442        0.019      337.818       10.044      862.653
12/20/2014  18:17:00     -348.527     -118.293      -19.821      152.927      148.706       69.153    23386.594    22113.538     4782.144        9.306        2.514      368.055       59.218        0.026      337.862       10.118      862.599
12/20/2014  18:18:00     -334.284     -176.067       -7.109      206.892      196.870       88.920    42804.116    38757.699     7906.824       11.611        4.473      377.817      104.450        0.076      337.836       10.074      862.534
12/20/2014  18:19:00     -391.642     -126.088      -35.399      183.033      154.476       82.801    33500.977    23862.715     6855.988       11.736        3.211      411.438       94.215        0.052      337.872       10.134      862.560
12/20/2014  18:20:00     -404.607      -66.068      -20.930      262.199      138.337       87.759    68748.338    19137.250     7701.594       13.203        4.779      409.966      123.508        0.091      337.900       10.183      862.585
12/20/2014  18:21:00     -426.984     -166.328      -13.771      195.743      154.057       84.627    38315.286    23733.489     7161.646       13.968        3.461      458.236       81.523        0.032      337.903       10.188      862.608
12/20/2014  18:22:00     -320.516     -130.670        0.911      183.336      164.812      103.407    33611.981    27162.857    10693.111        9.562        3.573      346.128       98.167        0.080      337.907       10.195      862.615
12/20/2014  18:23:00     -369.512       13.079      -32.000      195.252      124.409       75.551    38123.446    15477.526     5707.957        9.851        2.965      369.744       85.327        0.053      337.971       10.301      862.602
12/20/2014  18:24:00     -344.324      -98.593      -19.738      136.039      143.573       62.268    18506.613    20613.147     3877.274        8.582        2.150      358.161       58.641        0.027      337.858       10.111      862.578
12/20/2014  18:25:00     -436.168     -132.436      -26.419      188.408      138.802       92.278    35497.724    19266.014     8515.269       13.587        3.164      455.831       91.364        0.040      337.834       10.071      862.599
12/20/2014  18:26:00     -414.759      -73.752      -37.957      228.711      156.423       78.404    52308.511    24468.114     6147.146       13.090        4.146      421.265       85.081        0.041      337.820       10.048      862.588
12/20/2014  18:27:00     -293.513      -79.258        2.958      242.608      131.161       81.081    58858.815    17203.173     6574.082        8.752        4.132      304.025      108.094        0.126      337.825       10.059      862.502
12/20/2014  18:28:00     -325.277      -73.196      -15.551      152.774      140.868       73.611    23339.870    19843.791     5418.633        7.999        2.430      333.411       68.224        0.042      337.805       10.025      862.507
12/20/2014  18:29:00     -423.495      -63.823      -47.091      164.209      160.426       72.786    26964.639    25736.376     5297.838       12.181        2.900      428.277       73.954        0.030      337.821       10.051      862.444
12/20/2014  18:30:00     -387.017     -163.071      -21.988      191.355      157.903       84.133    36616.703    24933.231     7078.329       12.273        3.431      419.970       62.922        0.022      337.748        9.929      862.431
12/20/2014  18:31:00     -500.379     -199.728      -16.152      217.873      164.927       86.026    47468.439    27200.892     7400.544       18.628        4.103      538.767       85.438        0.025      337.782        9.984      862.488
12/20/2014  18:32:00     -486.490     -186.988      -23.676      195.486      125.902       80.735    38214.798    15851.398     6518.069       16.638        3.029      521.188       91.173        0.031      337.793       10.003      862.566
12/20/2014  18:33:00     -505.634     -117.649      -16.269      263.445      183.488       86.489    69403.192    33667.708     7480.366       19.014        5.528      519.140       96.866        0.035      337.830       10.065      862.586
12/20/2014  18:34:00     -404.377     -126.970      -13.132      214.868      139.547       81.733    46168.375    19473.415     6680.323       12.605        3.616      423.842       91.293        0.046      337.848       10.095      862.640
12/20/2014  18:35:00     -423.036     -137.680      -12.066      184.582      129.804       77.791    34070.658    16849.133     6051.511       12.750        2.849      444.877       79.123        0.032      337.867       10.127      862.674
12/20/2014  18:36:00     -372.145     -158.635      -37.373      132.011      131.483       68.554    17426.925    17287.661     4699.716       10.223        1.971      404.545       53.846        0.018      337.870       10.131      862.685
12/20/2014  18:37:00     -361.478     -104.747      -31.595      176.786      114.289       61.072    31253.337    13062.063     3729.747        9.533        2.402      376.349       64.032        0.029      337.892       10.170      862.685
12/20/2014  18:38:00     -365.145      -54.577      -13.031      187.160      141.336       79.355    35028.898    19975.739     6297.210        9.888        3.065      369.201       84.214        0.052      337.884       10.158      862.714
12/20/2014  18:39:00     -387.707       36.343      -31.312      168.983      168.216       70.372    28555.413    28296.679     4952.212       10.720        3.090      389.407       83.552        0.046      337.887       10.161      862.749
12/20/2014  18:40:00     -244.848     -126.937        3.120      145.802      116.236       76.987    21258.368    13510.913     5926.928        5.838        2.035      275.796       82.566        0.090      337.876       10.143      862.756
12/20/2014  18:41:00     -556.277     -116.624      -62.970      155.664      152.655       68.632    24231.374    23303.576     4710.403       18.962        2.612      568.371       36.529        0.004      337.938       10.245      862.778
12/20/2014  18:42:00     -505.476      -95.325      -33.998      205.392      171.293       78.095    42185.889    29341.335     6098.888       17.167        3.881      514.386       86.948        0.029      338.036       10.412      862.804
12/20/2014  18:43:00     -417.031     -135.685      -21.371      187.181      129.509       87.980    35036.897    16772.493     7740.412       12.615        2.977      438.549       96.664        0.049      337.961       10.285      862.828
12/20/2014  18:44:00     -357.673      -38.194      -20.935      149.866      138.628       82.342    22459.886    19217.671     6780.141        8.913        2.423      359.706       76.360        0.045      338.013       10.373      862.845
12/20/2014  18:45:00     -354.121      -80.633      -17.812      162.518      144.660       72.485    26411.946    20926.383     5254.009        9.240        2.630      363.186       78.968        0.047      337.976       10.309      862.859
12/20/2014  18:46:00     -342.037     -111.997      -14.517      131.525      105.111       64.299    17298.759    11048.293     4134.367        8.111        1.624      359.906       67.942        0.036      337.993       10.339      862.870
12/20/2014  18:47:00     -212.961       11.197        5.781      172.761       96.094       62.950    29846.335     9234.152     3962.671        4.427        2.152      213.255       75.483        0.125      338.075       10.479      862.894
12/20/2014  18:48:00     -410.705      -25.075      -31.953      180.743      125.732       84.123    32668.086    15808.614     7076.698       11.293        2.778      411.470       96.254        0.055      338.094       10.510      862.882
12/20/2014  18:49:00     -355.262      -69.674      -22.436      145.911      120.283       66.112    21289.888    14467.969     4370.833        8.584        2.006      362.029       64.878        0.032      338.034       10.408      862.883
12/20/2014  18:50:00     -266.525      -16.520      -36.069      135.934      120.899       60.663    18478.159    14616.544     3680.025        5.468        1.839      267.036       69.236        0.067      338.089       10.501      862.864
12/20/2014  18:51:00     -306.142      -94.174      -27.669      126.000      101.853       59.940    15876.052    10374.086     3592.837        6.659        1.492      320.299       42.875        0.018      337.946       10.260      862.818
12/20/2014  18:52:00     -261.435     -101.675      -16.409      117.803      126.799       67.320    13877.472    16077.906     4531.938        5.671        1.724      280.511       51.244        0.033      338.022       10.387      862.811
12/20/2014  18:53:00     -380.624      -46.519      -20.236      202.794      150.925       72.617    41125.345    22778.295     5273.199       10.830        3.459      383.456       69.426        0.033      338.010       10.369      862.838
12/20/2014  18:54:00     -301.888     -127.547      -10.029      181.903      141.668       83.916    33088.796    20069.962     7041.890        8.384        3.010      327.726       97.061        0.088      337.962       10.286      862.823
12/20/2014  18:55:00     -285.207      -98.923       -0.879      120.167      125.069       71.238    14439.996    15642.248     5074.923        6.314        1.758      301.875       60.599        0.040      338.037       10.414      862.859
12/20/2014  18:56:00     -409.256      -61.799      -23.591      164.750      160.646       86.133    27142.569    25807.077     7418.855       11.611        3.018      413.896       76.104        0.034      338.044       10.424      862.860
12/20/2014  18:57:00     -388.878     -108.726       -0.470      214.084      177.259       93.746    45831.942    31420.685     8788.299       12.453        4.302      403.791      105.016        0.068      338.060       10.451      862.884
12/20/2014  18:58:00     -431.995      -57.217      -37.554      155.454      128.792       66.592    24166.095    16587.308     4434.522       11.824        2.259      435.767       73.256        0.028      338.063       10.457      862.955
12/20/2014  18:59:00     -348.866     -141.837       -4.442      154.691      114.671       64.813    23929.279    13149.458     4200.697        9.155        2.064      376.597       76.467        0.041      338.015       10.377      863.017
12/20/2014  19:00:00     -294.710      -96.315       -9.307      125.592      108.758       68.584    15773.366    11828.244     4703.789        6.425        1.615      310.049       65.035        0.044      338.009       10.367      863.060
12/20/2014  19:01:00     -472.192     -125.544      -43.373      101.726      107.004       68.490    10348.115    11449.833     4690.830       13.354        1.324      488.596       48.383        0.010      337.993       10.340      863.078
12/20/2014  19:02:00     -392.213     -110.165      -14.042      173.996      131.945       84.147    30274.460    17409.559     7080.651       11.045        2.738      407.391       93.578        0.053      338.080       10.486      863.123
12/20/2014  19:03:00     -310.441      -95.344      -10.982      140.030      122.344       73.261    19608.264    14968.085     5367.243        7.276        1.997      324.753       76.447        0.055      338.057       10.447      863.171
12/20/2014  19:04:00     -414.402      -67.538      -36.700      175.658      118.489       78.195    30855.664    14039.634     6114.462       11.431        2.550      419.869       82.775        0.039      338.034       10.408      863.199
12/20/2014  19:05:00     -396.859     -101.894      -30.174      186.091      142.056       78.507    34629.967    20179.853     6163.338       11.487        3.049      409.731       74.327        0.033      337.998       10.348      863.186
12/20/2014  19:06:00     -457.301     -143.839      -20.781      146.386      132.332       89.458    21428.961    17511.743     8002.724       13.859        2.347      479.390       87.891        0.034      338.001       10.354      863.201
12/20/2014  19:07:00     -342.566      -75.291       -2.438      175.675      133.356       81.855    30861.749    17783.712     6700.262        8.917        2.767      350.743       96.543        0.076      338.044       10.427      863.217
12/20/2014  19:08:00     -453.403      -46.058      -34.256      123.504      127.711       69.358    15253.164    16310.205     4810.566       12.261        1.819      455.736       59.372        0.017      338.034       10.409      863.217
12/20/2014  19:09:00     -310.024      -94.100      -18.012      105.872      121.677       63.707    11208.873    14805.363     4058.520        6.768        1.504      323.990       65.639        0.041      338.062       10.455      863.198
12/20/2014  19:10:00     -403.553     -207.118      -14.126      238.207      185.877       88.724    56742.718    34550.160     7871.947       15.254        4.958      453.600      111.146        0.060      338.012       10.372      863.198
12/20/2014  19:11:00     -606.120     -245.111       -9.994      299.098      234.425      113.517    89459.397    54955.093    12886.170       29.240        7.865      653.805      131.244        0.040      338.094       10.508      863.146
12/20/2014  19:12:00     -447.785     -145.880       -8.213      200.837      176.124       84.336    40335.448    31019.734     7112.496       15.015        3.923      470.949       92.881        0.039      338.059       10.451      863.168
12/20/2014  19:13:00     -372.012      -69.452       -0.543      261.919      140.070       87.968    68601.780    19619.716     7738.412       11.957        4.798      378.440       99.928        0.070      338.024       10.392      863.142
12/20/2014  19:14:00     -532.447     -100.620      -35.090      251.959      135.923       90.557    63483.236    18474.971     8200.617       19.249        4.508      541.871      109.215        0.041      338.048       10.432      863.100
12/20/2014  19:15:00     -315.584      -57.840      -34.721      152.598      119.930       70.962    23286.137    14383.133     5035.649        7.342        2.135      320.840       57.616        0.032      338.133       10.575      863.088
12/20/2014  19:16:00     -349.067      -62.154       -9.909      226.016      151.099       81.324    51083.244    22831.053     6613.538       10.315        4.026      354.557      103.827        0.086      338.081       10.487      863.081
12/20/2014  19:17:00     -345.452       -2.486       -3.348      218.908      133.798       78.902    47920.769    17901.818     6225.521        9.569        3.602      345.461      102.282        0.088      338.117       10.549      863.108
12/20/2014  19:18:00     -457.081      -89.050       -4.454      232.313      191.682       92.053    53969.502    36741.866     8473.739       15.801        4.959      465.675       88.167        0.036      338.151       10.603      863.096
12/20/2014  19:19:00     -386.875      -36.546      -25.971      227.484      168.698       90.878    51748.967    28458.915     8258.741       12.006        4.423      388.598      103.995        0.072      338.157       10.613      863.101
12/20/2014  19:20:00     -196.132      -90.497       -3.131      116.838      110.831       67.598    13651.143    12283.557     4569.523        3.858        1.525      216.003       48.860        0.051      338.123       10.559      863.138
12/20/2014  19:21:00     -341.790       53.168      -25.550      150.602      102.526       65.188    22681.038    10511.602     4249.496        7.886        1.872      345.900       61.644        0.032      338.258       10.784      863.150
12/20/2014  19:22:00     -402.563     -143.728      -17.970      160.581      179.830       76.298    25786.390    32338.895     5821.458       12.348        3.197      427.452       83.008        0.038      338.125       10.561      863.122
12/20/2014  19:23:00     -332.273     -109.717      -19.967      147.449      103.922       68.755    21741.121    10799.683     4727.268        8.005        1.863      349.919       71.184        0.041      338.115       10.544      863.128
12/20/2014  19:24:00     -438.803       23.687      -37.392      210.001      128.271       85.154    44100.304    16453.407     7251.269       13.114        3.390      439.442       96.718        0.048      338.235       10.744      863.111
12/20/2014  19:25:00     -374.228      -37.164      -36.584      130.478      134.359       63.780    17024.636    18052.309     4067.921        9.095        1.957      376.069       58.478        0.024      338.138       10.582      863.148
12/20/2014  19:26:00     -196.632      -45.349       -6.967      165.845      105.922       65.094    27504.606    11219.487     4237.201        4.186        2.148      201.793       82.387        0.167      338.077       10.480      863.158
12/20/2014  19:27:00     -311.990      -96.889      -40.239      136.215      121.530       59.706    18554.575    14769.580     3564.851        7.261        1.844      326.689       50.046        0.023      338.094       10.507      863.162
12/20/2014  19:28:00     -532.923      -83.284      -42.715      131.164      124.548       68.044    17203.959    15512.120     4630.032       16.505        1.867      539.391       69.117        0.016      338.041       10.421      863.172
12/20/2014  19:29:00     -368.268     -161.805      -32.459      168.862      121.445       82.348    28514.258    14748.791     6781.213       10.644        2.502      402.246       81.650        0.041      338.052       10.440      863.173
12/20/2014  19:30:00     -368.997      -84.724      -10.330      234.578      129.495       76.831    55026.660    16768.857     5903.013       11.056        3.885      378.599       97.947        0.067      338.131       10.571      863.172
12/20/2014  19:31:00     -401.428       47.075      -49.996      112.027      105.000       56.333    12550.082    11025.016     3173.428        9.630        1.337      404.179       52.028        0.017      338.176       10.646      863.204
12/20/2014  19:32:00     -294.009      -61.581      -22.492      133.554      134.263       67.640    17836.553    18026.444     4575.152        6.558        2.022      300.389       64.141        0.046      338.109       10.533      863.211
12/20/2014  19:33:00     -530.204      -62.938      -30.481      208.512      165.062       86.603    43477.319    27245.536     7500.150       18.210        3.911      533.926      102.271        0.037      338.135       10.577      863.233
12/20/2014  19:34:00     -424.476     -147.077        0.471      196.320      157.322       85.922    38541.690    24750.286     7382.616       13.623        3.534      449.234      104.295        0.054      338.195       10.677      863.219
12/20/2014  19:35:00     -491.275      -65.192      -22.476      214.216      152.644       93.920    45888.358    23300.068     8821.010       16.204        3.900      495.582      102.109        0.042      338.253       10.777      863.241
12/20/2014  19:36:00     -357.816     -103.774      -16.416      158.112      169.731       85.017    24999.334    28808.478     7227.897       10.004        3.052      372.561       96.920        0.068      338.273       10.811      863.220
12/20/2014  19:37:00     -299.220      -72.381      -16.218      155.496      115.196       69.554    24179.024    13270.015     4837.826        6.865        2.114      307.850       74.066        0.058      338.259       10.786      863.203
12/20/2014  19:38:00     -359.655      -25.249      -13.879      217.168      163.309       89.232    47161.817    26669.927     7962.274       10.597        4.090      360.540      101.405        0.079      338.272       10.808      863.194
12/20/2014  19:39:00     -530.132      -84.799      -36.642      263.114      196.950       93.795    69228.998    38789.194     8797.412       20.317        5.841      536.871      105.841        0.039      338.261       10.791      863.147
12/20/2014  19:40:00     -449.635     -108.707      -35.699      162.339      144.988       77.882    26353.820    21021.398     6065.662       13.434        2.672      462.589       81.770        0.031      338.185       10.662      863.166
12/20/2014  19:41:00     -561.567     -142.694      -34.350      231.818      189.041       90.968    53739.519    35736.476     8275.254       21.731        4.888      579.413      101.302        0.031      338.252       10.774      863.130
12/20/2014  19:42:00     -448.318     -195.250      -36.242      196.182      190.494       92.724    38487.370    36288.137     8597.731       16.188        4.169      488.991       90.222        0.034      338.199       10.684      863.107
12/20/2014  19:43:00     -343.790      -49.971       -9.490      182.582      118.447       78.708    33336.208    14029.799     6194.969        8.716        2.678      347.403       91.933        0.070      338.258       10.783      863.162
12/20/2014  19:44:00     -440.563     -118.303      -23.454      167.260      154.726       77.320    27975.912    23940.221     5978.360       13.326        2.895      456.170       76.316        0.028      338.229       10.735      863.181
12/20/2014  19:45:00     -284.462       -1.053        7.861      205.871      181.508      101.223    42383.065    32945.293    10246.160        8.326        4.279      284.464      107.975        0.144      338.249       10.769      863.174
12/20/2014  19:46:00     -520.789     -142.378       -4.166      240.307      145.860       79.458    57747.431    21274.998     6313.544       18.841        4.267      539.901       92.653        0.029      338.307       10.867      863.181
12/20/2014  19:47:00     -436.002      -26.339      -33.467      214.330      136.084       80.257    45937.294    18518.737     6441.218       13.139        3.545      436.797       86.610        0.039      338.304       10.862      863.203
12/20/2014  19:48:00     -482.757      -96.541      -37.334      219.784      171.471       88.952    48304.968    29402.198     7912.530       16.468        4.281      492.316       95.418        0.038      338.283       10.827      863.225
12/20/2014  19:49:00     -593.719     -100.096      -38.909      222.485      204.600      102.308    49499.564    41861.169    10466.929       23.291        5.091      602.098      108.319        0.032      338.249       10.768      863.251
12/20/2014  19:50:00     -430.959      -64.590      -36.483      195.101      156.575       79.997    38064.471    24515.703     6399.568       13.009        3.449      435.772       81.018        0.035      338.226       10.729      863.223
12/20/2014  19:51:00     -364.984     -100.512      -12.654      204.733      159.699       92.254    41915.626    25503.766     8510.813       10.969        3.797      378.571      102.450        0.073      338.132       10.572      863.236
12/20/2014  19:52:00     -376.362     -119.538      -20.250      156.681      149.427       83.442    24549.036    22328.349     6962.532       10.508        2.692      394.889       74.003        0.035      338.130       10.569      863.258
12/20/2014  19:53:00     -387.374      -70.220      -40.020      148.132      140.940       78.364    21943.103    19863.966     6140.882       10.226        2.397      393.687       70.605        0.032      338.117       10.547      863.292
12/20/2014  19:54:00     -349.959     -101.193       -7.815      156.641      114.198       73.328    24536.411    13041.072     5376.949        8.785        2.148      364.295       76.723        0.044      338.096       10.513      863.282
12/20/2014  19:55:00     -332.962      -73.179      -12.502      150.648      136.524       67.310    22694.827    18638.760     4530.652        8.111        2.293      340.909       79.533        0.054      338.074       10.475      863.250
12/20/2014  19:56:00     -379.693      -75.649      -14.121      138.073      119.218       65.751    19064.039    14212.974     4323.175        9.384        1.880      387.156       76.582        0.039      338.107       10.530      863.260
12/20/2014  19:57:00     -236.552     -102.778      -19.262      168.656      106.299       74.518    28445.001    11299.489     5552.964        5.609        2.265      257.915       77.202        0.090      338.086       10.497      863.278
12/20/2014  19:58:00     -270.523      -42.496       -5.406      158.371       85.866       64.940    25081.262     7372.965     4217.140        5.584        1.834      273.841       71.743        0.069      338.117       10.549      863.315
12/20/2014  19:59:00     -459.663     -127.545       -9.512      210.738      177.777       95.348    44410.372    31604.516     9091.332       15.636        4.255      477.030      105.591        0.049      338.150       10.603      863.316
12/20/2014  20:00:00     -399.358      -94.314        2.686      185.595      137.965       86.063    34445.682    19034.357     7406.873       11.463        3.044      410.343       91.022        0.049      338.104       10.527      863.331
12/20/2014  20:01:00     -453.157      -47.791      -35.613      174.133      160.629       90.827    30322.446    25801.659     8249.462       13.663        3.219      455.670       98.670        0.047      338.169       10.635      863.349
12/20/2014  20:02:00     -354.506      -54.778      -25.147      146.459      132.419       64.861    21450.351    17534.862     4207.003        8.624        2.160      358.713       56.472        0.025      338.103       10.525      863.398
12/20/2014  20:03:00     -420.860      -88.195      -11.612      139.565      175.822       80.520    19478.373    30913.467     6483.452       12.094        2.844      430.002       74.484        0.030      338.170       10.637      863.440
12/20/2014  20:04:00     -515.917      -21.531      -34.311      151.036      128.973       85.360    22811.749    16633.938     7286.269       15.726        2.337      516.366       90.868        0.031      338.097       10.514      863.532
12/20/2014  20:05:00     -397.843      -93.015      -16.595      183.011      174.850       86.848    33492.870    30572.626     7542.644       11.939        3.580      408.571       93.603        0.052      338.063       10.457      863.548
12/20/2014  20:06:00     -349.170      -89.675      -21.317      165.333      151.964       81.380    27335.065    23092.938     6622.660        9.372        2.853      360.501       79.335        0.048      338.105       10.527      863.502
12/20/2014  20:07:00     -375.285      -69.521       -5.516      214.822      203.799       83.184    46148.458    41534.165     6919.568       12.013        4.730      381.670       90.461        0.056      338.080       10.486      863.456
12/20/2014  20:08:00     -395.059      -97.417      -18.242      194.322      154.060       80.791    37761.177    23734.405     6527.130       11.695        3.401      406.893       81.067        0.040      338.096       10.513      863.421
12/20/2014  20:09:00     -353.856        6.944       -1.371      192.837      149.555       95.175    37186.012    22366.774     9058.283        9.692        3.431      353.924       96.778        0.075      338.113       10.540      863.411
12/20/2014  20:10:00     -195.480      -92.481       10.560      241.018      188.247       99.776    58089.864    35436.959     9955.163        7.516        5.174      216.252      116.949        0.292      338.089       10.501      863.452
12/20/2014  20:11:00     -254.584     -118.225       -5.937      158.320      126.274       80.334    25065.242    15945.151     6453.501        6.314        2.373      280.696       89.432        0.102      338.074       10.477      863.486
12/20/2014  20:12:00     -323.848     -104.114       -2.702      180.339      125.980       74.386    32521.975    15870.921     5533.278        8.481        2.696      340.172       80.887        0.057      338.135       10.578      863.549
12/20/2014  20:13:00     -289.520     -200.512      -14.136      192.054      160.088       86.694    36884.739    25628.212     7515.895        9.711        3.501      352.174      101.048        0.082      338.144       10.591      863.590
12/20/2014  20:14:00     -272.104     -113.832      -18.374      129.935      115.934       60.142    16883.022    13440.644     3617.065        6.063        1.697      294.954       63.226        0.046      338.156       10.613      863.642
12/20/2014  20:15:00     -337.628        9.243      -12.945      214.895      125.373       83.313    46180.045    15718.356     6940.991        9.153        3.442      337.755      103.627        0.094      338.228       10.734      863.667
12/20/2014  20:16:00     -273.440      -36.742       -8.474      140.327      114.179       56.949    19691.728    13036.758     3243.182        5.607        1.799      275.898       57.693        0.044      338.177       10.648      863.669
12/20/2014  20:17:00     -250.485      -22.728       -3.169      155.061      102.066       60.367    24043.813    10417.513     3644.185        5.068        1.905      251.514       72.125        0.082      338.124       10.560      863.665
12/20/2014  20:18:00     -332.848      -85.717      -14.598      164.230      159.012       74.662    26971.613    25284.813     5574.416        8.808        2.892      343.708       82.802        0.058      338.173       10.640      863.654
12/20/2014  20:19:00     -406.633        9.534      -14.017      184.504      147.878       85.871    34041.589    21867.950     7373.864       11.445        3.164      406.745       79.063        0.038      338.221       10.720      863.659
12/20/2014  20:20:00     -308.921     -111.328       -6.241      220.028      143.345      109.022    48412.521    20547.839    11885.829        9.434        4.042      328.369      115.632        0.124      338.150       10.603      863.624
12/20/2014  20:21:00     -345.804     -136.981      -16.616      259.316      159.812      102.764    67244.717    25539.927    10560.362       12.096        5.167      371.947      130.277        0.123      338.237       10.750      863.628
12/20/2014  20:22:00     -321.047     -147.709      -27.788      111.358      103.765       60.298    12400.706    10767.185     3635.862        7.623        1.340      353.396       32.824        0.009      338.197       10.681      863.635
12/20/2014  20:23:00     -317.979     -108.406      -11.487      208.943      161.459       89.823    43656.982    26068.975     8068.161        9.538        3.890      335.950      100.825        0.090      338.254       10.778      863.615
12/20/2014  20:24:00     -332.730     -122.458      -18.207      145.185      107.807       63.362    21078.776    11622.447     4014.738        8.137        1.836      354.550       62.206        0.031      338.192       10.674      863.620
12/20/2014  20:25:00     -431.497      -34.386      -31.274      177.008      135.686       79.246    31331.932    18410.623     6279.898       12.217        2.801      432.865       81.213        0.035      338.260       10.787      863.608
12/20/2014  20:26:00     -388.017      -15.358      -18.038      169.997      127.498       77.878    28899.025    16255.696     6065.031       10.116        2.561      388.321       90.320        0.054      338.274       10.810      863.617
12/20/2014  20:27:00     -299.128      -30.406      -17.985      150.737       99.556       69.150    22721.688     9911.311     4781.721        6.406        1.871      300.669       79.758        0.070      338.227       10.732      863.642
12/20/2014  20:28:00     -320.818      -51.317       -6.683      119.277      151.879       65.466    14227.047    23067.154     4285.789        7.358        2.079      324.896       47.698        0.022      338.243       10.758      863.612
12/20/2014  20:29:00     -397.195     -121.023       -7.896      169.950      154.257       71.544    28883.031    23795.201     5118.487       11.512        2.890      415.223       76.350        0.034      338.208       10.701      863.588
12/20/2014  20:30:00     -421.056      -97.896      -30.020      174.739      120.958       76.401    30533.565    14630.813     5837.182       11.938        2.550      432.287       81.237        0.035      338.150       10.600      863.576
12/20/2014  20:31:00     -277.449      -72.553       -9.614      142.482      102.642       60.025    20300.982    10535.327     3603.032        5.838        1.722      286.778       59.714        0.043      338.153       10.607      863.563
12/20/2014  20:32:00     -291.988       -3.823        4.829      194.023      106.514       78.879    37645.057    11345.213     6221.933        7.024        2.761      292.013      107.781        0.136      338.196       10.678      863.574
12/20/2014  20:33:00     -313.421     -100.635       -8.499      148.090      109.809       57.170    21930.548    12058.041     3268.465        7.284        1.863      329.181       62.100        0.036      338.079       10.484      863.594
12/20/2014  20:34:00     -410.155     -124.664      -18.848      185.763      125.714       67.329    34507.884    15803.956     4533.235       11.947        2.742      428.682       73.773        0.030      338.133       10.574      863.551
12/20/2014  20:35:00     -292.133      -24.116        1.665      141.213      119.788       71.960    19940.997    14349.052     5178.232        6.269        1.973      293.127       74.235        0.064      338.141       10.588      863.531
12/20/2014  20:36:00     -357.964      -36.442      -27.979      190.616      121.890       83.992    36334.295    14857.108     7054.584        9.424        2.912      359.814       92.597        0.066      338.199       10.684      863.519
12/20/2014  20:37:00     -292.399      -32.920       -5.723      136.190      121.227       65.209    18547.664    14696.004     4252.198        6.205        1.875      294.247       65.684        0.050      338.152       10.607      863.564
12/20/2014  20:38:00     -327.004      -36.406      -17.728      165.791      123.094       67.772    27486.694    15152.146     4592.992        7.789        2.362      329.025       85.678        0.068      338.166       10.630      863.553
12/20/2014  20:39:00     -240.812        7.641      -15.203      144.559      109.994       68.362    20897.160    12098.789     4673.328        4.797        1.883      240.934       75.981        0.099      338.221       10.721      863.562
12/20/2014  20:40:00     -382.060     -134.232      -18.098      110.967      151.687       66.040    12313.746    23008.873     4361.321       10.199        1.984      404.955       70.422        0.030      338.138       10.582      863.561
12/20/2014  20:41:00     -250.270      -78.990      -14.901      177.612      106.931       65.674    31545.990    11434.152     4313.067        5.819        2.365      262.440       84.797        0.104      338.121       10.555      863.571
12/20/2014  20:42:00     -224.987      -96.968       -6.960      135.017      126.310       79.607    18229.683    15954.255     6337.256        5.029        2.026      244.994       88.749        0.131      338.104       10.525      863.576
12/20/2014  20:43:00     -250.786      -45.943       -4.544      145.312      153.831       73.953    21115.641    23663.964     5468.982        5.763        2.512      254.959       68.451        0.072      338.166       10.629      863.605
12/20/2014  20:44:00     -280.740      -28.569       -3.548      134.425      132.604       68.764    18070.118    17583.752     4728.476        6.001        2.019      282.190       61.590        0.048      338.159       10.617      863.643
12/20/2014  20:45:00     -311.099      -74.687       -7.803      141.939      130.893       75.897    20146.572    17133.076     5760.379        7.272        2.152      319.939       80.243        0.063      338.148       10.599      863.629
12/20/2014  20:46:00     -449.112     -109.589      -29.386      129.737      114.840       69.838    16831.720    13188.262     4877.284       12.473        1.745      462.289       58.077        0.016      338.103       10.523      863.623
12/20/2014  20:47:00     -336.260     -152.798       -1.150      138.522      113.641       65.526    19188.270    12914.388     4293.674        8.640        1.820      369.348       66.399        0.032      338.031       10.404      863.578
12/20/2014  20:48:00     -407.551     -137.152      -27.313      241.979      132.627       83.280    58554.014    17589.802     6935.606       13.435        4.154      430.010      102.887        0.057      338.103       10.523      863.544
12/20/2014  20:49:00     -414.552     -117.569      -14.160      156.692      171.889       80.694    24552.283    29545.852     6511.447       12.323        3.030      430.901       73.362        0.029      338.284       10.826      863.555
12/20/2014  20:50:00     -384.595      -93.637      -11.314      123.955      129.249       76.327    15364.851    16705.242     5825.800        9.734        1.895      395.830       73.253        0.034      338.177       10.648      863.634
12/20/2014  20:51:00     -416.023      -86.968      -10.805      129.063      148.091       74.816    16657.251    21931.004     5597.477       11.246        2.209      425.016       68.218        0.026      338.165       10.626      863.661
12/20/2014  20:52:00     -449.982      -75.788      -21.067      136.215      103.297       66.025    18554.449    10670.289     4359.262       12.112        1.679      456.320       69.162        0.023      338.194       10.676      863.659
12/20/2014  20:53:00     -523.900      -48.490      -39.023      121.376      104.761       63.091    14732.139    10974.945     3980.503       15.401        1.484      526.140       68.885        0.017      338.214       10.710      863.689
12/20/2014  20:54:00     -359.107     -102.572      -16.165      130.644      112.817       71.448    17067.931    12727.604     5104.848        8.731        1.745      373.469       63.872        0.029      338.163       10.623      863.747
12/20/2014  20:55:00     -425.752      -76.251      -27.683      120.022      102.903       63.871    14405.386    10588.940     4079.449       10.845        1.454      432.526       57.525        0.018      338.147       10.595      863.783
12/20/2014  20:56:00     -410.650      -56.014      -21.860      135.554      109.113       55.955    18374.816    11905.541     3130.992       10.282        1.671      414.452       61.149        0.022      338.157       10.614      863.812
12/20/2014  20:57:00     -311.213     -162.945      -18.845       84.857       69.235       59.010     7200.691     4793.457     3482.224        6.962        0.774      351.290       37.199        0.011      338.139       10.583      863.779
12/20/2014  20:58:00     -275.562      -84.716      -10.586      135.772       91.664       62.111    18434.139     8402.330     3857.820        5.695        1.535      288.290       61.705        0.046      338.189       10.669      863.757
12/20/2014  20:59:00     -286.453      -25.153      -14.310      125.027      103.754       66.434    15631.703    10764.895     4413.492        5.685        1.541      287.555       69.164        0.058      338.247       10.767      863.729
12/20/2014  21:00:00     -338.965      -41.115      -15.491      156.902      118.309       73.609    24618.339    13996.974     5418.270        8.042        2.202      341.450       71.193        0.043      338.273       10.810      863.704
12/20/2014  21:01:00     -335.785      -99.733       -8.699      205.011      137.425       85.423    42029.320    18885.731     7297.081        9.548        3.411      350.283      101.803        0.084      338.292       10.842      863.698
12/20/2014  21:02:00     -408.081     -123.322      -22.175      172.250      146.625       78.768    29670.194    21498.970     6204.390       11.979        2.869      426.308       86.083        0.041      338.257       10.783      863.694
12/20/2014  21:03:00     -444.582      -29.860      -12.209      193.701      136.588       82.232    37520.163    18656.250     6762.097       13.080        3.147      445.584       91.005        0.042      338.273       10.809      863.706
12/20/2014  21:04:00     -377.842      -54.555       -8.802      168.216      162.467       88.742    28296.457    26395.387     7875.227       10.418        3.128      381.760       93.093        0.059      338.347       10.933      863.692
12/20/2014  21:05:00     -421.758     -162.351      -21.339      206.180      127.960       80.328    42509.990    16373.794     6452.633       13.500        3.267      451.927       68.797        0.023      338.285       10.829      863.645
12/20/2014  21:06:00     -434.243      -87.807      -18.303      178.558      150.336       72.760    31883.058    22601.052     5294.028       12.818        2.989      443.032       85.304        0.037      338.346       10.931      863.668
12/20/2014  21:07:00     -348.192      -96.185      -18.283      162.876      170.694       79.608    26528.552    29136.508     6337.454        9.640        3.100      361.232       78.941        0.048      338.390       11.006      863.675
12/20/2014  21:08:00     -406.086     -129.348      -12.886      138.310      136.336       65.895    19129.538    18587.527     4342.150       11.192        2.103      426.189       55.397        0.017      338.382       10.993      863.649
12/20/2014  21:09:00     -433.178      -67.632      -15.464      158.567      132.803       72.677    25143.560    17636.584     5281.946       12.025        2.403      438.426       80.675        0.034      338.282       10.825      863.686
12/20/2014  21:10:00     -470.923      -65.364      -32.181      155.759      129.067       68.256    24260.797    16658.278     4658.874       13.632        2.279      475.438       73.724        0.024      338.301       10.858      863.702
12/20/2014  21:11:00     -377.105     -133.262      -15.686      155.378      105.878       69.066    24142.193    11210.045     4770.049       10.016        2.006      399.959       80.355        0.040      338.256       10.781      863.737
12/20/2014  21:12:00     -420.894      -84.666      -26.915      163.368      132.558       74.953    26689.063    17571.743     5617.998       11.745        2.494      429.325       74.606        0.030      338.310       10.872      863.765
12/20/2014  21:13:00     -290.767      -13.758      -10.474      143.497      133.833       67.595    20591.246    17911.255     4569.106        6.395        2.154      291.092       70.384        0.058      338.377       10.985      863.808
12/20/2014  21:14:00     -315.813      -86.907      -20.335      116.493      100.913       55.286    13570.615    10183.446     3056.586        6.725        1.341      327.552       46.630        0.020      338.299       10.854      863.857
12/20/2014  21:15:00     -349.499      -59.232      -26.413      138.078      101.904       66.879    19065.554    10384.351     4472.822        8.013        1.696      354.482       56.689        0.026      338.309       10.869      863.897
12/20/2014  21:16:00     -422.156      -83.992      -30.818      147.595      132.665       67.346    21784.424    17600.071     4535.449       11.506        2.196      430.430       56.493        0.017      338.303       10.859      863.891
12/20/2014  21:17:00     -340.558     -126.163      -14.971      158.251      116.087       71.150    25043.416    13476.252     5062.380        8.784        2.179      363.176       77.816        0.046      338.341       10.925      863.836
12/20/2014  21:18:00     -280.706      -46.274      -18.377      137.362      124.233       66.488    18868.298    15433.715     4420.614        5.999        1.936      284.494       77.135        0.074      338.399       11.021      863.849
12/20/2014  21:19:00     -341.905     -122.610       -0.036      177.406      127.517       78.703    31473.006    16260.626     6194.223        9.292        2.696      363.224       90.271        0.062      338.308       10.870      863.825
12/20/2014  21:20:00     -282.109      -56.328      -26.724      149.768      133.044       79.524    22430.521    17700.810     6323.995        6.495        2.323      287.677       83.469        0.084      338.350       10.939      863.776
12/20/2014  21:21:00     -306.945      -58.202       -9.772      197.032       99.630       64.388    38821.706     9926.178     4145.872        7.529        2.645      312.414       90.958        0.085      338.389       11.005      863.756
12/20/2014  21:22:00     -305.654      -30.149      -22.056      182.868      137.212       79.004    33440.823    18827.191     6241.647        7.665        2.925      307.137       82.561        0.072      338.380       10.989      863.748
12/20/2014  21:23:00     -357.150     -123.136      -18.843      161.724      136.821       67.418    26154.798    18719.907     4545.180        9.624        2.471      377.782       78.047        0.043      338.369       10.971      863.757
12/20/2014  21:24:00     -319.214      -14.911      -20.688      128.985      109.094       60.366    16637.127    11901.467     3644.024        6.736        1.609      319.562       66.689        0.044      338.507       11.204      863.777
12/20/2014  21:25:00     -377.658       20.695      -23.320      226.807      101.698       72.441    51441.551    10342.574     5247.627       10.530        3.352      378.225      101.667        0.072      338.464       11.130      863.808
12/20/2014  21:26:00     -201.029      -28.966       -2.922      122.112       98.579       52.441    14911.302     9717.843     2750.079        3.431        1.369      203.105       57.473        0.080      338.432       11.077      863.819
12/20/2014  21:27:00     -366.002      -73.488      -21.456      132.796      139.110       70.968    17634.728    19351.613     5036.417        9.091        2.101      373.306       66.310        0.032      338.426       11.066      863.810
12/20/2014  21:28:00     -315.432      -94.478      -19.251      113.916       99.077       53.248    12976.940     9816.169     2835.311        6.721        1.281      329.277       49.443        0.023      338.306       10.865      863.839
12/20/2014  21:29:00     -267.550      -64.177      -22.196      103.970      115.708       55.081    10809.783    13388.368     3033.921        5.171        1.362      275.139       49.073        0.032      338.402       11.026      863.871
12/20/2014  21:30:00     -233.155      -93.918       -5.407      165.023       98.925       69.544    27232.584     9786.219     4836.373        5.252        2.093      251.360       80.690        0.103      338.317       10.885      863.855
12/20/2014  21:31:00     -377.834      -46.669      -26.808      136.840      118.144       60.991    18725.179    13958.031     3719.948        9.102        1.820      380.705       69.868        0.034      338.429       11.071      863.837
12/20/2014  21:32:00     -229.329      -18.299      -14.116       87.722       91.100       47.401     7695.140     8299.276     2246.876        3.568        0.912      230.058       40.371        0.031      338.358       10.951      863.885
12/20/2014  21:33:00     -284.862      -46.441      -33.546      119.170       87.062       51.509    14201.445     7579.708     2653.214        5.443        1.222      288.623       46.782        0.026      338.402       11.026      863.938
12/20/2014  21:34:00     -129.656       33.946       -9.227       90.995       86.296       49.997     8280.123     7447.017     2499.705        1.813        0.911      134.026       43.644        0.106      338.439       11.089      863.962
12/20/2014  21:35:00     -193.976       63.917      -31.322       89.916      113.038       48.103     8084.819    12777.596     2313.905        3.293        1.159      204.236       37.445        0.034      338.416       11.050      863.969
12/20/2014  21:36:00      -70.188      -43.012       25.500      165.610      147.442       92.745    27426.621    21739.049     8601.702        3.259        2.888       82.319       80.793        0.963      338.379       10.988      863.910
12/20/2014  21:37:00     -369.851      -38.690       -3.931      194.580       91.532       67.962    37861.525     8378.100     4618.813        9.457        2.543      371.869       88.168        0.056      338.375       10.981      863.934
12/20/2014  21:38:00     -260.317        6.299      -32.987      120.682       86.890       41.692    14564.088     7549.882     1738.209        4.637        1.193      260.393       46.251        0.032      338.400       11.022      863.910
12/20/2014  21:39:00     -186.108       -3.309      -22.132      129.457      103.923       51.356    16759.242    10800.056     2637.441        3.266        1.510      186.138       43.966        0.056      338.410       11.043      863.849
12/20/2014  21:40:00     -277.855      -68.072      -18.182      104.463      105.267       58.971    10912.441    11081.129     3477.572        5.381        1.274      286.072       40.469        0.020      338.378       10.987      863.839
12/20/2014  21:41:00     -306.578      -77.403      -26.851      116.971      134.825       64.538    13682.296    18177.798     4165.114        6.836        1.801      316.198       56.197        0.032      338.465       11.131      863.897
12/20/2014  21:42:00     -377.122     -128.588      -14.995       87.447       57.361       36.809     7647.054     3290.286     1354.880        8.563        0.615      398.442       15.491        0.002      338.338       10.917      863.980
12/20/2014  21:43:00     -309.912      -65.681      -29.751       87.042       85.066       46.962     7576.261     7236.197     2205.452        5.913        0.851      316.795       42.760        0.018      338.356       10.950      864.004
12/20/2014  21:44:00     -231.668      -57.204      -11.562      107.343       78.574       51.441    11522.429     6173.945     2646.133        3.871        1.017      238.626       50.841        0.045      338.367       10.967      864.011
12/20/2014  21:45:00     -239.577      -83.539      -14.205      102.974       76.725       45.392    10603.573     5886.763     2060.444        4.156        0.928      253.724       49.873        0.039      338.376       10.982      864.051
12/20/2014  21:46:00     -195.414      -54.434      -27.437      102.767      108.536       48.302    10561.048    11780.060     2333.126        3.328        1.234      202.854       55.852        0.076      338.398       11.019      864.076
12/20/2014  21:47:00     -136.475       22.241       -3.296       90.356       70.380       44.203     8164.157     4953.412     1953.915        1.710        0.754      138.275       50.202        0.132      338.436       11.084      864.115
12/20/2014  21:48:00     -128.879      -47.130      -18.986       86.058       75.224       53.775     7405.988     5658.646     2891.804        1.757        0.798      137.227       45.058        0.108      338.359       10.956      864.148
12/20/2014  21:49:00     -209.655      -40.469      -12.203      125.491      102.850       63.783    15747.992    10578.212     4068.282        3.806        1.520      213.525       73.596        0.119      338.429       11.071      864.159
12/20/2014  21:50:00     -116.272       20.218      -27.590       55.030       81.080       33.287     3028.259     6573.991     1108.026        1.270        0.536      118.017        9.198        0.006      338.403       11.030      864.196
12/20/2014  21:51:00     -122.953      -81.927        0.302      100.669       88.313       34.463    10134.190     7799.118     1187.712        2.047        0.956      147.748       33.571        0.052      338.352       10.944      864.172
12/20/2014  21:52:00     -145.379       32.124      -20.133       99.480      133.634       59.017     9896.299    17858.046     3483.028        2.690        1.562      148.886       49.879        0.112      338.423       11.061      864.149
12/20/2014  21:53:00     -203.510       30.925      -29.908       59.780       73.805       41.264     3573.619     5447.129     1702.713        2.699        0.536      205.847       28.295        0.019      338.546       11.269      864.188
12/20/2014  21:54:00     -146.246       63.448      -27.320       82.857       61.570       39.382     6865.246     3790.891     1550.915        1.918        0.610      159.416       26.826        0.028      338.524       11.233      864.204
12/20/2014  21:55:00     -195.918      -53.375       -9.247       90.075       87.414       47.054     8113.425     7641.147     2214.110        2.964        0.898      203.058       26.550        0.017      338.602       11.361      864.181
12/20/2014  21:56:00     -181.325      -68.858      -19.986       89.920       85.853       52.945     8085.524     7370.670     2803.136        2.814        0.913      193.959       37.044        0.036      338.516       11.218      864.174
12/20/2014  21:57:00     -142.377      -10.302      -13.967       77.142       75.194       46.218     5950.875     5654.137     2136.147        1.715        0.687      142.749       39.767        0.078      338.506       11.202      864.149
12/20/2014  21:58:00     -207.632      -27.493      -19.341       75.914       74.709       50.557     5762.983     5581.493     2556.060        2.907        0.695      209.444       42.307        0.041      338.506       11.201      864.091
12/20/2014  21:59:00     -160.980       19.622      -18.436       59.742       67.686       34.200     3569.114     4581.381     1169.644        1.798        0.466      162.171       30.527        0.035      338.558       11.290      864.069
12/20/2014  22:00:00     -124.445       -6.796      -20.490       59.999       75.645       38.131     3599.877     5722.186     1453.948        1.336        0.539      124.630       28.783        0.053      338.527       11.240      864.074
12/20/2014  22:01:00     -189.210      -80.589      -10.584       95.354       66.887       41.404     9092.415     4473.911     1714.320        2.884        0.764      205.657       45.985        0.050      338.473       11.147      864.076
12/20/2014  22:02:00     -166.570      -27.119       -8.197       96.885       80.981       41.570     9386.681     6557.896     1728.051        2.311        0.884      168.763       47.936        0.081      338.582       11.328      864.075
12/20/2014  22:03:00      -68.773       45.981       -5.907       67.774       80.478       31.176     4593.325     6476.727      971.915        0.946        0.602       82.729       27.768        0.113      338.597       11.356      864.077
12/20/2014  22:04:00     -133.865      157.332      -21.968       71.192       80.513       44.532     5068.353     6482.344     1983.122        2.834        0.677      206.575       30.126        0.021      338.561       11.294      864.096
12/20/2014  22:05:00      -51.783        5.960        0.845       53.621       54.911       31.594     2875.200     3015.237      998.190        0.480        0.344       52.125       32.902        0.398      338.540       11.262      864.075
12/20/2014  22:06:00     -112.606      186.144      -18.882       69.440      107.646       44.603     4821.913    11587.714     1989.430        3.304        0.920      217.554       31.235        0.021      338.551       11.278      864.064
12/20/2014  22:07:00     -126.448      184.419      -14.820       99.600       95.620       55.805     9920.188     9143.182     3114.203        3.619        1.109      223.605       54.419        0.059      338.522       11.228      864.022
12/20/2014  22:08:00     -148.002        2.525      -15.019       88.873       52.338       45.196     7898.457     2739.268     2042.674        1.741        0.634      148.024       33.417        0.051      338.608       11.373      863.993
12/20/2014  22:09:00     -139.189       -9.021      -17.803       69.741       81.968       40.160     4863.759     6718.760     1612.855        1.648        0.660      139.481       32.297        0.054      338.566       11.304      864.031
12/20/2014  22:10:00     -145.201       12.512      -17.426      103.971       61.289       36.606    10809.903     3756.345     1339.986        1.872        0.795      145.739       42.988        0.087      338.466       11.136      864.027
12/20/2014  22:11:00     -158.176       17.309      -25.348       54.775       97.829       38.780     3000.256     9570.559     1503.860        2.002        0.704      159.121       21.048        0.017      338.461       11.126      864.031
12/20/2014  22:12:00     -242.563      139.682      -32.633      154.259       93.918       65.284    23795.936     8820.656     4262.058        5.814        1.844      279.907       71.515        0.065      338.506       11.200      864.032
12/20/2014  22:13:00     -291.168       63.204      -35.013      106.391      109.487       46.258    11318.969    11987.483     2139.828        5.772        1.272      297.949       38.240        0.016      338.571       11.310      864.019
12/20/2014  22:14:00     -212.865      -10.845      -21.026      118.266       78.121       46.469    13986.819     6102.838     2159.414        3.406        1.112      213.141       47.708        0.050      338.520       11.226      863.977
12/20/2014  22:15:00     -208.821      -62.220      -20.486       82.672       90.099       36.205     6834.585     8117.763     1310.781        3.208        0.813      217.893       30.184        0.019      338.496       11.184      864.000
12/20/2014  22:16:00     -243.204      -26.775        3.038      130.066      110.550       74.792    16917.095    12221.351     5593.900        4.730        1.737      244.674       63.555        0.067      338.488       11.171      863.979
12/20/2014  22:17:00     -277.187     -102.580      -11.846       69.210       73.026       48.751     4790.069     5332.839     2376.626        5.000        0.625      295.559       37.233        0.016      338.393       11.009      863.964
12/20/2014  22:18:00     -152.588      -28.548       -5.419      145.522       83.479       39.550    21176.733     6968.799     1564.233        2.691        1.485      155.235       43.417        0.078      338.337       10.917      863.940
12/20/2014  22:19:00     -269.286     -117.220      -27.515       78.514       88.114       35.964     6164.477     7764.027     1293.394        5.111        0.761      293.693       35.999        0.015      338.336       10.915      863.935
12/20/2014  22:20:00     -210.474      -75.368       -2.889       91.301       61.389       39.050     8335.911     3768.565     1524.925        3.181        0.681      223.561       31.456        0.020      338.260       10.788      863.946
12/20/2014  22:21:00     -212.947      -75.707       -1.512      110.205       79.714       58.889    12145.042     6354.307     3467.911        3.652        1.098      226.004       60.967        0.073      338.253       10.775      863.949
12/20/2014  22:22:00     -163.580      -47.425      -13.100       87.687       77.897       50.792     7688.924     6067.983     2579.852        2.275        0.817      170.316       33.359        0.038      338.283       10.827      863.938
12/20/2014  22:23:00     -328.435      -41.066      -13.280       98.449       97.786       52.308     9692.191     9562.192     2736.165        6.586        1.100      330.992       49.994        0.023      338.330       10.904      863.924
12/20/2014  22:24:00     -266.870      -47.831      -14.486      122.912      115.802       59.477    15107.478    13410.096     3537.547        5.288        1.603      271.123       58.391        0.046      338.378       10.985      863.930
12/20/2014  22:25:00     -367.445      -51.981      -37.980      119.736      135.532       67.671    14336.763    18368.826     4579.329        8.822        1.864      371.104       68.928        0.034      338.373       10.977      863.926
12/20/2014  22:26:00     -310.663      -92.569      -18.316      156.350      109.818       58.479    24445.364    12060.027     3419.789        7.266        1.996      324.161       56.461        0.030      338.333       10.910      863.869
12/20/2014  22:27:00     -278.564      -43.766      -13.297      100.730       91.866       59.753    10146.594     8439.276     3570.481        5.092        1.108      281.982       53.387        0.036      338.388       11.002      863.885
12/20/2014  22:28:00     -478.639     -100.389      -30.292      222.168      120.908       80.735    49358.824    14618.759     6518.174       15.528        3.525      489.053      100.125        0.042      338.344       10.929      863.866
12/20/2014  22:29:00     -374.132      -90.312      -25.807      183.889      152.486       79.312    33815.019    23251.989     6290.356       10.606        3.168      384.878       89.993        0.055      338.382       10.991      863.834
12/20/2014  22:30:00     -373.774       28.028      -35.017      102.104       86.084       55.474    10425.257     7410.478     3077.331        8.131        1.046      374.824       45.263        0.015      338.417       11.050      863.809
12/20/2014  22:31:00     -272.308      -47.494      -32.628      157.771      124.083       50.262    24891.582    15396.597     2526.300        6.013        2.141      276.419       51.318        0.034      338.338       10.919      863.830
12/20/2014  22:32:00     -372.486     -192.953      -15.009      235.594      141.426       92.905    55504.385    20001.436     8631.290       13.015        4.207      419.496       97.927        0.054      338.422       11.060      863.793
12/20/2014  22:33:00     -158.283      -62.063        3.120      128.574      111.523       67.486    16531.349    12437.466     4554.293        3.121        1.676      170.016       57.227        0.113      338.418       11.055      863.757
12/20/2014  22:34:00     -400.107      -57.240      -30.527      160.923      115.271       69.710    25896.079    13287.482     4859.496       10.416        2.202      404.181       75.975        0.035      338.455       11.115      863.794
12/20/2014  22:35:00     -270.680      -78.573      -22.741       96.713       77.093       43.142     9353.408     5943.323     1861.203        4.855        0.858      281.853       38.053        0.018      338.334       10.912      863.817
12/20/2014  22:36:00     -190.024      -78.763      -14.973      128.066       76.450       57.906    16400.979     5844.643     3353.070        3.406        1.280      205.700       64.409        0.098      338.324       10.896      863.865
12/20/2014  22:37:00     -143.678      -59.543      -13.384      125.596       92.137       63.828    15774.437     8489.198     4074.045        2.635        1.417      155.527       40.784        0.069      338.367       10.969      863.927
12/20/2014  22:38:00     -211.496       28.083      -25.516       92.355      103.717       46.187     8529.385    10757.296     2133.256        3.379        1.071      213.352       44.329        0.043      338.412       11.042      863.979
12/20/2014  22:39:00     -282.031      -78.333      -19.364      143.481      107.802       63.549    20586.656    11621.290     4038.456        6.114        1.812      292.707       63.133        0.047      338.408       11.035      863.989
12/20/2014  22:40:00     -183.584      -62.453      -12.418       70.678       71.025       47.206     4995.366     5044.534     2228.395        2.501        0.613      193.917       38.854        0.040      338.407       11.035      863.990
12/20/2014  22:41:00     -171.528      -46.327      -11.183      110.497       93.845       40.628    12209.673     8806.809     1650.612        2.718        1.133      177.674       46.902        0.070      338.319       10.888      863.991
12/20/2014  22:42:00     -230.214       10.463      -18.627      136.861      135.569       70.209    18731.036    18378.942     4929.308        4.774        2.102      230.451       75.463        0.107      338.387       11.001      864.045
12/20/2014  22:43:00     -212.886      -27.903      -19.657      106.284       81.973       36.575    11296.234     6719.649     1337.748        3.292        0.968      214.707       36.251        0.029      338.368       10.970      864.085
12/20/2014  22:44:00      -75.753       50.016        2.146       78.813       53.007       43.075     6211.564     2809.742     1855.429        0.956        0.544       90.775       32.272        0.126      338.384       10.998      864.090
12/20/2014  22:45:00     -159.486       30.127      -20.731       90.617       92.624       35.369     8211.425     8579.201     1250.975        2.240        0.902      162.306       43.880        0.073      338.429       11.072      864.072
12/20/2014  22:46:00     -171.381       64.545      -32.293       67.029       91.248       45.722     4492.824     8326.170     2090.500        2.474        0.745      183.132       41.509        0.051      338.491       11.176      864.063
12/20/2014  22:47:00     -219.854      -69.326      -32.078       80.623      123.939       57.402     6500.146    15360.948     3294.992        3.966        1.258      230.526       29.577        0.016      338.458       11.119      864.077
12/20/2014  22:48:00     -300.651      -35.630      -21.178      133.329      131.372       71.517    17776.572    17258.563     5114.673        6.612        2.007      302.755       80.076        0.070      338.482       11.160      864.108
12/20/2014  22:49:00     -231.991      -19.446      -27.833      158.716       84.447       64.970    25190.924     7131.264     4221.077        4.575        1.827      232.805       72.296        0.096      338.482       11.160      864.083
12/20/2014  22:50:00     -396.921      -38.172      -35.044      147.322      155.001       66.088    21703.910    24025.339     4367.686       10.515        2.505      398.753       65.347        0.027      338.560       11.291      864.031
12/20/2014  22:51:00     -416.829     -104.090      -12.833      152.639      132.912       72.706    23298.782    17665.635     5286.094       11.549        2.313      429.629       74.096        0.030      338.547       11.268      864.045
12/20/2014  22:52:00     -320.613      -48.150      -35.467       91.524       74.428       52.177     8376.610     5539.529     2722.395        6.150        0.832      324.208       51.725        0.025      338.637       11.420      864.005
12/20/2014  22:53:00     -254.020      -68.933      -22.732      121.244      104.136       57.765    14700.175    10844.378     3336.757        4.933        1.444      263.207       57.799        0.048      338.578       11.323      864.001
12/20/2014  22:54:00     -247.297      -78.081      -34.328      133.965       91.152       63.369    17946.512     8308.762     4015.681        4.934        1.514      259.331       70.070        0.073      338.670       11.476      864.011
12/20/2014  22:55:00     -201.370      -25.323        0.769      157.546      109.857       63.508    24820.853    12068.459     4033.208        4.105        2.046      202.956       71.635        0.125      338.653       11.449      864.019
12/20/2014  22:56:00     -209.327      -56.633      -11.084       73.204       81.112       44.649     5358.872     6579.091     1993.552        3.054        0.697      216.853       29.571        0.019      338.555       11.284      864.019
12/20/2014  22:57:00     -274.541      -22.792      -28.069      111.845       95.084       45.250    12509.335     9040.988     2047.606        5.013        1.180      275.485       41.160        0.022      338.574       11.315      864.009
12/20/2014  22:58:00     -177.943       67.080      -18.865       84.401      109.367       52.472     7123.484    11961.218     2753.334        2.917        1.092      190.167       52.961        0.078      338.671       11.479      863.980
12/20/2014  22:59:00     -187.277      -96.346       -3.900      122.875       76.703       54.765    15098.351     5883.369     2999.213        3.417        1.199      210.607       61.778        0.086      338.545       11.267      863.969
12/20/2014  23:00:00     -285.758      -66.318       -7.727      116.693       99.856       59.683    13617.229     9971.201     3562.025        5.663        1.358      293.353       49.137        0.028      338.598       11.356      863.960
12/20/2014  23:01:00     -114.658        5.517       -6.498       81.472       64.063       41.557     6637.754     4104.030     1726.968        1.284        0.623      114.791       27.766        0.059      338.628       11.410      863.950
12/20/2014  23:02:00     -216.546      -38.318      -20.553      114.164      115.156       53.864    13033.376    13260.815     2901.301        3.898        1.460      219.910       46.789        0.045      338.617       11.387      863.965
12/20/2014  23:03:00     -352.984      -91.473      -27.308      144.474      162.184       71.600    20872.643    26303.602     5126.583        9.300        2.615      364.644       69.175        0.036      338.669       11.474      863.975
12/20/2014  23:04:00     -270.255     -144.364       -8.574      189.231      110.102       71.659    35808.349    12122.388     5134.997        7.350        2.653      306.397       84.107        0.075      338.653       11.448      863.970
12/20/2014  23:05:00     -347.810      -88.886      -18.777      132.089      129.066       58.893    17447.580    16658.034     3468.390        8.339        1.879      358.989       49.818        0.019      338.702       11.531      863.996
12/20/2014  23:06:00     -197.278        9.296      -25.194      105.088      109.318       50.471    11043.462    11950.408     2547.311        3.259        1.277      197.497       43.943        0.050      338.795       11.686      864.026
12/20/2014  23:07:00     -333.895      -49.865      -21.905      155.993      119.585       68.674    24333.884    14300.608     4716.094        7.889        2.168      337.598       69.103        0.042      338.761       11.629      864.041
12/20/2014  23:08:00     -229.802      -63.963       -0.724      152.090      124.096       55.718    23131.296    15399.879     3104.548        4.926        2.082      238.537       65.316        0.075      338.785       11.669      864.028
12/20/2014  23:09:00     -183.487       34.515      -29.061       94.037      100.417       63.734     8842.960    10083.510     4061.972        2.934        1.149      186.705       36.075        0.037      338.832       11.749      864.010
12/20/2014  23:10:00     -115.226       84.868      -24.605       69.745       73.137       53.416     4864.323     5349.008     2853.240        1.707        0.653      143.107       39.430        0.076      338.850       11.780      864.020
12/20/2014  23:11:00     -214.436      -17.248       -7.379      115.929       81.819       47.741    13439.534     6694.356     2279.167        3.437        1.121      215.128       48.823        0.052      338.778       11.657      864.010
12/20/2014  23:12:00     -159.889       -5.718      -12.653      125.843       98.141       60.777    15836.405     9631.619     3693.864        2.745        1.458      159.992       78.617        0.241      338.831       11.749      863.957
12/20/2014  23:13:00     -249.704      118.430      -45.019      106.567      108.865       68.609    11356.480    11851.524     4707.184        5.315        1.396      276.365       55.531        0.040      338.810       11.712      863.953
12/20/2014  23:14:00     -109.345       91.430      -11.852       77.674       86.051       44.505     6033.210     7404.810     1980.734        1.793        0.771      142.534       33.127        0.054      338.837       11.759      863.936
12/20/2014  23:15:00     -129.532      -30.504       -7.081       60.124       84.912       42.234     3614.913     7210.058     1783.674        1.518        0.630      133.076       26.912        0.041      338.784       11.670      863.961
12/20/2014  23:16:00     -229.874      -90.789      -24.511      109.993       75.637       44.050    12098.544     5720.921     1940.388        4.072        0.988      247.154       42.904        0.030      338.686       11.503      863.992
12/20/2014  23:17:00     -194.429      -65.428       -3.745       89.977       71.586       43.294     8095.928     5124.619     1874.346        2.859        0.755      205.142       44.128        0.046      338.652       11.445      864.018
12/20/2014  23:18:00     -114.101       -1.389      -11.969       66.724       64.848       39.780     4452.095     4205.269     1582.464        1.170        0.512      114.109       35.766        0.098      338.728       11.577      864.000
12/20/2014  23:19:00     -221.573       73.801      -39.428       79.584      130.556       60.884     6333.598    17044.814     3706.891        4.159        1.354      233.540       34.771        0.022      338.790       11.676      863.962
12/20/2014  23:20:00     -206.275        7.646      -39.824       72.753      106.258       48.289     5293.064    11290.858     2331.865        3.155        0.946      206.417       34.390        0.028      338.674       11.483      863.967
12/20/2014  23:21:00     -105.364       28.506       11.168      160.801       90.902       80.217    25856.938     8263.174     6434.774        2.629        2.028      109.152       96.526        0.782      338.801       11.698      863.938
12/20/2014  23:22:00     -263.071      -75.047      -24.029      128.384       98.999       55.187    16482.538     9800.741     3045.653        5.237        1.466      273.566       60.648        0.049      338.675       11.484      863.929
12/20/2014  23:23:00     -222.285      -35.456      -11.633      116.916       99.518       59.555    13669.401     9903.830     3546.790        3.896        1.356      225.095       54.829        0.059      338.706       11.535      863.892
12/20/2014  23:24:00     -257.954      -79.084      -26.002      108.474      108.185       75.422    11766.603    11703.889     5688.497        5.131        1.458      269.805       60.886        0.051      338.661       11.460      863.914
12/20/2014  23:25:00     -309.110      -75.465      -26.075      131.102      106.219       73.720    17187.810    11282.384     5434.606        6.791        1.695      318.188       69.325        0.047      338.780       11.662      863.914
12/20/2014  23:26:00     -461.312     -104.086      -24.182      197.630      116.542       77.477    39057.490    13582.102     6002.633       14.142        2.932      472.909       85.280        0.033      338.773       11.649      863.938
12/20/2014  23:27:00     -285.752        2.587      -11.580      148.508      131.799       72.408    22054.537    17370.916     5242.954        6.322        2.233      285.764       81.049        0.080      338.794       11.684      863.955
12/20/2014  23:28:00     -303.311      -51.880      -24.503      114.098       85.308       48.256    13018.371     7277.507     2328.614        5.895        1.131      307.716       54.741        0.032      338.761       11.628      863.957
12/20/2014  23:29:00     -302.499     -111.479      -12.243      123.799      112.648       55.042    15326.269    12689.482     3029.640        6.756        1.552      322.387       58.508        0.033      338.647       11.437      863.989
12/20/2014  23:30:00     -301.001      -47.232       -7.922      103.893       80.023       52.913    10793.786     6403.703     2799.794        5.644        1.000      304.684       57.137        0.035      338.704       11.533      863.994
12/20/2014  23:31:00     -298.866      -52.242      -15.299      112.509       88.220       49.453    12658.283     7782.766     2445.620        5.758        1.144      303.397       48.205        0.025      338.669       11.475      863.994
12/20/2014  23:32:00     -233.621      -10.610       -8.581      116.072       76.889       57.345    13472.675     5911.928     3288.431        3.871        1.134      233.861       64.063        0.075      338.705       11.535      864.021
12/20/2014  23:33:00     -244.526      -42.584       -4.067      108.266       75.867       44.011    11721.634     5755.832     1936.932        4.051        0.971      248.206       50.223        0.041      338.696       11.520      864.024
12/20/2014  23:34:00     -138.562      -29.332        2.139       92.449       64.380       36.774     8546.870     4144.758     1352.304        1.705        0.702      141.633       45.223        0.102      338.653       11.449      864.027
12/20/2014  23:35:00     -146.424       -8.922       -4.372       98.512       61.001       31.967     9704.642     3721.101     1021.872        1.799        0.722      146.695       40.539        0.076      338.765       11.637      864.044
12/20/2014  23:36:00     -214.567      -53.398      -11.481      106.279       64.392       45.492    11295.218     4146.320     2069.555        3.326        0.876      221.111       50.423        0.052      338.659       11.459      864.038
12/20/2014  23:37:00     -261.094      -53.672      -23.603       94.314       76.488       47.617     8895.055     5850.459     2267.387        4.431        0.851      266.554       45.416        0.029      338.669       11.475      864.062
12/20/2014  23:38:00     -234.088        4.564      -14.953      127.570       85.894       49.802    16274.070     7377.703     2480.211        4.058        1.307      234.133       54.052        0.053      338.618       11.390      864.071
12/20/2014  23:39:00     -193.517      -52.176      -19.553       99.612      117.384       56.962     9922.498    13779.037     3244.706        3.374        1.347      200.427       58.930        0.086      338.770       11.645      864.026
12/20/2014  23:40:00     -380.678      -49.612      -35.803      113.854      100.970       62.761    12962.760    10194.975     3938.919        8.787        1.355      383.897       56.399        0.022      338.848       11.776      863.981
12/20/2014  23:41:00     -289.485      -23.615      -20.612      176.048      108.608       54.906    30993.041    11795.652     3014.639        6.528        2.290      290.446       67.566        0.054      338.681       11.495      864.035
12/20/2014  23:42:00     -295.333       70.038      -45.657      135.853       98.697       61.850    18456.091     9741.153     3825.431        6.311        1.601      303.524       57.024        0.035      338.852       11.781      864.049
12/20/2014  23:43:00     -372.093      -90.368      -22.512      144.789      169.363       77.422    20963.717    28683.745     5994.232       10.137        2.782      382.909       65.318        0.029      338.798       11.691      864.032
12/20/2014  23:44:00     -431.456      -92.855      -33.425      130.006      143.135       73.123    16901.568    20487.535     5346.901       11.931        2.137      441.335       62.990        0.020      338.789       11.676      864.049
12/20/2014  23:45:00     -282.143      -96.833      -11.536      113.492       87.671       62.246    12880.349     7686.190     3874.606        5.677        1.222      298.298       62.270        0.044      338.714       11.549      864.027
12/20/2014  23:46:00     -249.685      -84.587       -9.394      115.512       81.636       51.194    13343.133     6664.459     2620.872        4.610        1.131      263.624       48.800        0.034      338.598       11.356      864.038
12/20/2014  23:47:00     -281.877      -38.500        0.962      156.907      112.670       69.745    24619.679    12694.575     4864.334        6.155        2.109      284.494       80.506        0.080      338.651       11.445      864.012
12/20/2014  23:48:00     -344.437      -47.392      -19.141      163.620      160.480       72.484    26771.532    25753.791     5254.002        8.950        2.889      347.682       70.828        0.041      338.716       11.553      863.947
12/20/2014  23:49:00     -520.804        1.733      -33.306      145.244      151.451       71.100    21095.829    22937.500     5055.144       16.071        2.454      520.806       63.291        0.015      338.724       11.566      863.913
12/20/2014  23:50:00     -528.679     -178.237      -17.566      157.375      132.858       77.607    24767.024    17651.326     6022.789       18.000        2.422      557.915       70.578        0.016      338.623       11.397      863.907
12/20/2014  23:51:00     -342.530      -59.781      -17.014      140.335      129.604       73.135    19693.776    16797.241     5348.660        8.151        2.092      347.708       74.218        0.046      338.680       11.493      863.899
12/20/2014  23:52:00     -346.859     -152.643      -11.999      151.110      113.499       69.798    22834.117    12882.117     4871.819        9.216        2.029      378.961       70.017        0.034      338.610       11.376      863.874
12/20/2014  23:53:00     -397.944      -90.288      -25.622      163.065      132.081       69.857    26590.287    17445.410     4879.995       10.803        2.446      408.058       79.426        0.038      338.627       11.404      863.847
12/20/2014  23:54:00     -351.762      -96.999      -15.646      201.575      150.548       87.124    40632.641    22664.643     7590.626       10.212        3.544      364.891      102.505        0.079      338.634       11.415      863.859
12/20/2014  23:55:00     -397.190      -64.818      -24.421      155.442      133.364       71.416    24162.227    17786.010     5100.251       10.479        2.352      402.444       78.957        0.038      338.681       11.495      863.859
12/20/2014  23:56:00     -357.035      -48.199      -15.391      215.662      142.630       78.041    46510.052    20343.308     6090.453       10.147        3.647      360.273       95.351        0.070      338.633       11.414      863.861
12/20/2014  23:57:00     -470.095     -134.294      -14.374      165.286      134.854       79.061    27319.554    18185.548     6250.677       14.548        2.588      488.901       84.325        0.030      338.601       11.361      863.832
12/20/2014  23:58:00     -426.339     -122.767       -3.582      170.212      126.340       68.888    28972.069    15961.779     4745.611       12.325        2.484      443.663       64.533        0.021      338.579       11.324      863.825
12/20/2014  23:59:00     -435.438     -104.168      -20.863      159.615      124.922       76.590    25477.079    15605.430     5866.031       12.391        2.347      447.725       67.420        0.023      338.576       11.319      863.863
